GFSNW_700_rhum_000.txt.gz
RH
49 49 45 47 50 53 39 47 50 44 34 39 44 36 36 52 44 33 35 38 38 40 38 43 45 44 40 33 39 44 42 27 46 43 42 39 38 26 23 18 33 42 49 34
50 52 50 45 48 54 42 40 42 42 38 32 33 33 53 55 46 41 36 37 37 37 38 42 45 43 43 39 28 33 41 38 42 37 32 27 28 29 28 26 26 37 57 26
52 55 52 46 44 49 50 45 43 39 37 29 27 30 56 61 53 41 41 37 36 41 43 37 38 43 46 47 30 26 43 31 29 22 23 24 26 26 26 37 36 33 30 26
52 56 52 48 41 44 45 45 45 36 33 29 25 27 52 58 55 43 42 44 39 46 43 44 46 46 48 44 34 27 41 32 33 23 22 23 22 21 28 36 35 40 29 32
50 52 52 47 43 42 43 42 45 33 25 23 23 25 46 55 54 49 43 50 42 46 48 49 49 48 50 43 25 17 29 26 21 28 26 25 23 23 22 24 26 31 33 25
53 51 48 45 43 43 43 39 32 37 23 22 23 23 45 58 57 54 44 44 32 34 46 52 50 45 44 32 22 11 21 23 20 23 19 22 21 12 12 13 16 19 25 21
59 53 47 45 43 40 42 41 37 66 33 25 19 21 51 59 52 58 48 42 33 39 55 54 55 50 45 41 33 22 13 14 17 22 24 43 13 13 13 13 15 15 21 25
60 56 50 44 40 42 43 44 62 76 63 35 20 23 63 54 61 53 48 40 42 54 58 60 60 58 54 42 38 32 28 27 21 22 25 21 16 14 13 14 17 18 28 35
63 62 51 43 38 42 44 76 79 73 64 47 19 33 67 58 60 58 59 54 49 54 62 61 60 56 48 35 29 28 32 29 30 27 29 40 17 15 14 16 25 19 24 37
70 65 54 45 40 42 71 86 78 68 62 37 30 64 68 55 55 60 60 59 57 56 59 65 62 58 52 42 30 25 21 24 32 33 33 27 21 20 20 34 20 30 30 31
69 60 43 41 39 50 80 91 75 78 65 59 70 67 67 63 60 57 57 60 61 62 69 69 66 64 56 46 38 31 27 26 26 32 41 36 21 24 30 27 33 40 45 49
73 49 43 42 39 62 97 78 72 69 68 72 71 71 70 60 55 59 60 61 62 64 69 66 63 48 34 26 28 24 36 28 29 29 24 26 32 38 42 45 51 50 61 69
72 60 50 46 47 64 88 72 67 55 53 52 68 65 57 63 66 65 65 62 59 61 57 50 33 29 26 24 23 23 23 28 35 34 34 36 41 47 49 58 57 58 75 82
80 79 66 52 54 73 63 61 56 54 51 58 59 62 66 70 70 67 65 57 56 60 54 43 39 36 34 33 33 38 39 35 36 39 36 42 44 44 46 49 49 52 62 76
82 80 77 68 59 54 57 50 46 48 48 47 65 69 68 69 68 66 57 40 43 41 42 37 36 41 42 43 51 49 37 38 46 49 50 56 52 51 50 51 52 59 63 68
63 70 74 65 54 43 37 41 42 38 37 32 64 71 71 71 70 61 47 29 29 31 33 36 40 39 47 62 61 41 35 48 60 63 64 64 62 60 58 53 53 56 62 74
53 52 54 52 48 46 49 47 42 41 39 37 34 41 50 51 40 30 28 28 29 33 38 42 44 46 54 59 64 42 54 59 61 64 67 67 72 73 70 69 69 74 84 97
58 53 51 49 48 47 47 45 42 41 39 35 35 33 28 27 27 28 28 30 32 35 39 43 44 50 56 67 51 51 51 54 58 65 72 77 82 85 79 76 86 91 99 96
53 53 52 50 46 41 40 39 39 39 40 40 39 37 37 40 44 46 47 46 46 47 49 48 51 58 66 66 56 55 57 61 70 81 88 88 85 80 74 80 98 100 98 99
57 53 54 54 54 47 44 47 49 52 54 58 59 59 60 59 59 59 58 57 57 55 55 55 56 54 56 54 50 52 63 77 83 82 80 78 75 74 74 80 80 100 99 97
65 64 64 63 62 62 62 64 63 63 62 62 64 63 63 62 64 64 66 67 67 65 63 65 71 78 67 72 73 77 80 82 85 84 85 89 93 96 97 99 98 99 98 96
60 58 58 60 61 59 60 63 64 65 63 61 56 52 53 61 66 77 76 78 75 70 79 87 95 97 90 93 95 96 95 94 90 96 100 100 100 99 98 97 97 96 95 94
78 74 71 68 66 70 76 85 80 60 56 55 57 62 72 74 78 84 95 89 89 85 95 99 100 99 100 97 91 93 98 99 100 99 99 97 97 96 96 95 94 93 93 93
95 96 92 82 89 95 99 90 80 74 75 79 86 92 91 97 99 98 96 98 99 98 99 98 100 100 100 100 99 100 98 97 96 95 94 93 92 91 87 86 83 88 89 74
97 97 96 96 94 92 95 94 97 94 96 98 95 97 98 98 98 98 97 98 98 98 99 100 100 97 97 96 95 94 93 89 84 84 86 84 75 57 62 80 91 81 53 38
87 85 86 85 92 94 96 93 91 95 98 99 99 97 97 99 98 98 99 98 98 98 98 99 98 97 96 95 95 95 94 94 88 58 40 50 66 68 63 53 41 36 32 28
18 28 47 63 78 82 80 79 79 79 79 90 100 96 93 95 96 94 94 92 93 95 95 95 96 95 94 94 94 91 64 43 54 60 64 65 56 43 39 37 34 32 33 35

GFSNW_700_rhum_003.txt.gz
RH
28 49 60 57 52 42 46 58 58 51 50 54 46 48 37 50 48 34 33 30 38 38 39 40 38 40 42 39 35 38 44 33 37 41 38 34 32 30 18 16 25 33 39 24
33 56 66 62 60 44 45 56 59 54 46 44 42 44 37 44 47 44 34 36 36 38 39 42 42 42 42 41 31 39 43 38 40 42 40 39 34 29 20 22 21 27 52 18
42 60 65 64 70 51 55 59 62 56 46 40 36 43 35 53 52 46 42 38 38 39 38 40 41 42 44 43 45 30 41 39 32 30 24 24 28 18 22 27 23 21 19 16
56 66 64 61 74 66 67 74 58 54 50 42 30 37 33 54 57 50 38 38 40 34 44 44 40 42 44 48 48 34 33 42 35 31 22 23 24 22 22 20 21 27 17 16
64 67 66 57 68 75 77 75 57 50 41 38 31 30 30 46 56 50 40 45 44 40 50 49 49 50 48 48 46 36 31 36 38 32 29 24 19 16 16 18 21 23 19 14
66 69 61 55 60 65 77 71 57 44 38 34 34 25 25 53 55 53 46 41 50 45 42 46 44 43 47 49 42 23 22 32 28 23 22 27 27 12 11 12 12 14 15 12
66 64 62 57 56 55 60 58 56 49 39 34 29 23 23 52 57 54 52 41 41 38 49 52 51 50 47 40 30 22 14 20 25 20 21 43 14 13 12 13 12 10 10 13
63 60 58 58 55 54 56 50 44 43 51 30 27 26 24 45 61 43 59 46 40 50 58 59 62 60 58 51 45 40 32 26 20 21 26 18 16 15 15 16 15 13 12 16
56 56 55 53 52 55 58 51 48 39 39 38 25 25 24 47 56 52 50 48 46 56 57 59 62 57 52 44 38 38 41 39 33 27 27 46 17 17 17 17 20 18 22 24
58 53 52 50 49 54 57 71 52 63 85 59 36 27 22 50 52 49 55 55 53 49 52 57 62 62 58 52 46 40 33 27 29 33 34 26 20 20 22 26 24 31 31 32
60 58 56 50 49 51 52 56 75 82 80 66 55 27 27 58 58 58 56 61 60 57 59 61 64 64 64 61 52 45 40 29 25 27 37 32 23 28 31 35 37 40 40 45
66 62 55 49 47 48 49 77 94 88 78 56 37 45 68 67 53 43 59 59 56 58 62 64 65 69 64 56 48 35 36 32 31 30 26 28 34 38 40 41 44 51 54 58
65 61 57 51 45 47 59 93 95 82 78 50 53 70 68 70 66 61 62 61 59 54 58 63 68 65 47 38 32 28 25 27 29 30 30 35 37 38 41 44 45 48 50 50
62 53 50 45 46 58 85 94 80 79 82 76 78 78 74 70 64 68 66 61 62 61 62 63 58 45 40 37 35 35 34 33 34 37 36 44 46 48 52 54 54 55 56 55
75 60 54 43 52 76 86 81 68 66 59 55 64 70 72 74 73 70 67 66 60 44 50 50 47 44 41 41 47 43 35 37 44 47 53 66 63 64 65 65 60 56 54 52
82 67 62 70 74 83 82 74 64 66 62 47 69 70 70 70 70 70 67 63 42 27 26 28 32 33 40 57 61 37 37 48 56 61 62 63 64 71 69 70 71 72 70 65
84 71 70 68 69 72 77 62 54 57 51 35 64 68 68 71 73 70 56 32 23 23 26 28 31 34 46 52 51 41 45 49 54 57 61 63 71 78 84 81 81 83 77 78
75 83 84 59 54 54 48 45 46 40 37 36 37 45 60 64 56 46 28 22 23 26 31 35 37 42 46 58 61 53 46 43 49 60 70 76 89 95 95 90 88 85 85 98
77 62 56 48 49 50 50 47 45 44 42 40 38 34 31 30 28 29 34 38 45 48 50 51 51 54 61 62 57 58 59 62 65 71 77 85 94 87 79 80 79 94 100 99
66 62 58 54 50 48 44 43 42 41 39 39 38 36 36 38 42 49 56 58 59 60 60 58 56 55 53 50 51 52 55 62 69 79 85 88 90 91 93 100 100 100 100 100
82 75 68 59 55 52 48 46 47 48 50 48 48 49 51 51 55 60 65 67 66 65 65 67 72 88 64 56 63 72 78 85 91 96 95 96 98 100 100 100 97 97 97 97
77 66 61 60 60 57 60 64 61 59 59 55 50 49 52 57 61 68 73 73 72 66 71 78 98 90 88 80 86 95 98 97 95 95 88 97 99 99 100 100 97 95 95 95
87 82 78 74 67 62 61 61 60 60 59 58 55 56 60 64 65 86 83 83 85 85 94 100 100 100 100 100 100 98 100 98 95 98 98 97 96 95 94 92 91 88 87 87
83 81 77 66 73 71 67 58 57 55 57 58 63 66 76 80 88 88 93 99 99 99 99 98 100 100 100 100 99 99 98 97 96 94 91 80 75 78 85 93 92 80 61 46
99 95 90 88 80 83 77 74 79 74 79 86 88 87 91 95 95 98 98 96 98 98 100 98 100 100 100 98 97 96 94 93 89 87 74 57 58 56 58 55 49 43 39 36
97 98 97 97 98 97 92 87 92 95 96 98 97 99 98 98 96 97 97 98 95 93 91 94 98 96 96 96 95 94 93 90 69 46 47 42 40 43 43 43 41 39 36 35
43 56 88 91 94 98 97 97 96 96 97 98 98 97 97 96 97 96 96 95 96 95 94 95 98 96 95 95 94 71 46 58 63 61 54 53 51 50 47 44 42 41 43 43

GFSNW_700_rhum_006.txt.gz
RH
92 99 42 33 50 56 46 43 66 79 75 71 62 55 48 39 46 36 31 30 31 36 38 37 42 34 31 30 35 40 40 41 48 43 35 38 38 38 31 25 31 40 53 20
78 99 40 39 60 52 42 49 81 72 75 74 62 52 40 39 50 40 34 25 38 35 38 43 40 37 39 42 39 36 36 44 46 44 41 39 41 32 27 18 18 37 56 18
100 97 37 59 68 62 59 55 75 68 74 65 56 51 45 41 48 51 36 36 35 35 38 39 41 43 40 40 41 35 40 43 43 38 32 33 41 25 25 27 34 28 31 18
99 71 38 74 79 75 57 71 84 76 71 61 53 47 35 43 50 48 46 39 37 35 38 37 42 41 40 43 42 46 35 45 41 37 31 24 22 30 24 24 24 31 19 25
98 75 59 83 88 89 63 86 80 75 58 53 46 42 40 41 57 51 44 43 33 39 39 45 42 40 42 45 46 48 44 36 32 39 36 30 24 21 24 21 30 16 24 13
98 65 78 84 90 81 71 92 72 65 49 51 43 36 43 36 56 53 45 40 39 50 42 51 49 48 46 45 47 46 43 32 35 43 34 35 38 22 20 14 12 12 28 25
99 85 78 80 84 83 72 92 74 61 54 46 44 35 32 33 45 54 46 30 48 49 44 41 42 42 42 47 46 37 25 30 39 30 25 70 25 16 14 16 13 13 13 13
92 85 80 77 79 88 82 78 72 59 51 46 35 39 30 34 56 54 45 45 40 47 51 49 55 54 52 48 42 37 26 20 23 23 42 23 16 14 14 15 16 16 15 14
89 80 78 73 73 83 82 70 72 60 45 37 33 32 29 26 50 56 46 54 44 53 54 58 61 65 55 50 47 48 44 39 32 28 37 82 20 16 17 18 29 26 21 23
82 76 73 65 63 71 73 74 65 59 57 41 33 31 28 27 43 56 41 49 49 53 56 58 58 61 58 53 46 40 39 36 40 39 36 30 21 21 23 35 36 31 31 32
74 70 66 61 57 57 62 58 64 71 61 41 55 31 25 26 47 51 46 53 52 52 53 58 56 59 59 58 55 50 47 36 30 30 36 43 25 26 30 37 33 30 35 47
66 65 62 58 57 58 57 56 74 54 57 79 64 40 34 25 35 53 48 43 46 52 55 54 55 62 60 55 59 48 46 38 32 30 31 28 31 34 37 37 35 35 39 44
60 56 56 56 57 56 57 65 74 71 84 74 68 58 37 26 53 52 64 54 56 57 56 53 58 66 63 61 53 40 33 30 30 30 31 34 38 37 40 43 48 53 55 52
60 54 51 50 52 53 52 58 80 90 84 83 60 40 61 67 66 60 55 58 60 62 54 58 62 66 60 51 40 36 35 34 33 35 34 41 42 46 58 65 67 66 66 65
63 55 51 51 49 52 56 68 88 91 85 56 35 40 60 67 67 68 64 64 63 62 59 53 59 60 56 48 45 37 33 38 42 48 60 59 60 64 69 68 67 67 73 76
56 54 50 46 50 60 66 88 99 99 77 73 76 83 85 82 76 73 71 67 65 63 46 32 33 29 33 42 45 34 32 40 44 50 51 56 62 68 68 74 75 83 88 88
53 51 54 54 60 67 80 98 77 81 79 66 69 72 80 82 77 73 70 68 64 49 26 24 24 26 35 42 47 38 38 38 42 45 50 60 62 76 82 90 95 100 96 89
65 61 64 76 82 91 84 73 68 70 62 56 63 76 80 79 75 73 72 63 39 24 23 24 27 34 40 53 54 51 49 49 47 50 60 74 85 93 100 100 94 92 91 98
98 93 84 89 84 92 85 81 78 68 47 44 43 61 66 69 65 63 58 40 28 28 32 37 46 52 55 56 56 59 62 66 72 78 84 86 85 93 100 100 100 99 98 100
84 62 62 67 61 66 59 66 68 54 44 39 36 35 34 34 36 30 28 32 40 48 54 57 58 58 54 50 50 51 55 62 70 78 83 91 96 98 98 98 100 100 100 99
77 82 70 61 53 47 45 44 43 43 42 42 40 38 35 34 36 38 48 56 59 60 62 67 66 68 60 54 55 60 71 83 90 98 100 98 92 84 84 98 96 100 99 97
94 88 90 82 65 61 55 51 50 48 44 42 39 38 39 43 46 52 61 66 70 70 68 70 88 68 64 71 74 88 87 84 83 79 79 77 82 90 94 96 96 95 92 86
85 84 79 76 69 62 59 61 56 53 52 47 42 46 47 49 53 71 77 78 78 76 81 96 85 70 84 98 100 100 99 97 92 92 92 91 89 86 81 76 73 70 64 52
95 93 94 82 80 71 65 60 55 53 54 56 57 59 65 66 72 75 77 89 95 97 100 91 88 99 100 100 99 99 96 95 94 90 84 76 67 58 55 48 45 43 42 40
95 96 94 88 70 64 63 62 61 60 59 60 62 67 71 77 86 83 90 96 98 97 98 89 98 100 98 96 96 96 96 94 91 87 78 58 48 42 40 42 42 42 41 40
97 97 95 88 85 82 79 74 76 76 78 83 89 93 94 96 95 97 97 98 97 95 94 95 92 95 97 97 96 98 97 95 89 62 52 49 47 50 50 48 46 44 43 42
96 97 97 97 98 98 98 98 98 98 98 98 98 97 97 96 97 98 97 96 96 96 90 87 95 99 98 97 96 95 84 57 60 63 63 62 60 57 52 50 51 50 48 46

GFSNW_700_rhum_009.txt.gz
RH
65 11 14 33 100 37 46 50 44 66 85 89 92 76 55 44 48 42 40 34 28 30 30 31 27 26 29 32 40 29 29 33 44 36 35 32 39 32 32 31 28 35 43 24
99 67 65 100 97 33 50 58 79 72 82 92 86 65 47 46 51 47 42 36 33 31 32 32 30 31 34 31 29 34 42 32 40 38 42 38 30 32 32 29 30 27 48 23
97 93 72 99 79 40 73 86 89 72 80 93 71 59 46 50 56 48 44 34 39 44 42 42 44 46 38 35 40 37 37 33 35 35 32 33 38 29 31 30 30 27 24 20
97 99 100 99 80 60 89 94 74 81 81 83 71 56 49 40 48 54 52 50 39 39 41 45 50 56 42 40 39 40 40 45 38 39 43 36 31 30 30 28 27 23 24 14
95 98 100 99 87 87 98 92 71 82 86 80 70 54 41 40 44 50 51 42 38 41 42 46 41 54 56 44 40 45 44 51 47 43 46 39 38 33 26 27 27 22 20 20
98 97 98 99 81 88 93 88 77 75 82 75 63 54 42 40 46 58 48 41 50 45 52 51 51 58 58 60 53 50 61 50 46 42 45 50 45 25 31 27 26 26 25 25
80 93 98 94 80 86 81 100 99 90 93 72 61 52 46 41 46 58 51 55 53 54 40 48 49 46 45 42 42 48 47 49 49 44 33 72 26 27 26 26 28 27 29 29
84 92 98 89 91 92 82 100 98 98 72 72 58 49 41 44 47 76 49 43 35 40 50 46 42 46 46 45 44 43 32 30 37 47 39 29 26 21 16 18 18 32 36 31
67 97 99 100 96 89 80 99 77 88 71 64 54 49 44 70 73 59 53 46 35 38 53 46 61 57 53 68 64 47 41 31 37 28 51 82 41 21 16 16 27 43 30 39
96 99 98 100 95 98 87 92 84 72 63 58 60 54 50 52 67 68 54 46 46 44 52 52 65 58 56 54 49 38 49 50 50 60 60 48 42 23 22 34 44 42 27 34
98 93 99 94 94 84 90 88 72 66 62 62 56 54 60 59 61 70 56 50 45 50 54 58 66 55 57 61 57 48 48 44 42 60 56 53 32 27 32 54 32 40 34 52
94 98 89 85 88 83 87 79 70 60 69 65 45 47 47 63 64 72 58 50 36 36 64 65 62 52 53 58 59 56 65 63 64 46 48 49 29 32 45 32 32 34 39 42
92 82 75 80 85 88 80 89 74 67 60 64 63 48 53 28 32 55 68 49 53 39 52 47 51 55 53 56 62 71 48 40 34 31 44 52 56 50 47 44 56 59 63 66
73 67 69 75 79 84 80 80 74 79 52 41 80 62 49 30 29 31 62 58 47 44 55 58 57 55 57 59 57 55 51 43 45 50 40 51 61 67 80 59 66 69 72 69
70 66 63 63 66 76 69 66 61 50 63 70 68 66 59 43 30 29 45 53 60 53 64 61 56 50 56 60 58 53 44 50 51 63 62 60 70 80 62 65 66 67 73 77
66 64 64 65 67 73 70 76 72 78 86 92 77 66 48 64 58 61 70 64 62 69 64 61 56 45 50 45 36 56 30 29 35 40 39 43 58 66 55 62 69 75 83 85
60 60 61 63 65 73 79 81 63 79 98 98 70 57 51 63 74 69 70 67 66 65 63 59 46 31 29 32 34 53 31 35 38 40 45 64 48 61 70 76 86 90 99 100
66 63 63 66 79 76 87 90 68 76 99 99 82 83 85 83 83 77 75 73 64 64 55 43 27 24 27 37 39 40 44 46 47 49 54 61 72 82 91 100 99 99 100 92
68 64 64 70 93 91 83 89 92 99 93 71 82 74 82 84 81 78 74 71 69 58 40 27 24 28 40 41 48 51 54 59 66 69 73 81 88 85 89 100 99 97 90 88
71 72 86 93 98 95 81 96 97 84 59 40 50 63 65 73 79 80 76 70 68 49 35 30 38 44 46 51 54 56 61 68 70 70 75 80 85 94 95 90 83 73 75 80
84 89 97 92 92 94 98 98 96 83 63 47 38 45 42 49 59 65 68 47 40 45 48 56 60 60 58 58 57 59 60 62 70 79 86 96 94 83 73 71 71 76 82 89
85 88 87 98 99 92 66 60 60 52 45 43 40 38 37 36 36 42 44 46 53 59 58 63 70 63 62 62 64 67 79 80 80 77 78 75 72 71 73 78 84 87 83 76
78 72 75 75 70 74 65 56 50 47 44 42 41 40 40 40 40 44 55 62 62 65 76 74 72 66 67 70 82 96 100 93 82 78 77 76 76 75 72 69 64 55 41 34
84 84 86 87 79 68 63 58 53 50 48 46 44 45 47 47 55 62 68 78 83 86 99 87 59 70 79 90 98 97 93 90 87 87 84 79 75 72 63 48 34 30 34 39
96 97 97 89 78 69 65 62 58 56 54 52 52 54 61 65 75 74 75 83 97 100 98 89 85 90 100 100 97 94 92 91 92 87 82 79 71 56 42 38 42 44 44 44
97 97 96 92 87 76 64 64 65 62 58 60 64 69 75 81 80 84 96 100 100 95 88 92 95 97 96 94 95 94 94 92 91 92 86 65 55 54 53 50 48 47 47 47
96 98 100 98 95 95 91 91 93 89 90 88 90 92 94 97 98 98 98 96 95 96 96 95 94 94 97 98 98 97 95 95 89 68 66 67 64 61 58 53 52 52 54 55

GFSNW_700_rhum_012.txt.gz
RH
26 1 1 1 1 22 79 100 43 37 34 55 77 85 80 58 44 37 39 30 23 24 26 25 24 30 32 33 30 33 28 28 29 35 31 30 33 36 26 30 31 35 39 34
100 56 6 2 2 68 73 98 51 78 33 56 80 81 81 60 50 43 46 34 33 26 29 28 26 25 36 36 33 36 30 30 31 34 38 37 33 26 31 32 33 38 54 31
98 100 73 10 23 94 100 94 82 98 50 61 79 88 70 60 51 41 42 37 33 29 29 30 30 29 32 34 30 32 36 39 29 38 32 35 36 30 24 28 33 33 27 23
97 97 100 29 73 100 100 76 82 95 53 64 83 77 68 54 44 48 42 37 31 39 34 35 37 38 48 38 30 34 35 40 36 32 32 40 37 30 29 25 27 29 27 24
96 93 100 70 82 99 99 59 87 88 85 71 75 75 63 48 42 47 48 45 36 38 37 38 40 40 53 41 39 40 39 48 48 47 44 42 40 38 32 27 25 25 24 22
94 90 97 96 98 98 94 68 80 90 80 68 73 74 58 51 41 41 45 43 39 35 44 45 51 48 54 54 54 40 64 52 50 54 51 43 42 34 30 34 28 25 25 24
88 92 98 100 100 95 71 71 83 97 72 74 59 84 60 48 38 50 53 47 40 44 43 50 45 50 56 57 59 70 68 56 61 51 43 61 26 31 31 33 31 28 25 25
96 87 87 98 98 98 61 88 97 99 86 78 67 79 58 44 38 52 56 57 55 51 48 42 48 45 40 38 42 48 51 52 52 51 48 32 30 28 24 25 21 29 30 30
93 86 73 97 98 96 75 80 91 99 96 90 59 60 50 42 44 58 68 56 58 49 55 61 50 54 42 63 72 46 41 48 48 35 56 76 46 32 20 15 29 43 36 39
93 96 83 95 98 62 86 74 99 99 99 79 59 54 50 43 64 70 73 48 40 29 40 50 53 54 52 59 68 54 53 44 38 54 47 46 44 40 29 32 46 50 41 30
100 100 94 94 92 69 83 82 79 99 78 71 66 52 45 57 68 72 61 52 50 49 47 49 59 60 56 51 55 49 42 44 46 66 81 62 41 37 30 62 52 34 32 41
92 89 75 97 78 96 83 96 99 94 95 66 58 54 52 50 70 80 63 52 48 41 44 57 68 58 61 55 60 57 61 60 67 57 53 53 41 36 43 47 43 33 35 48
67 71 96 88 94 74 74 88 75 99 78 65 61 58 57 55 57 71 84 58 71 50 60 46 52 51 42 43 46 59 66 60 53 49 39 49 52 56 60 63 68 77 64 63
43 72 87 96 86 94 99 96 96 90 71 68 66 46 49 46 56 70 84 72 76 54 39 43 48 48 52 51 51 68 62 62 50 57 49 49 52 62 70 68 60 61 61 72
87 74 96 90 93 92 98 96 98 100 65 52 49 52 34 36 31 36 73 83 61 51 46 47 57 59 58 56 54 56 55 58 57 47 64 52 63 74 65 62 58 62 66 70
91 98 84 90 93 91 98 99 86 76 63 47 38 49 53 45 40 30 31 65 62 64 56 60 62 62 57 50 46 58 57 46 40 45 32 32 40 40 42 48 54 61 72 87
89 91 99 100 92 80 92 98 83 83 56 52 85 59 66 63 55 48 41 39 51 75 63 65 65 62 55 44 38 48 37 30 28 32 37 47 50 51 54 56 67 80 89 91
90 93 99 89 88 83 89 84 82 76 74 72 87 90 75 59 68 69 46 78 73 71 70 68 64 57 44 32 34 29 25 32 38 44 46 51 61 67 71 78 86 86 86 97
78 82 90 91 88 86 91 94 86 76 74 78 99 82 85 65 72 78 76 74 76 67 64 58 56 40 30 32 25 24 32 44 50 54 58 63 68 75 83 85 85 94 90 76
72 77 89 99 100 94 89 96 92 86 90 91 88 96 69 68 82 80 73 72 74 76 80 54 45 35 30 26 27 34 44 53 61 69 70 68 72 79 86 92 91 75 63 61
77 84 100 99 99 100 100 94 90 76 94 68 55 79 72 71 82 86 84 82 87 73 61 55 44 39 31 31 39 49 56 64 74 73 72 73 82 90 90 74 66 64 67 73
84 85 96 100 99 94 89 87 71 93 88 57 51 71 67 77 82 99 98 93 67 49 49 46 57 46 45 52 54 58 64 74 78 78 78 78 79 74 71 70 68 66 63 56
91 91 99 98 92 87 82 87 96 62 53 46 42 43 53 62 76 78 62 61 54 56 60 59 64 55 57 60 65 73 74 88 86 83 78 77 74 72 70 68 65 56 42 32
97 98 96 93 83 93 70 62 56 48 45 42 41 40 42 42 43 47 48 58 63 74 91 77 58 62 69 73 82 89 91 96 92 92 87 84 79 76 72 64 53 40 34 36
94 95 95 91 82 71 63 59 53 52 47 48 47 46 47 50 59 61 62 68 76 87 99 73 72 73 84 95 100 100 98 95 90 91 88 84 83 79 67 48 40 40 41 40
98 97 97 86 77 71 68 64 63 59 57 55 58 59 65 68 71 74 78 94 100 99 83 87 88 93 100 99 97 96 96 92 95 90 90 90 83 61 51 49 48 47 47 48
97 97 98 98 98 85 78 77 72 74 77 83 85 79 81 92 98 100 100 100 100 100 98 96 95 95 94 94 98 100 96 95 97 99 93 71 62 64 63 57 54 53 54 59

GFSNW_700_rhum_015.txt.gz
RH
30 9 4 1 1 1 2 21 58 24 94 49 60 37 61 26 23 41 47 34 27 23 23 30 24 26 31 38 26 31 29 34 43 42 34 33 29 34 37 27 29 33 40 37
92 69 81 45 5 1 3 97 100 65 100 41 46 38 36 28 28 46 50 33 29 25 26 38 23 23 36 38 32 35 32 30 28 33 40 36 30 28 29 30 28 31 48 33
99 97 100 98 83 5 10 99 98 88 85 45 41 35 30 36 29 51 54 39 30 29 33 36 36 26 30 28 36 34 31 37 30 30 29 35 37 35 32 24 32 34 34 31
96 98 96 100 99 15 91 100 94 98 77 50 66 47 29 32 31 55 52 45 32 34 31 29 32 33 38 39 36 33 28 29 39 32 33 36 39 39 38 26 25 28 28 26
97 87 96 97 100 39 100 100 92 95 92 62 68 62 39 27 31 55 45 48 35 34 36 30 33 37 42 41 41 33 29 28 32 36 36 41 42 41 40 38 31 29 27 27
95 85 93 95 100 100 96 100 95 87 98 88 65 46 41 39 42 54 41 48 38 33 35 37 38 39 40 49 45 36 38 39 38 44 41 39 40 26 33 31 34 32 30 26
86 85 98 92 99 98 99 98 82 95 88 90 51 45 63 46 47 59 42 44 45 43 39 43 40 47 52 56 59 59 42 45 56 54 52 51 34 30 33 34 35 32 31 30
76 87 97 85 91 99 100 100 90 99 84 80 71 47 47 47 54 55 42 46 43 48 47 48 48 50 57 62 69 65 60 55 59 56 47 43 31 30 28 21 30 30 29 33
91 94 96 84 72 98 98 99 79 99 99 70 58 54 48 51 56 55 51 60 56 54 59 46 40 46 41 46 47 46 55 54 54 56 50 62 39 34 28 23 35 38 32 30
92 94 100 81 73 97 96 99 99 99 90 92 82 50 52 57 65 51 61 81 69 60 59 44 48 47 43 60 62 55 50 62 63 48 35 33 42 40 34 29 40 49 46 43
94 96 94 84 70 96 98 99 100 96 97 84 93 58 60 60 66 59 59 97 65 50 40 44 50 49 53 57 54 48 41 46 48 49 64 56 44 45 42 42 41 48 47 33
94 95 79 74 63 95 98 100 90 86 98 96 92 68 63 61 55 59 60 68 51 45 36 38 50 50 56 53 63 60 56 47 41 41 47 40 42 39 38 42 44 36 34 35
92 93 90 70 71 90 94 99 100 98 99 86 91 82 65 68 76 55 55 58 49 45 36 32 37 50 48 54 50 53 58 64 65 63 58 51 51 52 55 56 53 44 44 44
99 96 89 61 64 93 100 100 100 100 100 99 91 84 52 50 62 46 75 57 56 52 49 38 38 37 37 37 35 41 52 60 59 49 41 45 50 54 56 59 60 56 62 62
93 79 91 58 77 100 100 99 92 98 97 99 89 75 52 50 53 61 72 73 74 65 52 49 43 43 47 50 50 53 47 50 52 55 53 50 50 52 56 59 66 66 61 62
81 89 66 60 96 100 99 99 93 99 99 99 87 72 60 56 53 56 67 83 78 74 57 51 47 49 51 60 60 56 51 45 42 44 40 46 52 57 42 38 44 51 56 64
75 60 64 96 98 99 98 99 100 97 75 51 46 41 40 37 35 38 53 77 78 71 70 69 62 57 60 64 59 57 53 44 48 50 40 33 32 38 43 50 57 61 67 78
57 83 99 100 100 92 92 97 87 98 83 60 61 65 67 53 52 57 36 43 73 75 68 63 67 62 65 62 60 55 42 34 31 29 31 38 45 50 55 63 71 79 88 92
66 97 99 98 98 96 98 89 97 91 69 58 80 99 99 93 71 62 54 46 55 68 74 72 68 67 64 57 55 44 33 28 25 28 39 47 54 62 75 81 88 91 94 95
91 97 99 98 99 95 97 91 82 77 76 71 79 88 100 97 95 82 82 79 95 90 85 79 72 60 57 56 45 31 26 25 28 37 48 58 67 73 72 77 90 98 90 68
98 98 92 82 95 91 85 79 86 74 69 56 56 79 99 96 100 94 89 81 79 77 75 77 72 67 66 68 40 33 29 30 37 53 64 73 75 75 82 97 96 82 70 66
98 96 99 88 100 95 85 83 77 62 71 70 72 57 99 99 100 95 89 85 83 83 80 74 66 59 52 46 43 37 38 52 64 71 80 85 81 86 90 87 81 82 65 59
88 90 90 99 92 89 92 93 75 58 70 66 66 88 100 100 100 100 96 95 90 87 79 64 57 46 44 48 52 54 58 64 78 92 92 86 85 93 95 95 85 66 56 44
86 89 94 87 97 89 71 62 66 63 66 75 82 86 97 95 94 83 90 88 88 94 91 72 54 60 71 67 68 65 67 88 99 98 94 96 96 93 89 75 68 54 39 37
88 86 88 81 79 70 67 69 83 73 64 64 66 79 67 63 62 56 66 80 96 100 100 77 81 81 81 77 76 88 100 100 98 96 96 95 95 90 83 69 50 44 43 44
91 84 85 79 72 72 68 67 69 82 81 75 81 82 72 66 65 71 82 98 100 100 93 92 93 91 86 94 100 99 97 96 96 95 96 95 95 90 66 52 52 51 50 51
97 97 97 97 96 91 88 86 94 95 97 98 97 95 95 97 96 96 100 100 100 100 98 98 95 92 91 94 95 99 100 96 96 96 96 98 84 64 65 63 59 59 59 60

GFSNW_700_rhum_021.txt.gz
RH
59 98 98 100 71 21 11 6 7 16 3 54 40 27 72 48 28 46 46 54 40 38 36 30 28 32 31 28 27 27 27 26 27 29 27 28 27 33 35 37 34 35 43 34
88 97 92 99 100 70 22 15 46 58 13 44 8 30 42 44 26 31 52 49 55 43 37 34 27 28 28 30 30 27 24 24 29 31 28 31 31 34 30 38 37 37 49 32
93 86 97 94 99 100 81 94 100 75 59 5 21 67 44 50 16 27 40 46 52 52 38 30 28 26 28 29 34 32 29 25 26 32 30 31 35 34 38 38 36 32 31 29
96 94 97 99 96 97 100 100 100 93 58 21 19 61 56 27 32 20 36 30 38 52 52 39 34 28 31 31 31 37 34 34 36 33 31 30 37 40 40 40 39 39 39 31
96 98 88 92 98 96 98 98 100 97 40 27 22 46 91 43 20 43 19 37 29 42 56 44 34 30 32 32 34 36 37 38 37 35 34 31 29 32 38 43 43 42 40 34
96 93 94 88 98 94 97 100 100 97 59 52 57 11 34 20 26 14 21 26 26 31 53 43 41 35 30 32 33 40 40 39 36 34 34 42 44 35 30 30 38 41 38 38
96 96 80 96 95 78 97 98 94 98 88 77 39 34 45 15 11 13 14 37 28 45 52 48 42 38 38 40 38 36 37 37 36 34 33 67 29 27 28 26 20 21 34 29
96 84 95 85 89 79 98 98 99 97 97 62 68 59 43 33 20 39 25 25 30 47 56 60 42 45 44 51 45 40 42 44 41 47 45 42 41 38 33 34 36 33 32 33
92 78 89 95 89 79 98 96 98 98 98 82 68 59 59 30 14 29 22 24 31 56 65 68 55 62 55 58 54 52 52 56 51 60 57 68 40 45 44 34 36 37 38 36
86 67 93 80 76 90 98 97 98 99 98 98 93 78 58 53 28 14 16 27 38 68 75 68 51 46 47 51 53 58 62 66 65 63 66 56 47 38 36 39 33 31 35 40
64 67 82 71 87 98 98 94 97 97 98 96 84 84 77 49 66 16 20 37 45 46 65 69 52 45 46 46 46 48 46 52 66 73 68 58 45 37 39 34 32 33 34 36
56 79 69 67 96 97 97 90 97 89 98 96 82 80 52 43 43 30 28 36 43 48 63 68 55 46 46 47 44 43 39 31 36 44 50 44 37 38 37 36 37 39 36 41
86 81 80 100 98 96 86 81 97 100 98 62 48 64 69 45 40 67 34 50 46 45 65 67 55 50 46 46 45 42 44 42 44 38 42 39 38 33 37 39 38 38 41 43
96 88 83 86 90 93 82 99 95 98 98 92 82 88 94 64 49 76 56 49 51 61 61 61 58 52 49 44 40 40 30 39 37 36 35 38 38 37 38 36 38 43 47 51
74 73 72 73 76 90 90 97 97 99 97 99 85 99 98 75 56 71 60 75 69 67 65 66 60 50 41 42 29 35 31 30 30 21 24 36 42 42 42 46 50 54 57 60
77 80 79 73 70 87 96 98 94 98 95 97 98 98 98 71 55 69 84 66 77 74 66 62 60 53 50 37 32 29 24 24 24 32 36 38 47 47 47 50 54 59 64 70
83 79 78 74 84 96 94 90 83 94 98 99 83 65 83 93 78 66 85 87 69 80 79 66 57 49 45 37 29 23 22 27 37 48 48 48 42 40 46 54 58 60 60 60
92 93 97 89 94 86 71 78 92 96 99 100 93 78 97 99 100 98 90 80 99 96 88 75 63 52 44 36 30 29 35 40 48 55 57 52 46 47 50 53 52 54 50 50
99 92 88 94 89 96 91 97 97 98 99 100 95 69 82 99 99 94 91 85 99 97 83 76 72 84 61 49 48 44 46 52 54 58 60 54 48 58 66 70 59 49 59 72
95 68 96 97 92 91 95 96 98 99 100 98 98 91 83 82 99 100 97 99 100 100 97 90 92 91 81 68 61 59 60 60 59 61 61 57 52 66 71 58 56 66 80 96
97 97 92 90 88 98 97 97 100 93 91 94 99 99 97 80 98 88 98 91 91 73 77 86 83 87 78 72 68 70 72 71 66 67 65 62 59 60 59 66 77 88 99 100
70 97 89 98 97 96 97 98 98 97 95 90 90 95 99 100 98 97 94 84 61 66 62 64 58 56 57 57 59 66 68 68 73 72 66 72 63 65 81 89 91 95 99 98
98 90 81 89 95 98 98 97 91 80 71 90 100 99 92 97 92 94 82 85 77 74 74 84 68 56 55 56 63 72 75 74 75 91 98 95 92 92 94 94 96 96 97 98
97 97 98 98 98 90 89 77 73 67 73 71 84 91 98 98 100 95 84 91 92 85 85 79 72 66 75 77 78 83 99 99 97 99 100 100 97 98 97 96 97 99 96 93
98 98 96 90 74 78 80 70 69 64 65 69 89 98 96 87 98 94 98 98 98 99 96 86 75 78 78 84 96 97 97 97 97 98 97 97 96 96 96 96 96 93 81 61
85 88 96 93 94 77 74 74 70 74 85 98 99 98 97 97 97 98 98 98 98 100 97 91 87 93 96 98 98 99 98 97 96 97 96 95 96 96 96 95 93 89 74 64
100 100 100 100 91 98 100 98 87 79 99 98 94 97 97 98 100 100 100 99 100 98 98 100 100 100 99 98 97 97 96 96 96 96 96 96 96 96 96 94 92 88 84 84

GFSNW_700_rhum_024.txt.gz
RH
98 98 96 70 92 98 100 95 29 6 5 15 14 60 53 68 38 46 74 67 46 44 41 32 28 36 29 28 28 29 30 32 30 28 34 33 31 32 34 35 38 38 44 34
97 98 99 84 94 97 100 100 93 57 13 17 8 43 74 71 20 25 53 47 60 55 48 42 36 34 30 27 27 28 29 32 31 30 28 28 28 25 31 38 40 41 51 37
97 96 96 92 78 98 99 98 99 78 81 5 12 64 89 84 10 32 40 44 46 57 52 44 38 34 27 26 29 30 31 29 29 30 26 24 26 27 31 36 42 39 37 34
97 97 96 78 80 97 98 98 96 98 94 19 13 29 55 46 22 19 36 27 30 48 55 55 36 34 31 29 28 31 34 33 28 22 21 24 26 32 32 32 35 41 38 40
96 97 95 86 96 97 100 93 97 96 61 27 27 74 81 47 10 21 25 25 22 30 48 52 42 40 29 27 28 32 34 35 33 28 31 34 32 31 30 38 38 40 42 43
96 97 97 86 98 94 91 94 93 100 84 64 56 10 59 51 21 17 50 13 19 24 27 48 47 56 50 41 31 31 37 35 40 40 38 36 39 33 32 32 30 30 40 38
97 97 94 98 94 87 63 74 89 100 100 74 30 40 78 86 7 10 13 28 27 17 29 37 49 54 43 42 44 34 33 33 42 38 40 62 35 35 33 30 36 36 33 30
97 96 95 93 94 80 66 69 79 98 97 80 99 74 58 73 27 14 13 19 30 63 66 37 53 61 52 46 43 44 40 35 42 39 39 37 38 36 34 29 31 31 29 29
97 96 94 93 94 94 87 61 92 97 98 83 79 99 95 62 25 27 7 13 26 39 56 74 75 64 55 56 52 47 45 44 42 46 47 66 41 43 42 35 40 41 34 35
97 94 94 96 95 86 85 71 95 98 98 99 96 72 70 68 33 23 13 8 23 63 80 80 68 70 54 53 50 49 47 44 47 48 52 52 50 48 40 44 35 34 33 33
96 96 94 95 96 97 76 74 94 99 97 98 96 87 64 54 28 25 29 38 21 35 60 77 92 72 55 48 46 44 45 53 57 62 69 70 50 51 48 44 35 34 32 32
96 96 94 76 98 86 79 86 96 99 98 90 98 96 95 54 33 22 21 24 15 20 53 66 70 68 53 49 47 45 46 40 43 49 50 47 43 38 49 42 39 35 38 38
95 95 80 90 99 99 97 77 97 97 97 97 96 87 83 75 56 45 51 60 60 35 38 61 64 70 62 56 49 44 45 43 51 45 38 29 32 40 35 37 40 40 39 40
96 99 96 100 98 97 89 84 97 97 91 97 98 83 83 79 74 57 47 54 62 59 66 49 62 68 58 54 47 43 42 43 43 41 38 29 25 31 35 35 37 38 36 39
96 97 98 100 100 95 95 88 96 97 84 95 93 85 79 68 65 67 58 71 95 66 72 60 59 66 62 58 60 51 44 42 41 33 19 23 22 27 30 34 34 33 40 45
94 94 92 95 93 95 97 95 82 84 97 98 70 81 89 99 100 86 57 70 82 85 88 72 64 70 66 59 57 53 47 46 20 19 25 26 28 37 40 38 38 45 52 55
98 98 97 95 97 96 98 92 97 75 48 80 94 85 93 86 73 89 60 74 88 77 96 86 76 71 68 63 56 52 48 34 30 23 25 30 33 35 40 46 50 52 55 59
89 90 93 91 85 95 92 72 77 97 98 97 96 94 90 90 97 81 67 80 98 90 98 90 80 75 66 63 60 66 46 40 30 25 27 34 44 50 49 46 49 53 58 64
71 64 65 59 77 81 90 84 76 80 92 93 81 100 78 91 100 88 77 79 88 96 98 100 97 80 69 60 52 47 41 34 25 32 36 45 54 57 56 54 52 57 63 72
93 81 94 97 91 72 94 96 98 98 98 98 97 86 87 56 53 98 100 98 98 97 99 99 87 92 80 70 58 48 40 38 47 48 50 53 57 60 61 59 67 78 83 89
96 92 83 65 74 92 94 97 96 98 98 96 85 92 98 94 91 67 98 100 96 95 91 79 90 96 88 76 71 77 90 80 76 83 79 61 70 72 76 81 88 90 86 84
59 84 75 89 85 86 93 88 96 99 97 92 81 90 88 99 99 94 98 99 90 84 94 85 96 90 85 74 86 80 79 86 80 76 76 78 84 86 85 85 85 85 98 100
98 97 85 96 97 95 88 98 98 100 92 94 99 87 97 99 99 96 97 99 98 94 99 96 79 61 58 58 69 79 83 81 87 92 96 98 98 98 97 97 98 98 98 99
90 72 81 98 98 97 97 100 100 98 92 90 96 91 100 98 99 100 99 99 98 94 94 86 75 59 60 65 71 83 95 100 100 100 99 98 98 97 97 97 97 97 96 96
90 90 96 97 98 98 98 95 88 79 94 100 99 99 99 100 99 98 98 100 100 99 100 97 82 82 89 94 99 100 100 99 98 98 98 97 97 96 96 96 96 96 95 94
96 98 98 98 99 99 98 96 95 96 99 99 99 98 98 98 99 100 99 97 98 99 99 98 99 100 100 99 98 97 97 98 98 97 97 97 96 96 96 96 96 95 94 94
96 97 98 99 100 99 100 100 100 100 98 97 97 97 96 97 98 96 96 96 97 97 100 100 100 98 98 98 97 97 98 98 98 97 96 96 96 96 96 94 94 94 94 95

GFSNW_700_rhum_027.txt.gz
RH
98 98 97 99 99 86 88 97 77 22 54 100 98 8 39 54 32 58 55 49 75 41 52 42 28 26 27 26 29 32 31 30 30 29 30 34 39 38 36 35 38 39 42 37
98 98 97 98 95 88 92 97 91 47 61 100 82 39 45 36 19 35 28 39 66 72 65 49 41 29 27 27 29 30 30 31 32 33 32 37 40 38 32 27 27 36 50 38
97 97 96 97 96 92 99 98 99 99 52 37 53 100 82 85 18 27 42 36 68 65 68 57 43 37 33 31 31 30 30 30 30 34 31 29 30 27 27 25 35 38 39 35
97 97 96 97 96 96 95 96 96 84 60 72 61 72 75 49 22 29 24 16 38 44 56 61 50 40 38 36 33 29 31 32 32 31 27 27 26 25 23 28 32 37 32 36
96 97 97 97 97 95 98 97 89 83 29 30 86 100 98 69 9 16 49 8 6 12 32 53 51 48 42 42 33 30 29 32 32 35 32 30 26 23 23 35 34 31 30 33
86 96 97 97 97 96 94 88 79 74 66 74 100 88 100 97 32 21 31 13 20 8 10 30 56 60 50 57 48 42 32 34 36 36 34 34 37 27 33 32 31 30 32 29
63 94 97 96 97 85 63 84 91 76 100 75 58 100 100 95 35 12 41 44 30 11 11 31 34 37 39 54 55 52 49 42 37 39 41 66 37 36 36 36 34 34 33 30
71 95 97 96 94 89 76 86 92 80 99 82 74 99 95 95 78 49 37 35 43 32 17 30 45 39 41 46 55 47 47 44 45 44 45 38 40 38 36 36 36 36 32 32
77 92 97 96 96 95 70 85 84 66 90 97 76 88 98 78 78 65 38 35 26 38 77 83 76 45 53 65 55 47 43 46 48 44 44 59 38 38 39 40 40 33 38 34
66 88 96 97 94 95 82 80 93 77 92 93 89 87 86 86 85 65 44 28 33 37 68 77 76 64 61 81 56 48 54 54 50 46 44 41 40 42 43 48 27 34 36 35
72 92 97 92 94 86 90 92 92 74 96 91 97 87 79 84 71 58 59 51 40 63 66 81 70 62 57 77 64 45 44 50 51 49 50 53 41 44 45 33 35 41 42 32
89 97 97 92 98 97 91 92 85 77 79 97 98 96 99 98 57 35 44 19 16 18 33 61 73 70 61 55 68 55 54 42 43 42 42 41 38 34 40 39 33 49 41 34
91 97 96 96 97 98 87 80 82 77 81 91 95 99 100 95 71 47 33 26 48 30 18 28 48 71 65 64 63 57 49 45 44 42 41 40 35 42 42 26 36 37 39 38
97 96 94 97 97 97 96 96 94 70 84 96 84 96 100 100 85 72 47 44 34 49 43 28 48 46 55 64 59 59 49 46 45 43 39 38 40 38 37 25 37 36 42 40
96 96 97 97 97 97 96 98 96 76 84 94 74 98 96 97 91 77 69 66 54 75 98 92 61 54 58 66 68 64 57 48 45 43 40 36 39 38 24 24 35 36 40 39
98 100 97 94 92 86 80 92 94 78 96 100 96 97 96 100 99 97 81 63 68 65 77 84 90 80 64 64 67 64 60 54 51 49 48 44 26 25 23 27 33 37 37 39
96 95 92 93 96 97 88 84 67 86 97 99 96 96 91 96 98 97 98 89 75 81 93 68 93 98 88 70 66 65 61 56 53 52 52 42 32 25 25 30 32 32 38 45
80 83 82 77 80 87 98 69 87 95 98 97 87 89 86 91 77 86 83 98 87 71 92 93 96 97 100 89 71 69 65 57 55 54 53 43 40 39 32 34 39 42 46 49
94 92 96 99 97 97 92 82 91 93 100 95 74 94 96 88 99 99 100 99 84 87 84 94 99 99 99 84 75 64 60 62 57 47 51 52 49 39 43 46 51 51 49 50
91 95 98 92 77 80 77 90 93 97 98 85 78 79 87 82 90 100 100 98 94 92 90 98 97 96 92 88 75 66 58 51 48 47 44 43 35 39 47 53 58 63 66 64
68 73 72 74 99 100 95 86 76 73 72 69 68 94 98 99 80 72 77 97 99 98 93 89 88 92 98 99 90 81 77 73 69 70 62 75 85 82 80 76 77 79 80 83
97 94 65 77 92 94 94 93 87 92 96 61 52 62 89 96 96 76 86 81 88 99 100 99 92 83 89 97 93 94 85 94 86 91 87 88 89 85 85 88 94 97 99 99
92 82 96 90 86 82 75 85 94 98 98 99 89 91 100 100 100 99 98 100 99 98 99 100 96 82 84 84 85 95 92 98 98 73 99 100 100 100 100 100 99 100 99 98
81 76 75 97 98 100 100 97 97 98 99 100 100 100 100 98 98 99 100 99 98 98 98 99 100 99 99 100 95 92 85 100 98 100 99 99 99 100 100 99 98 97 97 97
99 96 96 95 96 97 97 97 98 98 99 99 98 89 95 97 98 98 100 100 96 97 97 98 98 98 98 100 100 99 99 100 100 99 99 99 98 97 97 97 97 97 96 96
96 95 96 96 97 97 98 100 100 100 100 100 98 97 97 99 97 97 96 96 96 96 97 98 98 97 98 98 98 98 98 98 98 97 97 96 96 96 96 96 96 96 96 96
95 96 97 98 98 98 98 98 98 99 100 99 97 92 93 98 99 97 96 95 96 96 96 96 96 97 97 97 97 97 96 96 96 96 96 96 96 96 96 96 96 95 94 94

GFSNW_700_rhum_030.txt.gz
RH
97 88 95 100 100 99 97 100 87 89 100 100 89 87 19 58 62 79 70 70 65 63 50 50 42 36 35 27 35 34 35 35 31 31 37 35 38 34 38 36 35 45 47 31
94 97 98 97 98 97 98 91 96 99 99 98 98 13 18 88 74 73 82 60 67 49 66 54 47 36 31 32 27 33 40 39 34 30 36 34 40 41 40 41 36 34 46 30
91 97 98 98 97 97 97 100 100 98 94 75 90 12 10 86 91 75 84 84 70 53 67 49 48 45 33 29 27 28 27 30 31 31 26 29 40 38 42 40 37 32 33 27
84 88 96 96 97 97 97 97 97 78 96 88 65 63 12 67 78 82 80 79 75 66 66 62 54 44 40 35 32 30 34 32 33 28 28 27 29 28 33 36 35 29 30 31
78 98 98 97 97 97 97 93 94 90 87 66 59 70 64 80 74 64 80 80 76 74 77 62 62 52 50 47 34 34 34 37 37 38 34 32 34 31 29 30 28 28 33 32
79 88 94 97 97 97 96 87 85 100 97 94 88 75 70 69 80 67 65 60 70 68 47 67 75 68 59 57 60 40 36 37 38 36 37 36 46 34 35 34 32 30 33 36
86 62 67 96 97 96 74 66 77 100 98 98 62 46 92 83 75 71 74 75 88 42 12 19 17 66 65 56 49 60 50 38 46 40 44 76 35 34 30 35 34 38 34 36
82 65 62 92 96 96 81 75 78 95 97 92 90 93 91 88 81 79 75 67 48 44 26 33 42 40 54 55 47 49 59 54 49 49 52 38 38 34 29 32 36 38 35 38
79 79 80 94 96 97 94 76 83 93 97 99 97 93 90 92 90 90 83 87 61 54 24 63 76 28 56 67 57 45 56 55 61 49 51 63 38 40 34 35 39 37 40 29
84 94 82 96 97 97 97 72 84 87 99 95 94 90 94 91 81 84 92 72 81 73 46 92 75 66 35 47 73 64 59 58 64 63 58 45 40 36 37 42 32 40 35 31
94 79 68 98 97 97 94 77 86 90 92 94 80 80 98 96 88 85 91 90 57 67 53 83 70 68 54 54 51 70 60 54 59 70 67 61 40 40 42 35 40 36 33 34
86 67 76 74 97 97 96 88 94 95 98 80 67 80 80 98 57 89 80 31 28 31 58 67 62 44 54 67 74 63 67 59 55 40 47 34 34 37 38 37 33 39 28 38
72 74 92 96 97 95 93 96 97 96 91 82 73 82 93 76 66 92 73 35 30 18 16 34 24 33 33 43 52 53 53 56 60 49 41 38 36 39 39 39 36 43 27 29
68 95 95 97 95 96 90 95 87 82 79 85 75 96 98 88 83 68 65 72 29 31 39 38 40 32 39 37 44 50 44 45 53 56 50 43 40 38 38 38 41 42 28 34
96 94 96 98 95 96 96 96 96 89 86 78 59 91 99 97 95 87 69 68 51 46 66 55 51 46 40 39 43 51 50 57 56 53 46 43 42 42 42 42 42 34 26 31
97 96 97 95 93 91 90 97 96 95 71 75 92 96 97 97 82 93 89 74 76 76 67 78 69 50 58 66 52 23 32 45 54 53 50 50 47 45 45 28 28 22 29 35
98 98 97 94 94 96 98 94 76 67 68 67 91 98 95 98 91 81 70 72 79 80 65 79 84 75 76 68 63 56 64 62 60 59 58 53 50 45 37 36 29 25 29 37
95 95 95 97 96 96 97 89 67 64 70 68 92 97 99 97 98 99 92 78 68 62 73 83 89 93 89 93 82 81 72 61 55 59 58 54 52 50 43 41 39 32 35 40
95 93 92 79 64 62 62 60 66 66 57 96 94 96 98 98 83 93 96 98 100 99 76 68 70 74 95 86 80 83 81 73 66 62 59 58 58 52 50 50 53 38 44 47
72 62 57 52 85 97 96 99 73 85 97 95 96 96 100 99 100 99 100 100 99 98 99 86 95 84 89 83 90 89 82 75 63 58 63 62 71 57 52 53 57 52 49 52
69 69 82 96 97 98 97 87 96 96 89 74 70 75 90 99 93 89 97 98 99 96 94 89 92 92 99 93 79 79 78 83 72 68 65 64 63 62 55 53 68 70 70 72
79 82 79 97 95 79 83 77 73 74 61 65 64 67 96 100 99 93 78 82 96 99 98 96 91 84 88 86 74 66 71 91 95 85 76 71 71 76 75 65 78 91 96 99
74 94 96 84 71 75 90 77 60 79 99 96 66 68 78 90 97 92 91 87 94 99 100 99 98 99 93 92 89 92 99 100 99 99 96 95 93 98 99 87 88 88 100 100
94 94 82 97 94 96 84 87 100 78 81 97 100 91 89 98 99 100 99 99 98 98 97 96 96 98 100 100 100 100 99 99 99 99 87 86 80 94 98 99 99 98 98 98
99 96 99 95 94 95 92 85 77 84 99 93 95 99 99 98 98 98 98 97 96 96 97 97 97 96 97 97 98 98 98 98 98 100 99 99 99 98 99 98 98 98 97 96
95 96 98 96 96 96 96 97 98 100 100 98 98 98 97 97 98 96 96 96 97 96 96 96 95 96 98 96 97 97 97 98 98 97 98 98 97 97 98 97 96 96 95 96
95 96 96 96 97 97 97 98 98 98 98 97 97 96 94 98 95 94 96 96 95 95 96 96 96 97 96 96 97 97 97 96 96 96 96 96 96 96 96 95 95 95 96 96

GFSNW_700_rhum_033.txt.gz
RH
77 92 100 100 100 100 98 94 94 94 88 100 95 70 64 37 40 38 43 52 44 36 38 48 33 32 31 33 28 32 33 29 29 34 33 28 31 31 32 34 37 39 34 32
100 100 99 100 100 98 97 95 99 97 94 93 93 57 61 30 43 52 50 50 78 56 40 40 46 34 33 35 34 32 33 29 33 30 28 34 34 40 41 39 34 51 58 32
94 99 98 97 97 97 98 98 99 98 97 77 99 94 47 64 34 41 49 47 60 56 72 59 49 46 42 36 39 37 37 31 32 34 27 28 32 31 32 34 40 39 37 29
90 90 99 94 96 97 98 97 96 84 95 91 89 75 45 62 44 46 47 46 75 56 41 43 48 56 56 44 36 41 40 38 35 32 27 24 24 27 29 32 33 36 35 30
96 86 99 89 95 97 97 97 94 90 85 60 100 96 75 59 48 42 52 52 56 82 78 52 66 74 65 54 43 35 46 41 34 28 28 24 24 24 24 27 28 29 30 28
93 92 89 82 98 97 96 97 91 98 88 88 100 90 82 64 49 41 50 46 50 54 63 85 69 96 79 98 85 57 51 50 39 37 31 27 28 28 28 25 24 25 27 26
93 93 84 78 71 96 96 84 83 98 92 96 84 86 80 70 53 38 43 46 50 64 63 78 85 92 98 76 87 80 67 59 45 43 42 58 38 35 32 32 29 27 25 25
87 96 92 92 85 97 86 91 98 96 98 73 95 91 82 69 57 55 50 47 52 61 77 81 80 49 89 61 87 82 75 71 54 54 51 38 32 34 35 32 30 28 29 28
79 93 97 93 94 94 98 97 95 100 91 98 93 86 84 71 56 77 66 66 70 81 83 77 54 41 44 78 86 79 76 77 68 64 52 54 38 36 36 32 33 30 31 33
89 87 96 86 86 96 97 96 96 93 88 97 97 96 91 70 63 67 72 87 85 79 78 86 53 48 38 50 65 95 84 63 77 71 55 44 38 33 34 41 33 33 33 37
91 95 94 82 73 72 95 94 96 92 93 94 94 88 96 76 94 73 73 86 97 98 94 64 48 62 52 42 43 73 91 73 82 72 63 64 41 43 39 31 36 43 42 38
93 94 82 59 68 95 97 97 96 94 97 97 92 91 89 96 79 83 85 57 61 86 70 54 56 59 53 50 47 46 54 89 63 56 54 47 42 36 36 35 42 48 41 43
95 81 75 73 73 96 97 95 95 96 94 93 88 82 94 94 85 93 90 82 83 82 79 65 58 58 53 52 62 56 47 45 60 69 65 49 54 42 44 45 39 40 40 40
88 89 87 91 94 96 95 94 95 92 95 96 92 73 68 88 89 83 71 82 77 94 88 81 44 23 49 53 48 44 28 30 34 48 59 59 53 49 41 45 40 40 40 44
75 87 97 96 97 97 97 97 96 96 97 94 95 82 61 62 87 92 95 90 96 95 95 92 80 66 48 53 36 46 37 34 24 32 35 58 63 56 58 43 43 43 42 41
88 84 94 94 96 92 95 96 97 87 88 89 81 66 71 84 86 76 80 96 88 92 92 84 53 16 52 62 57 41 44 50 38 32 54 65 64 57 53 47 46 45 34 38
96 100 100 100 97 97 97 94 87 77 84 98 70 74 62 94 94 95 77 83 100 93 97 95 87 84 65 74 70 50 63 50 45 42 37 28 62 63 53 50 47 45 31 28
86 87 94 95 93 95 94 80 75 75 78 78 81 90 97 99 66 73 83 81 77 99 98 98 96 94 84 95 74 29 40 74 74 67 65 63 61 59 57 54 49 50 42 38
96 88 88 96 97 96 92 82 76 74 90 88 88 90 97 98 97 99 94 99 98 97 86 84 97 97 95 90 85 77 91 84 72 68 63 51 54 59 57 55 56 59 55 47
99 98 98 99 99 88 85 85 87 75 77 74 81 96 96 98 90 98 98 98 98 92 98 77 96 98 99 96 95 98 93 82 82 82 79 70 67 68 67 66 70 58 57 58
94 89 85 71 60 62 76 68 71 72 79 68 88 94 97 98 98 93 97 98 98 98 88 88 94 94 96 93 90 88 79 89 90 83 87 83 78 71 70 67 68 69 71 65
69 90 81 83 96 96 94 84 97 66 67 84 84 85 96 100 95 98 94 98 96 98 98 99 99 99 97 86 79 75 77 68 62 57 74 78 91 86 78 71 66 68 70 72
94 96 96 90 81 79 75 65 66 77 72 70 72 81 94 100 96 96 93 90 99 99 100 98 99 97 100 98 100 98 93 94 88 80 74 74 88 97 100 99 99 99 100 100
86 89 92 99 96 99 94 96 96 78 78 62 89 92 84 75 89 98 94 100 99 98 96 98 97 98 98 99 100 100 100 100 100 100 100 100 100 100 99 98 99 99 98 98
80 75 75 83 92 97 87 89 99 89 81 82 92 98 99 92 98 98 98 97 97 97 99 98 97 97 97 97 97 97 97 98 98 98 97 98 98 98 98 97 97 96 96 97
89 92 94 90 100 99 90 87 82 83 92 99 100 98 98 97 96 96 96 98 100 99 98 97 96 96 96 96 96 96 96 97 97 96 96 96 95 96 96 96 96 96 96 96
95 95 95 93 84 92 97 88 85 89 98 100 98 97 96 99 93 94 94 96 95 96 96 96 96 96 96 96 96 96 96 96 96 96 96 95 95 96 96 96 95 95 96 96

GFSNW_700_rhum_036.txt.gz
RH
74 76 80 84 86 100 99 100 98 99 97 97 100 89 21 20 62 50 47 35 36 28 29 32 47 36 32 32 31 30 29 29 32 32 28 30 29 29 30 34 36 35 37 38
78 80 84 94 100 99 98 96 100 98 93 94 80 46 45 51 65 61 55 45 37 32 49 84 83 75 36 32 31 29 28 28 34 34 34 34 31 27 36 34 34 39 57 44
86 84 96 100 100 98 98 98 98 97 97 83 74 59 31 48 36 73 56 43 37 36 53 65 94 61 52 36 37 32 31 29 32 42 33 36 31 28 27 40 42 44 46 46
86 85 95 98 97 98 98 97 96 84 91 94 75 94 58 69 76 65 69 49 47 37 46 52 70 84 78 73 44 39 36 39 34 34 31 31 29 31 28 29 53 48 42 43
92 97 80 98 99 97 98 97 97 92 88 81 94 97 89 78 72 68 64 55 44 39 37 53 93 97 96 86 63 48 36 43 44 41 37 30 31 29 26 26 25 26 29 29
64 78 84 86 98 98 97 97 97 93 77 93 96 92 73 70 70 67 60 46 42 41 40 42 60 72 99 95 93 64 52 47 46 47 39 35 32 28 25 22 27 26 27 27
80 72 80 99 94 90 97 97 92 96 96 88 80 77 60 75 83 73 63 49 39 39 42 48 55 62 93 93 100 97 70 50 47 52 43 56 36 30 26 25 25 27 25 22
95 93 97 95 100 88 100 97 97 96 97 88 98 78 86 93 91 86 67 54 36 31 53 87 96 92 89 79 98 93 89 75 56 56 53 42 32 35 31 32 31 29 29 27
86 98 96 95 97 96 99 81 97 97 95 88 62 95 86 94 90 87 77 51 42 45 47 83 96 75 62 55 43 89 97 86 84 59 60 62 43 38 34 31 35 31 29 28
81 84 97 97 96 95 93 89 94 97 96 90 98 94 83 84 87 84 70 51 48 44 51 64 95 60 44 42 43 48 80 88 95 81 62 51 45 38 32 37 36 34 33 31
86 87 96 96 97 96 91 74 94 97 96 90 91 89 78 89 90 80 55 58 62 62 74 74 82 59 49 31 36 46 50 98 93 92 68 64 42 38 37 35 33 36 36 41
86 94 94 95 96 95 93 94 97 98 96 97 88 69 86 90 99 88 72 72 90 83 78 78 70 48 42 42 53 57 73 59 90 90 63 51 35 37 43 39 38 34 42 45
95 90 84 97 97 93 80 94 92 97 98 90 85 75 87 96 83 81 90 72 79 88 84 81 62 56 52 49 54 39 44 94 63 85 71 79 51 52 39 42 44 44 46 52
90 97 86 96 94 94 85 91 82 98 98 94 94 82 85 79 94 85 79 87 86 74 88 78 75 71 58 51 41 28 15 56 82 57 48 56 62 62 72 58 49 53 43 43
96 96 88 80 73 80 97 98 97 98 94 83 87 91 75 78 85 89 99 90 89 98 85 98 83 61 41 54 51 54 43 32 44 38 29 52 38 76 70 61 57 59 51 44
76 67 65 55 78 99 96 97 96 95 91 92 93 90 68 59 61 95 94 94 94 93 98 91 85 86 76 59 54 40 38 41 47 48 42 36 26 62 45 45 60 71 68 48
87 87 69 95 97 97 97 90 77 94 90 96 96 91 85 71 56 65 97 86 77 70 79 70 68 70 78 72 68 59 59 52 40 46 38 46 34 32 62 62 55 80 60 52
97 97 97 95 92 92 94 93 96 92 98 97 78 80 90 63 66 76 77 68 74 86 97 84 84 81 100 88 87 86 65 16 56 78 79 79 46 64 60 62 51 48 64 65
95 98 97 96 97 97 96 91 80 88 94 93 80 65 95 92 88 69 82 76 97 99 82 87 92 87 95 92 83 78 78 66 47 60 68 71 74 61 60 56 57 63 71 83
96 97 97 97 98 96 95 84 98 98 91 86 56 54 92 97 100 70 73 72 83 82 76 73 96 100 100 98 98 90 92 82 91 92 85 86 80 70 58 63 71 74 76 74
98 95 87 87 91 97 94 87 77 67 62 65 66 87 93 93 98 100 84 76 90 93 83 77 83 93 97 98 100 99 94 97 97 92 84 82 86 84 80 78 78 77 73 70
82 70 71 77 78 74 75 70 66 72 92 89 91 96 97 95 97 99 82 94 80 85 85 81 98 97 96 87 86 91 99 88 75 67 77 78 75 95 84 78 93 90 82 82
77 67 66 94 86 99 80 85 92 99 89 77 86 96 97 98 96 98 87 91 98 99 98 97 98 93 95 96 90 88 82 74 76 78 84 84 86 91 90 90 93 98 98 97
93 95 96 96 96 100 99 100 90 92 79 88 98 97 98 98 98 98 98 98 97 96 95 97 96 97 96 96 96 97 97 98 99 99 100 100 100 99 100 100 100 100 100 98
90 95 88 95 94 94 96 100 93 90 98 67 85 96 99 92 96 96 98 95 97 98 99 98 97 97 97 97 97 97 97 97 96 96 96 97 97 97 97 97 96 96 95 95
88 95 97 97 95 91 91 87 92 92 68 85 98 97 96 97 96 94 96 96 99 100 96 96 96 97 97 97 97 96 97 97 97 96 96 95 95 96 96 95 95 95 95 95
98 96 99 98 96 83 85 78 81 82 81 99 93 96 96 96 97 100 100 100 97 96 96 96 96 96 97 97 96 96 96 96 95 95 95 95 95 95 95 96 96 96 96 96

GFSNW_700_rhum_039.txt.gz
RH
86 84 85 88 90 99 98 98 98 96 96 97 89 55 48 46 59 38 30 23 26 33 34 37 35 46 50 45 38 36 36 36 38 35 33 31 28 29 28 39 49 41 49 46
86 85 83 87 91 98 98 98 99 98 96 88 75 55 42 45 48 49 69 56 34 27 34 41 39 52 44 46 66 62 36 38 38 37 31 31 32 32 29 29 29 36 51 44
80 80 82 83 91 100 98 98 97 98 96 80 61 51 42 50 69 51 44 47 61 42 46 40 39 47 54 51 60 54 56 36 36 41 35 32 34 32 30 30 33 32 43 43
77 81 84 94 100 99 98 97 97 90 99 75 84 91 79 57 70 73 65 43 28 39 57 40 42 50 52 50 68 62 66 54 36 33 33 33 38 37 35 36 30 33 32 39
87 100 100 100 99 98 97 97 97 100 78 100 99 100 68 51 49 50 68 64 29 47 59 40 39 49 48 47 59 89 68 80 45 40 31 30 34 39 36 37 30 34 39 39
97 100 100 100 100 97 98 97 98 100 99 100 100 67 43 46 71 79 72 62 54 30 27 58 50 49 47 48 61 90 99 91 57 45 41 34 37 36 38 35 33 33 30 27
68 71 85 100 100 97 99 97 98 98 96 100 83 61 62 63 92 84 68 72 71 21 33 49 55 63 65 55 55 78 86 98 74 47 42 67 42 40 38 36 32 31 28 27
85 87 90 88 89 94 97 97 98 96 98 89 84 75 69 56 77 85 70 67 72 64 55 44 61 69 66 60 65 73 78 94 82 64 53 56 52 43 34 34 30 29 26 26
69 85 82 94 93 81 99 97 97 95 98 96 66 64 62 69 63 73 73 62 69 67 60 46 70 68 65 66 62 64 66 91 98 96 64 72 57 42 33 35 34 30 30 26
74 79 93 100 100 100 90 90 83 100 96 94 91 81 59 55 68 58 55 67 68 64 63 70 58 71 73 92 60 44 50 50 86 93 98 58 53 41 35 39 38 29 29 34
92 93 93 92 98 99 96 93 78 96 95 86 99 91 94 82 73 63 47 74 66 72 72 68 84 68 82 79 64 48 42 48 66 99 90 81 53 44 33 37 35 35 37 37
87 97 97 94 93 98 97 96 88 85 96 92 95 83 76 99 68 54 61 64 63 71 67 64 74 79 65 61 51 50 53 39 35 38 87 70 55 60 48 43 44 49 46 37
93 91 88 79 83 97 96 98 87 100 91 97 100 92 86 93 73 66 72 69 84 74 63 73 78 72 62 60 51 51 59 49 52 47 55 69 77 60 54 49 50 54 62 48
90 87 84 87 93 97 96 89 91 94 92 97 86 98 97 86 88 90 87 90 98 94 70 67 79 75 65 49 52 54 48 41 30 30 32 92 78 74 69 53 52 59 62 57
90 95 93 96 96 96 92 79 88 100 98 87 83 89 87 82 82 87 97 86 89 98 68 60 60 61 68 60 47 39 45 48 39 27 27 53 57 41 77 66 54 70 64 65
90 90 96 96 97 95 100 98 97 97 94 98 97 98 96 93 80 94 97 94 79 98 77 88 85 65 82 67 65 65 38 48 61 64 58 56 31 32 72 58 80 78 76 73
94 97 94 96 92 83 98 94 69 94 93 97 93 90 78 78 93 99 82 85 89 97 97 95 91 86 70 80 75 62 61 40 34 50 49 50 49 45 29 29 37 55 58 68
74 82 96 98 96 97 95 94 96 96 97 90 75 82 78 73 74 72 67 71 88 96 81 90 82 89 92 83 72 59 52 69 59 54 54 47 38 48 50 51 62 44 49 67
97 96 98 96 97 99 97 96 97 98 92 84 60 81 91 69 76 77 74 73 85 93 90 98 95 97 98 98 94 97 96 75 45 42 47 75 78 79 73 80 74 65 61 59
96 96 96 97 97 96 96 98 97 96 90 80 69 56 81 84 76 80 82 90 87 84 88 96 91 98 99 95 96 98 97 93 90 84 71 81 77 72 72 69 63 66 72 78
96 92 88 94 85 84 81 86 81 81 77 66 61 58 57 94 98 99 93 82 77 75 81 80 91 90 97 97 99 98 88 98 99 99 92 90 96 92 90 90 88 88 90 90
86 78 83 82 63 62 66 66 65 57 63 74 89 58 81 96 98 98 81 74 62 64 88 86 95 98 93 95 94 82 90 93 91 94 100 96 85 84 90 83 91 94 88 93
82 70 76 95 94 93 75 84 76 93 98 93 93 95 97 95 97 96 80 80 90 97 100 97 97 92 85 88 91 92 89 82 72 77 76 82 85 83 83 95 100 100 100 99
68 83 96 91 93 92 100 96 99 100 99 89 86 97 97 98 99 99 81 94 97 96 94 96 95 97 95 95 97 96 97 98 98 98 98 98 98 99 100 100 99 100 100 99
72 83 88 92 97 100 100 100 98 100 99 76 86 97 96 97 97 100 96 94 94 95 98 97 97 98 98 97 97 96 96 96 96 96 96 96 96 96 96 96 96 96 95 95
81 87 99 94 95 99 100 100 100 99 99 95 97 96 96 95 95 96 99 93 97 97 95 95 96 96 96 96 96 97 97 96 96 96 96 96 96 96 95 96 95 95 95 95
83 88 96 80 84 86 84 78 91 88 85 96 96 96 99 96 92 93 95 99 98 96 96 96 96 96 96 96 96 96 97 96 94 94 95 90 87 89 92 93 90 92 94 94

GFSNW_700_rhum_042.txt.gz
RH
23 51 80 94 96 97 98 98 98 100 97 97 85 56 56 73 74 62 50 29 20 39 40 33 36 37 37 54 58 56 49 41 42 36 33 35 34 31 30 32 49 43 39 42
54 81 92 96 97 97 97 97 99 98 90 86 74 79 65 69 95 64 66 56 22 27 56 38 31 47 60 42 49 78 76 52 46 41 36 32 35 35 33 29 30 40 56 46
89 90 95 96 97 97 97 97 98 98 93 70 75 93 92 81 83 81 65 51 38 30 36 39 31 31 40 46 60 52 62 92 72 61 43 36 35 32 33 31 32 35 38 32
94 96 96 96 96 97 97 97 92 92 99 80 81 86 80 76 95 99 83 68 55 46 40 29 22 40 50 65 59 53 48 96 95 72 61 47 35 35 33 33 34 34 33 32
96 96 96 96 97 98 96 96 91 99 97 100 88 77 54 70 97 93 92 75 53 38 31 37 39 40 47 53 53 58 48 74 97 81 63 52 43 34 36 36 36 35 34 34
93 90 91 94 97 97 97 94 95 100 99 100 98 47 32 89 96 97 86 77 75 58 48 36 34 39 51 56 69 75 55 62 76 90 70 64 50 39 34 36 38 37 36 35
100 100 100 98 98 97 98 96 99 98 98 94 61 89 99 73 92 84 74 70 82 72 58 57 49 45 52 48 51 70 79 66 95 93 77 93 55 48 37 32 32 39 37 36
77 75 90 98 97 97 97 98 98 97 99 90 88 72 84 97 78 78 70 58 67 79 80 72 71 63 50 49 57 71 68 80 84 86 95 87 57 52 44 42 37 34 35 33
67 71 73 80 85 93 97 96 95 97 97 84 76 93 88 88 88 82 58 59 55 93 92 96 77 67 53 63 64 67 58 79 84 88 89 96 65 49 43 45 45 32 30 33
98 100 95 96 99 94 92 97 96 97 96 90 92 94 82 85 84 73 62 53 53 71 93 96 93 80 64 68 65 86 99 100 99 92 93 72 85 57 46 54 51 42 41 36
86 100 100 100 100 96 96 91 99 97 96 89 84 85 81 90 94 77 58 67 62 66 87 98 90 83 73 62 68 66 69 62 66 96 97 90 75 72 58 62 56 46 44 39
91 97 94 98 100 96 97 97 86 100 97 93 95 85 77 97 93 70 77 59 54 57 90 96 82 79 78 69 66 44 73 56 52 44 34 33 51 79 84 84 56 52 47 41
72 72 71 91 99 97 96 93 90 100 99 96 92 82 76 87 93 100 88 73 66 70 80 92 79 70 67 69 67 51 62 54 48 58 43 53 43 49 93 73 77 57 53 52
61 90 88 97 98 96 97 93 81 85 92 94 60 63 62 69 92 98 93 88 69 68 83 81 96 76 65 60 60 55 55 57 59 55 43 41 34 46 85 58 60 67 67 69
92 98 99 98 97 97 97 90 95 81 84 80 72 64 49 65 75 92 93 91 78 83 86 82 91 85 74 70 68 61 52 59 71 56 48 51 38 51 52 50 46 61 62 60
90 92 97 96 92 97 98 98 97 93 87 96 90 95 94 87 98 100 98 87 88 86 98 88 92 82 72 68 61 60 67 65 60 63 59 65 64 81 59 33 33 47 65 65
94 95 88 87 85 75 90 88 67 75 87 97 100 88 95 97 98 98 84 89 82 96 98 98 99 86 72 59 58 66 76 69 71 74 68 68 64 61 65 53 53 52 41 63
96 97 96 96 96 96 92 71 76 95 97 97 96 98 99 94 92 93 97 98 98 88 83 90 94 83 84 80 84 66 75 74 74 72 62 59 50 53 55 55 63 68 59 51
96 97 95 95 97 98 74 92 97 97 95 73 79 85 95 87 91 81 75 88 84 82 85 87 96 95 97 97 97 81 68 63 60 62 57 56 63 63 65 75 82 78 72 73
95 96 96 96 97 97 96 98 97 97 91 65 71 78 86 89 82 78 76 73 79 91 81 83 98 97 99 95 91 92 91 92 73 70 78 83 72 74 81 72 81 77 76 84
96 88 89 97 97 97 94 92 87 82 80 72 62 60 62 95 99 90 86 90 87 85 85 85 95 96 96 99 97 97 96 92 96 94 89 98 99 95 97 94 98 95 94 93
85 77 80 73 61 61 61 64 57 52 52 52 59 55 52 90 92 86 94 81 71 76 98 94 97 96 94 91 88 84 85 88 90 94 85 94 94 90 96 95 94 95 94 93
77 66 75 85 74 66 64 88 92 97 95 94 90 80 77 90 97 90 80 76 77 99 99 99 99 92 88 86 80 75 74 79 79 86 83 83 85 83 83 90 98 99 100 100
68 74 78 74 85 91 100 99 97 100 97 93 96 93 97 98 97 100 100 99 97 94 94 98 96 98 99 100 100 100 98 90 94 96 97 100 100 96 97 98 98 97 98 97
65 72 80 93 97 100 100 99 97 89 89 98 96 94 96 98 96 98 98 96 95 96 100 97 95 95 96 98 99 98 96 94 96 95 96 95 95 96 96 96 96 96 96 96
71 81 97 99 98 100 93 95 96 98 94 97 97 96 96 96 96 93 99 92 98 100 98 96 98 97 96 95 95 96 95 95 94 95 96 96 96 96 95 95 95 95 94 95
77 89 95 94 86 89 93 95 96 95 97 96 95 95 96 97 94 92 97 96 96 96 96 96 96 96 94 95 96 96 95 95 96 96 97 97 96 98 99 97 92 96 97 98

GFSNW_700_rhum_045.txt.gz
RH
16 28 31 24 24 56 98 97 97 99 94 97 88 81 92 70 74 52 63 39 45 29 30 30 31 45 41 46 58 61 68 57 49 45 40 36 34 41 37 38 42 42 36 36
23 30 28 23 47 92 100 96 99 98 98 94 82 99 90 99 87 74 67 58 60 48 42 43 27 23 47 56 47 62 62 82 68 52 44 42 40 36 36 41 40 38 48 37
31 29 23 47 84 100 97 98 98 97 96 86 86 100 100 91 76 74 70 74 58 59 58 46 38 37 62 54 45 50 64 63 70 94 97 90 79 56 40 34 38 41 37 36
28 22 44 87 100 99 97 96 94 98 97 100 100 100 96 91 99 87 73 72 68 68 72 68 56 44 40 50 69 52 58 68 66 58 70 77 77 68 52 48 36 36 37 35
20 40 82 96 100 98 96 90 92 100 99 99 99 100 77 97 100 100 73 77 68 69 74 69 62 56 55 53 51 60 78 64 65 61 48 52 68 71 57 53 48 43 41 36
52 79 90 98 97 97 94 90 92 100 98 95 96 86 100 99 100 99 84 80 82 74 59 60 70 71 54 57 68 66 74 79 72 65 54 50 46 60 67 55 44 44 41 40
84 87 90 97 96 96 94 84 86 100 100 91 100 100 100 98 100 100 90 89 93 68 78 88 86 74 76 67 61 80 78 84 83 63 56 71 25 21 48 62 54 45 38 38
90 92 97 96 96 96 96 96 97 100 100 100 100 100 100 100 96 99 89 76 62 84 100 95 89 69 68 66 54 67 71 72 79 70 91 51 24 18 21 68 65 51 42 34
100 98 96 96 96 96 97 96 97 99 100 100 99 98 97 94 88 87 76 66 67 75 91 98 96 81 66 62 74 70 84 89 95 98 88 80 18 19 25 41 71 59 48 41
92 89 89 96 97 96 96 97 98 97 96 100 98 94 97 98 99 92 86 71 72 68 86 96 98 96 86 69 77 96 97 99 98 100 95 71 45 34 29 72 84 65 53 50
93 90 95 100 93 93 96 95 96 97 98 100 96 95 96 97 97 90 85 90 89 92 92 98 95 94 84 77 71 66 72 79 94 100 98 89 43 42 41 50 94 94 65 50
90 95 100 97 97 98 99 96 93 97 98 95 92 94 98 85 100 96 95 80 71 61 72 72 80 84 83 75 73 72 71 66 59 58 51 43 48 45 50 48 59 92 87 67
98 90 87 96 97 96 96 97 92 99 97 87 90 76 73 100 97 96 98 87 85 85 68 64 60 80 76 77 77 71 64 54 50 52 48 40 36 51 42 36 68 82 68 79
83 98 96 92 92 95 97 96 90 87 90 100 88 73 84 88 88 100 97 93 97 89 84 73 73 70 68 75 70 66 60 67 62 57 45 42 40 56 48 57 72 85 71 67
65 73 94 95 97 99 98 99 98 95 93 92 81 70 64 84 85 93 93 98 90 100 96 96 87 76 76 85 86 67 59 63 64 62 63 69 69 64 57 67 72 77 73 69
67 73 86 94 90 99 98 98 99 84 78 98 88 78 55 60 62 63 83 89 97 87 97 96 90 81 89 95 96 83 66 65 67 63 56 61 65 68 64 76 82 79 77 54
94 95 91 87 89 93 92 90 63 61 91 98 98 93 82 48 47 48 64 91 97 98 98 96 82 78 94 97 97 93 78 75 68 67 61 66 68 63 66 68 66 67 61 54
95 97 97 91 98 100 99 93 78 71 93 99 96 92 82 86 99 100 79 94 94 97 94 85 79 93 98 98 92 78 68 64 66 70 61 71 77 70 70 63 53 52 55 81
95 90 86 96 98 98 94 91 76 90 92 92 96 93 94 97 97 98 95 97 93 78 94 96 98 97 97 92 100 92 80 70 63 81 77 87 76 64 58 56 60 61 73 69
96 96 98 100 91 92 95 98 95 94 97 97 97 86 90 83 88 93 95 93 94 96 96 87 100 97 95 95 94 97 97 95 94 77 90 93 77 75 78 88 88 95 86 74
97 96 92 91 92 92 95 96 96 96 96 96 89 71 69 88 91 86 81 80 83 88 100 100 99 96 94 95 91 90 88 87 87 91 96 100 100 94 100 96 99 98 96 91
95 94 92 95 90 75 72 72 71 64 73 74 69 63 78 77 95 90 86 84 89 93 99 100 99 93 90 93 96 98 98 98 97 97 96 94 92 99 96 94 87 90 98 99
82 66 63 71 59 63 61 95 96 100 82 71 68 66 73 93 94 87 88 91 99 99 98 96 94 89 88 89 91 96 94 90 93 92 86 90 88 99 96 98 100 100 100 100
59 63 69 72 84 93 100 100 100 94 99 95 94 79 91 95 96 97 97 97 95 96 93 91 94 97 100 95 93 92 93 96 100 100 98 100 97 95 97 97 97 98 96 96
59 68 74 91 97 100 100 100 99 99 90 97 97 97 96 98 96 97 98 97 96 98 100 97 98 98 99 98 96 97 96 96 96 97 99 95 93 95 96 95 95 96 96 96
72 82 98 99 100 100 99 99 99 96 96 98 98 96 96 97 96 94 93 94 93 96 93 97 98 99 99 98 98 96 96 96 96 96 96 94 95 96 96 96 96 96 96 96
83 96 92 92 94 94 95 96 96 96 96 95 95 96 95 96 92 95 92 90 94 94 95 96 96 96 96 96 95 96 95 96 96 96 96 96 95 93 93 97 90 88 88 88

GFSNW_700_rhum_048.txt.gz
RH
14 12 9 8 17 36 78 100 98 74 100 100 98 100 100 88 78 67 63 68 73 52 38 26 27 37 30 60 58 66 65 60 54 47 40 40 43 44 44 43 45 50 47 42
15 10 9 14 28 50 98 96 90 97 98 95 90 100 100 87 89 81 66 64 60 51 52 46 37 46 69 75 63 68 69 77 76 62 54 50 51 48 58 53 42 43 58 46
14 9 10 25 36 61 99 98 100 97 96 92 91 100 97 99 80 91 88 88 77 75 62 65 49 32 80 64 72 58 53 64 69 87 78 75 82 71 62 72 76 54 46 44
12 10 17 35 33 71 100 98 93 97 93 97 99 100 100 100 100 96 91 86 85 88 82 74 63 52 34 48 54 49 60 49 56 59 61 61 57 50 63 59 58 71 65 56
10 15 23 37 26 91 98 98 98 99 99 96 90 99 97 100 100 100 99 91 83 86 86 72 66 56 63 50 45 61 68 66 53 51 48 48 42 57 44 37 39 49 58 57
11 18 35 29 21 96 97 100 100 100 96 98 97 85 99 99 100 93 90 89 89 83 68 89 80 70 63 56 48 89 71 82 72 72 59 68 57 31 33 30 24 29 44 57
20 35 31 20 32 99 100 99 98 99 96 95 91 97 90 98 93 92 88 90 82 70 99 98 84 69 63 67 50 72 74 86 82 78 78 81 31 32 25 23 20 16 16 18
37 29 20 30 82 100 97 97 99 98 96 98 97 94 98 93 93 94 92 88 75 94 97 96 91 86 77 65 64 57 59 100 92 85 81 52 25 22 22 16 14 15 12 21
23 23 50 88 99 98 97 97 96 97 96 91 91 96 94 86 91 99 84 79 95 99 98 99 95 82 76 83 83 60 64 83 96 100 97 85 23 33 40 41 34 45 28 33
68 90 99 98 97 97 97 96 97 97 98 91 98 94 93 96 96 94 83 76 92 92 95 100 97 93 86 82 99 99 85 90 93 94 93 70 38 35 48 67 49 52 53 57
97 96 96 96 96 96 97 98 97 96 96 93 96 95 94 96 97 96 86 97 96 98 98 100 97 96 80 80 76 78 80 91 98 90 97 83 37 43 51 48 46 52 65 80
90 95 96 96 96 95 96 97 97 97 96 96 92 91 96 96 89 93 96 84 78 74 83 92 91 83 86 77 79 68 80 68 58 62 41 41 50 43 42 48 60 60 89 71
97 98 98 98 97 95 94 98 98 97 97 97 97 96 95 92 90 95 100 96 95 93 87 82 74 77 74 76 75 73 71 66 65 64 58 55 41 35 45 46 57 57 87 87
89 92 95 96 99 96 99 95 88 97 97 96 97 97 88 89 91 90 82 80 95 97 97 96 92 82 71 67 66 74 73 72 67 60 54 50 49 59 49 45 51 61 68 90
93 94 96 95 96 97 96 98 85 81 88 96 91 85 80 71 81 84 88 93 95 96 97 97 87 89 86 81 80 82 80 77 71 62 67 65 62 68 64 64 58 69 76 91
78 80 89 94 92 96 98 96 96 90 95 97 96 86 75 70 72 87 95 99 96 97 98 94 88 94 98 94 87 79 68 75 80 68 58 51 51 52 63 68 65 76 95 97
80 78 81 93 96 98 91 94 91 82 97 98 99 88 60 76 72 91 97 96 92 97 97 93 88 100 96 95 84 81 79 92 80 77 68 68 73 74 71 76 80 92 82 70
97 84 87 100 98 98 99 99 84 81 90 97 95 91 79 68 67 73 92 90 76 82 97 93 100 96 97 92 82 78 76 83 87 98 97 88 71 72 68 80 78 91 73 64
97 98 99 97 97 98 94 94 97 86 92 92 88 85 96 94 89 78 84 99 100 85 86 95 98 95 100 87 80 79 83 96 82 83 75 81 80 82 87 84 77 75 71 67
97 90 98 100 90 95 95 98 97 98 92 78 79 77 97 84 98 99 100 100 93 93 97 96 96 98 99 92 90 88 93 88 76 73 87 88 89 90 88 83 95 98 100 85
96 95 89 93 94 97 97 97 95 94 94 91 91 96 96 94 97 95 92 95 92 84 97 100 95 97 93 91 96 93 85 93 90 95 97 96 90 84 93 98 100 100 97 97
71 73 84 95 93 92 97 97 95 96 91 95 97 97 97 96 96 95 88 78 75 96 96 97 93 85 90 92 84 80 87 86 92 100 100 100 100 100 99 98 99 98 96 95
96 90 89 92 89 96 99 100 98 100 98 89 87 100 99 99 96 90 84 98 98 99 98 95 87 86 88 94 98 100 100 96 96 96 97 97 96 94 91 95 100 100 100 100
82 76 79 86 92 93 97 94 97 100 92 74 83 93 97 98 93 94 97 97 97 93 94 92 92 94 95 97 100 100 100 100 100 98 97 96 95 95 96 96 96 96 97 98
60 68 80 96 98 100 100 100 100 100 100 99 82 73 94 95 95 97 96 96 98 97 90 88 96 96 98 99 99 100 100 99 97 96 96 96 96 97 96 95 96 97 97 97
70 88 99 97 98 99 99 99 99 100 97 98 97 98 93 95 96 95 94 94 90 91 93 97 97 97 96 98 98 99 98 96 95 95 95 96 95 96 96 95 95 96 95 95
86 98 99 99 99 98 98 99 99 99 97 96 95 96 94 95 94 94 89 86 89 95 96 96 97 97 97 97 96 96 95 96 96 95 95 95 96 96 96 96 96 94 93 93

GFSNW_700_rhum_051.txt.gz
RH
17 15 14 15 13 12 12 15 30 42 69 80 94 98 94 86 66 73 78 68 73 77 67 47 31 47 46 68 74 69 43 45 45 42 39 44 48 48 48 52 48 53 52 45
18 17 16 16 12 14 27 54 45 34 62 92 99 92 94 89 81 76 89 82 83 83 71 60 42 55 65 81 78 86 76 74 68 58 53 47 47 55 59 61 55 51 57 46
20 18 18 14 13 23 74 86 86 83 72 76 97 99 97 86 79 76 83 90 94 81 79 67 52 44 40 65 69 73 73 77 74 64 68 67 70 71 68 62 69 66 64 62
21 19 65 15 21 33 70 88 95 89 98 65 98 98 98 92 89 94 84 91 94 96 90 78 68 59 46 42 52 55 56 62 61 60 53 55 60 60 53 53 50 62 52 41
56 21 77 15 26 42 81 89 99 100 78 73 95 95 95 91 89 84 85 94 96 96 88 73 68 73 65 57 56 67 86 62 55 47 38 38 36 38 43 38 39 45 29 29
66 79 73 19 30 52 84 79 91 100 92 85 89 82 74 93 99 92 86 95 96 89 84 96 80 76 73 64 54 52 80 70 71 67 54 54 55 27 31 21 17 24 24 17
75 60 23 17 29 59 80 86 99 99 94 90 80 80 97 90 80 88 94 96 96 92 95 93 96 87 68 66 65 60 72 99 92 84 80 72 31 20 20 30 21 16 17 21
20 17 18 20 30 51 84 90 99 98 93 86 83 82 84 98 97 94 91 94 95 96 97 94 87 88 84 58 55 63 55 79 84 84 89 56 28 26 27 24 17 25 34 57
96 78 68 46 51 43 60 87 90 99 98 87 86 92 93 93 94 97 92 96 95 97 97 99 88 85 85 86 74 61 68 67 85 99 80 76 45 38 37 47 38 46 47 46
96 96 88 42 40 47 78 82 97 99 97 89 92 93 88 91 96 94 94 96 97 97 97 98 91 93 94 83 86 100 82 83 88 99 92 70 45 43 60 58 53 53 57 45
98 97 96 86 29 59 89 94 98 98 97 93 92 86 92 94 97 96 90 97 96 98 99 97 94 89 75 76 88 94 89 98 95 98 98 88 41 59 57 56 49 49 52 54
97 96 100 93 66 99 98 97 97 98 97 96 94 94 90 97 94 96 94 87 83 87 95 95 95 86 78 74 77 66 86 68 69 72 59 37 54 61 68 56 44 38 44 56
96 97 100 100 99 96 96 98 97 98 98 92 97 92 80 92 93 94 98 85 94 96 95 96 92 86 80 74 69 66 69 59 62 59 56 46 46 57 61 56 45 36 38 58
96 97 96 97 97 96 96 96 96 96 95 97 89 82 82 83 95 92 85 95 96 96 96 94 98 92 82 77 69 65 62 68 69 67 67 63 63 58 55 67 74 72 73 72
96 95 95 96 96 96 97 97 95 96 96 95 91 84 86 80 84 97 88 94 93 94 97 96 97 90 92 89 82 76 70 68 70 76 76 71 66 66 68 62 54 45 65 71
96 95 94 94 96 97 97 97 95 96 96 96 96 87 79 83 76 73 71 78 84 96 100 96 94 94 97 97 92 85 75 66 68 69 68 80 80 73 67 62 51 68 70 74
98 96 97 97 97 97 95 96 80 87 95 96 95 78 73 70 94 84 86 94 96 96 98 97 97 96 92 97 89 71 78 83 75 60 63 77 77 78 72 67 75 70 82 81
88 97 96 97 98 98 97 94 80 91 96 97 94 83 67 69 76 77 89 99 98 96 96 96 97 90 97 91 75 81 85 73 63 56 61 74 77 75 86 85 68 69 87 94
94 92 98 97 97 97 94 97 88 93 95 97 88 73 71 97 80 79 75 87 97 96 96 97 94 97 94 87 81 81 85 74 69 63 78 99 96 82 79 77 70 68 81 92
98 99 97 98 97 96 94 97 98 96 98 95 81 75 81 96 93 96 98 94 96 94 91 97 93 98 82 88 80 73 70 73 82 87 100 100 94 83 84 94 95 88 94 94
98 96 92 82 95 97 96 92 85 88 95 87 71 64 67 76 96 96 91 89 96 94 95 100 97 97 99 85 80 89 89 92 100 100 100 100 100 100 94 96 100 100 99 98
76 73 88 94 92 86 88 89 94 95 87 90 86 76 75 85 96 97 100 92 86 99 99 100 90 79 80 78 85 87 88 91 96 98 98 99 99 98 98 97 97 96 98 99
66 81 89 86 87 93 94 100 100 94 100 100 81 96 96 98 95 96 96 100 100 98 100 97 83 74 80 78 83 88 92 93 96 96 96 96 96 96 96 96 97 96 98 99
84 75 75 78 82 86 94 92 93 88 92 95 96 97 96 95 93 90 89 94 94 97 92 87 80 84 84 89 93 99 96 95 95 95 95 96 96 96 96 96 96 96 96 96
72 73 75 85 89 91 88 90 92 95 94 91 100 95 92 93 93 83 93 95 97 92 87 83 90 94 94 97 98 96 95 95 95 96 96 96 95 96 96 95 96 96 96 96
69 81 97 99 100 100 100 97 98 100 92 87 95 82 95 95 93 94 92 95 94 91 94 97 98 98 98 98 96 95 95 95 96 96 96 96 96 96 96 96 96 96 97 97
89 99 99 97 98 96 98 98 98 99 98 97 96 94 91 92 91 96 90 92 89 94 98 96 97 97 96 96 95 95 95 96 96 96 96 96 96 97 96 97 96 94 86 73

GFSNW_700_rhum_054.txt.gz
RH
25 22 20 23 27 18 15 35 40 40 66 72 97 100 99 97 55 63 68 61 83 87 82 72 61 54 77 94 96 75 47 50 49 43 46 47 46 43 44 40 40 43 46 33
80 37 48 49 74 26 64 68 34 47 76 98 100 96 87 100 96 92 91 90 83 87 88 78 61 56 60 87 95 94 80 52 39 42 46 45 56 61 58 60 56 46 52 38
63 93 100 100 91 99 90 96 98 76 77 93 99 100 94 100 66 96 100 90 77 98 93 84 71 65 45 59 91 92 86 77 54 32 37 52 69 68 65 62 57 47 45 43
78 78 100 100 83 98 89 98 93 99 94 83 81 95 93 98 100 97 98 97 87 95 93 85 80 72 63 46 54 92 92 90 70 65 66 62 63 62 60 59 60 56 48 47
99 99 99 92 97 97 82 100 100 94 100 100 87 91 82 100 98 98 100 95 99 93 94 97 83 86 83 78 55 52 58 63 71 62 53 62 62 58 55 54 51 51 49 47
97 97 97 94 90 97 83 94 96 92 83 100 100 97 95 95 98 98 99 99 99 82 77 100 100 100 100 76 66 58 87 83 60 45 51 50 45 44 43 48 46 42 36 33
98 100 92 96 95 97 83 90 92 98 90 100 100 100 99 100 99 99 98 93 89 92 94 94 92 90 85 78 62 62 80 89 85 59 66 55 34 28 22 28 35 37 38 39
99 98 74 94 98 99 86 83 93 97 89 85 97 100 100 100 98 94 97 92 94 94 96 96 100 99 100 87 65 61 60 99 85 74 59 46 46 34 34 38 29 27 57 63
96 79 73 89 97 99 75 70 88 91 94 97 98 99 100 100 100 85 80 97 96 96 96 97 92 74 75 88 99 89 73 90 85 89 58 56 44 22 26 25 44 71 73 80
96 92 91 91 86 78 65 71 82 97 94 56 92 100 100 94 94 90 93 90 96 97 95 96 91 81 90 81 84 99 100 100 89 76 83 65 48 53 40 66 73 60 54 64
92 95 96 96 97 97 92 73 83 91 93 84 92 84 90 94 94 95 94 97 97 97 97 99 95 90 78 75 89 97 93 89 87 75 84 82 63 46 65 87 65 54 42 42
86 94 95 96 97 95 95 73 78 86 96 91 83 83 91 92 95 96 95 95 94 94 98 93 94 95 86 72 67 91 92 74 69 68 67 68 71 77 76 68 59 52 50 39
91 89 93 98 98 98 98 69 69 83 96 96 91 88 83 95 94 96 94 95 95 89 90 96 98 96 91 84 73 68 76 82 88 82 72 66 73 74 46 47 50 52 68 66
96 97 97 97 95 98 97 81 70 98 99 99 75 89 78 76 93 94 97 93 95 94 96 98 96 94 86 88 80 80 72 78 84 75 74 72 80 56 50 61 58 62 66 64
94 96 96 96 97 95 92 89 97 96 94 97 94 82 75 75 88 93 96 96 97 94 97 96 90 88 92 79 82 84 80 78 83 76 79 79 66 72 65 68 69 68 68 62
96 97 96 96 96 97 96 98 97 97 97 97 100 90 56 70 78 95 96 97 97 97 98 95 95 91 97 94 90 85 83 76 69 77 63 64 63 58 55 60 60 62 59 51
96 96 96 96 95 96 96 94 79 90 96 96 89 94 72 76 78 86 92 96 93 96 97 94 96 90 89 100 94 86 71 69 71 68 68 70 60 57 59 68 69 75 85 75
96 96 95 96 95 96 95 87 89 95 97 96 93 77 66 71 59 69 80 96 92 84 96 90 82 93 96 98 85 77 76 81 81 68 70 70 61 56 63 82 99 90 88 76
97 97 97 97 97 96 96 91 93 95 94 92 81 74 66 71 72 81 84 83 95 90 87 97 98 92 96 90 90 93 86 81 79 73 79 74 68 73 76 91 100 98 82 82
97 97 98 97 93 93 97 96 98 98 97 88 72 64 61 69 89 87 88 89 94 92 92 97 96 92 81 91 88 84 73 71 75 82 79 82 80 87 89 99 100 97 98 100
97 97 95 79 92 95 97 96 96 91 85 76 77 73 68 69 96 91 88 91 91 88 97 94 95 84 72 70 66 69 78 80 77 87 87 89 93 94 91 93 97 98 97 100
92 82 71 76 97 95 93 88 91 86 83 71 69 68 66 72 83 97 92 93 90 96 89 98 94 77 76 75 78 89 95 89 87 90 94 94 94 97 97 96 98 96 96 97
92 94 97 91 93 95 95 100 100 100 91 88 83 82 83 80 84 98 89 98 98 97 100 98 86 72 73 78 88 90 90 93 97 97 96 95 95 95 96 96 96 96 96 97
88 73 75 79 74 74 81 79 77 78 86 93 100 100 97 98 97 96 97 96 94 98 97 94 79 78 78 84 90 95 96 97 97 97 96 95 95 96 96 96 96 96 96 95
70 64 59 72 72 75 82 82 82 85 91 100 97 96 96 97 94 92 93 96 96 96 95 78 84 89 96 97 97 96 96 96 97 96 96 96 95 96 96 96 95 96 96 96
69 71 75 84 92 98 97 96 89 91 97 96 96 93 93 93 90 91 91 94 99 91 92 96 97 98 96 96 96 97 97 97 96 96 96 96 96 96 96 96 95 95 95 96
80 94 93 94 99 100 100 98 96 94 88 97 84 72 76 88 86 92 90 92 87 93 97 100 99 98 97 96 97 96 97 97 96 96 96 96 96 95 95 95 93 83 52 33

GFSNW_700_rhum_057.txt.gz
RH
42 95 89 60 59 64 80 58 80 78 62 72 80 98 86 72 66 67 67 64 68 68 64 62 59 52 56 77 93 93 62 56 44 58 42 45 44 44 50 40 46 36 41 38
81 96 97 83 65 100 100 84 91 88 81 99 100 100 96 87 73 68 64 61 60 57 64 63 58 53 63 71 90 97 86 54 47 45 51 49 42 46 47 47 45 59 55 41
84 92 98 99 99 96 99 92 96 98 78 81 94 96 98 92 88 75 64 60 60 70 66 63 64 59 58 67 68 93 98 80 44 38 43 37 44 49 48 47 49 47 52 45
76 52 87 81 100 97 100 93 84 96 100 100 100 97 90 90 91 82 69 68 64 63 61 58 62 68 63 60 58 71 97 89 75 44 55 52 46 52 53 51 47 46 44 46
98 100 94 95 89 100 99 94 84 100 97 99 94 89 92 98 92 85 79 71 63 67 63 64 71 68 88 74 66 72 96 96 92 84 58 56 54 52 47 43 41 42 40 37
97 92 96 93 90 100 91 81 86 96 96 94 96 96 82 79 76 94 97 84 79 81 79 91 97 97 96 96 86 82 78 84 98 86 66 56 49 52 51 49 47 45 42 37
95 96 93 98 93 91 87 95 91 96 90 96 93 82 96 90 82 73 92 84 98 96 89 75 86 95 95 92 89 91 84 72 76 82 71 83 44 42 40 44 41 38 35 34
95 93 96 97 92 93 95 98 97 95 98 98 90 97 86 78 93 98 99 92 94 96 90 88 99 95 100 86 87 87 85 80 72 60 54 44 36 38 37 36 29 32 34 49
85 91 95 95 94 94 92 86 98 99 93 90 89 79 77 86 88 90 96 80 91 97 94 96 94 75 70 68 77 81 82 86 82 71 58 49 39 42 51 45 32 48 64 68
63 84 86 92 89 78 91 93 99 100 93 69 98 96 97 95 97 98 96 87 84 84 94 97 97 84 78 78 81 84 79 79 75 66 60 47 40 51 54 53 58 83 80 79
83 78 75 82 80 85 93 83 93 94 86 63 74 98 98 96 98 97 94 91 95 98 98 100 88 86 76 64 89 78 74 83 77 69 73 60 58 58 58 77 100 99 95 82
93 64 78 80 86 88 84 80 73 78 88 74 74 61 66 83 93 94 94 92 97 88 90 91 96 91 85 71 67 94 81 71 66 59 59 76 71 76 96 91 92 69 56 46
73 54 83 89 93 94 84 71 74 83 100 91 82 55 63 79 88 93 97 90 87 98 94 95 95 94 84 89 65 86 77 89 84 84 63 89 76 99 84 72 51 42 41 44
38 35 63 81 86 85 82 74 78 90 94 97 52 62 71 89 92 93 93 94 98 97 97 96 90 97 94 95 84 78 70 86 70 77 77 76 70 84 67 54 43 39 42 49
59 68 87 95 92 94 97 93 79 82 78 78 67 73 80 92 89 94 97 97 93 93 98 92 95 95 95 77 94 91 72 70 78 75 83 79 94 98 75 51 40 40 39 42
79 85 93 96 96 97 98 98 86 98 70 81 97 96 80 72 90 94 95 96 96 96 97 87 87 75 76 93 94 86 86 82 78 89 88 82 75 69 49 48 49 52 56 56
87 91 96 97 98 98 98 95 62 75 87 93 96 95 78 74 85 95 96 96 96 92 92 86 95 83 92 92 98 97 92 89 81 75 70 69 60 63 69 66 58 54 54 62
94 95 96 96 97 97 86 71 63 91 95 98 96 95 81 69 79 96 95 94 96 97 96 89 89 99 93 95 84 76 69 75 85 74 72 78 70 67 69 69 60 63 63 76
97 97 97 97 96 96 97 94 92 93 95 97 87 82 82 66 66 77 86 86 96 96 96 76 71 73 92 90 72 77 80 79 78 81 81 73 66 66 70 67 67 79 84 93
97 95 96 97 96 98 96 97 96 97 96 96 85 77 88 62 80 84 80 87 96 87 84 80 74 97 93 88 80 71 78 75 85 90 90 75 81 78 78 77 83 90 88 92
97 97 97 84 95 97 97 96 96 95 96 89 76 74 73 68 86 100 94 88 89 97 80 83 96 97 86 82 77 70 68 77 82 82 90 85 85 90 94 94 97 99 94 90
95 81 86 97 97 95 96 95 89 85 99 68 73 78 85 74 83 96 92 88 82 97 88 85 99 94 68 61 64 66 74 83 93 94 89 88 90 94 94 96 97 98 98 98
96 91 93 90 96 92 89 91 87 82 58 53 56 76 76 70 72 81 94 92 88 90 98 97 94 71 63 63 70 74 77 86 87 87 89 92 94 94 96 95 95 97 98 98
94 86 82 79 83 74 78 86 78 62 58 68 71 68 67 65 68 70 96 92 96 100 100 100 73 76 76 78 79 84 88 90 90 90 91 92 93 95 95 96 95 95 96 95
65 66 61 69 66 68 64 68 68 71 83 86 98 96 96 92 96 94 95 96 100 96 99 90 82 90 91 93 94 94 93 92 93 95 94 95 96 96 96 95 94 94 95 95
72 66 71 74 76 80 82 78 79 82 90 97 97 96 96 96 97 98 99 98 99 99 90 93 93 92 96 97 97 96 96 96 95 94 95 95 95 95 95 94 94 96 96 95
65 70 78 83 89 95 96 95 95 97 98 96 96 92 94 95 90 90 86 97 90 92 92 97 99 100 98 98 97 97 97 97 96 96 95 96 96 96 95 94 86 67 46 34

GFSNW_700_rhum_060.txt.gz
RH
33 25 52 58 95 94 96 91 71 57 98 48 74 91 98 78 60 52 49 59 58 53 52 49 49 48 52 69 66 91 75 53 47 62 52 42 44 46 49 59 62 45 44 45
42 34 31 86 94 97 81 81 87 66 99 97 93 96 94 84 74 60 57 56 54 51 48 48 49 51 55 63 64 94 93 66 58 50 57 68 52 53 47 53 81 99 71 64
45 60 78 95 94 94 77 97 87 81 74 76 100 99 90 85 71 68 67 53 52 47 48 52 54 53 58 62 62 67 94 96 79 53 67 94 79 51 59 65 93 96 94 68
60 99 98 99 90 94 86 98 84 80 96 96 96 99 97 94 72 78 66 65 54 50 53 48 49 48 49 55 62 64 76 97 90 73 68 50 67 65 54 58 76 94 67 62
100 99 98 96 88 94 84 93 80 94 90 87 97 92 87 90 94 76 70 60 54 55 52 56 54 58 66 64 70 80 92 92 93 85 76 58 51 62 92 68 44 46 58 56
87 97 98 96 89 96 86 91 78 99 71 77 93 95 88 72 74 90 81 90 68 60 87 91 79 87 87 86 92 94 93 95 94 87 83 66 53 50 57 72 43 40 40 38
87 90 91 95 96 95 87 80 96 100 58 95 96 87 93 91 82 64 67 86 94 85 91 95 98 85 90 88 82 84 86 81 96 93 96 78 48 42 41 46 44 44 44 46
91 87 90 90 90 98 94 87 87 90 76 98 98 94 96 92 87 88 89 92 90 81 89 89 86 73 79 83 82 70 84 78 89 97 81 89 62 45 39 40 43 40 37 39
99 87 82 93 88 92 96 93 86 91 93 83 94 97 98 95 98 98 91 92 84 79 93 89 91 67 61 57 69 66 80 81 80 75 78 83 47 57 53 40 37 38 50 59
95 91 58 75 90 92 91 89 86 94 97 86 92 92 97 97 97 90 87 94 85 77 77 86 92 78 71 76 72 77 78 90 83 81 78 63 45 43 46 46 71 69 74 79
97 97 95 46 75 86 83 79 89 98 86 68 71 97 96 96 90 94 89 96 85 73 78 100 88 88 76 81 88 91 78 88 87 76 70 64 46 54 54 76 87 83 90 95
95 96 96 85 51 79 85 84 86 93 90 71 72 64 66 97 96 96 96 93 97 94 79 89 84 91 83 82 76 87 93 74 70 61 61 67 64 69 82 100 90 87 87 63
96 95 97 87 48 68 71 73 87 96 95 84 74 50 49 70 74 83 97 82 91 93 97 95 93 94 85 91 76 88 86 88 67 84 61 58 86 99 85 84 88 73 56 46
97 95 96 72 52 68 72 72 80 96 94 83 50 60 49 47 47 54 70 76 96 96 97 97 88 82 87 86 88 81 98 95 86 85 97 85 94 98 91 74 68 63 49 39
81 75 80 44 62 73 73 76 77 78 76 93 89 64 53 55 64 74 90 91 87 94 97 97 91 89 86 94 82 70 94 97 98 98 98 98 97 99 93 83 74 50 40 43
47 36 39 50 68 76 85 94 84 82 90 95 91 92 89 85 92 93 88 88 96 97 94 97 95 88 92 82 79 97 95 97 80 81 90 94 94 88 75 66 57 46 40 42
51 35 36 60 82 83 91 84 69 69 93 97 93 74 88 94 93 95 94 95 95 98 98 90 84 95 93 86 88 94 93 97 83 80 72 66 59 61 55 51 51 52 51 47
64 68 74 84 98 100 95 94 84 74 85 96 92 86 98 77 93 97 95 96 95 94 95 89 94 84 97 94 97 92 83 80 71 62 61 58 60 58 56 55 56 55 57 54
83 91 97 97 98 96 86 98 96 92 79 94 88 95 94 76 91 94 96 96 96 96 96 94 91 94 94 86 77 72 69 65 60 70 72 72 67 66 63 61 61 61 63 62
97 96 97 98 96 86 96 97 96 94 88 80 92 81 96 77 73 74 80 89 90 79 71 78 90 83 73 66 76 74 64 68 71 73 64 71 76 76 71 69 70 73 78 78
96 97 96 88 96 97 97 96 96 96 96 86 84 85 85 92 87 80 85 94 91 91 86 79 94 95 82 70 61 68 75 75 76 68 73 79 82 79 71 73 80 85 83 86
91 88 81 96 97 91 95 92 90 90 84 85 85 92 96 83 82 95 95 92 87 99 92 90 98 90 78 67 65 69 75 74 71 69 73 80 84 83 83 88 88 90 93 97
95 93 94 95 88 97 96 92 90 99 80 72 72 88 87 76 70 81 92 90 91 85 100 98 90 76 75 67 67 68 70 74 76 81 81 82 85 89 92 92 93 95 95 97
97 92 90 91 83 77 88 89 77 60 55 65 63 78 85 79 68 68 97 94 96 99 99 99 79 75 78 75 73 78 82 83 86 86 85 86 90 91 94 94 95 95 98 98
85 66 56 70 66 66 67 70 62 62 63 68 77 79 88 77 72 71 73 94 97 96 98 95 87 87 89 92 94 92 95 95 92 91 92 93 94 96 96 96 96 96 96 96
65 60 60 61 68 68 62 71 75 73 82 94 99 97 96 97 83 96 98 98 98 99 87 91 95 97 94 95 98 98 98 97 98 96 97 97 96 96 97 96 95 95 94 90
68 65 70 70 71 84 87 82 82 86 89 96 96 97 96 95 100 97 97 99 89 85 86 92 97 99 98 97 97 97 97 98 97 97 96 96 96 96 96 93 80 62 48 42

GFSNW_700_rhum_063.txt.gz
RH
16 22 32 35 86 67 86 78 74 66 78 80 79 61 33 33 15 54 68 54 56 58 57 55 49 48 60 74 64 59 78 82 61 45 43 49 66 61 77 99 86 65 54 62
41 30 44 43 49 79 97 90 67 62 98 97 90 59 50 58 43 38 69 69 58 51 53 53 48 49 50 68 59 57 69 82 74 62 56 51 60 52 85 88 78 95 99 64
17 34 52 89 81 87 99 97 90 71 70 74 96 99 91 84 72 50 69 77 63 60 54 50 50 54 63 68 69 66 59 67 96 90 85 93 73 74 67 85 95 90 91 79
19 39 67 79 90 90 99 91 99 89 97 75 47 84 81 88 91 85 69 58 66 67 65 51 53 51 49 49 50 56 71 66 73 95 89 91 98 89 78 89 88 99 89 95
85 94 94 80 96 96 100 100 94 70 78 78 95 96 74 76 51 97 87 81 62 61 66 56 52 63 66 65 76 82 82 83 92 80 75 75 88 85 79 95 86 95 92 99
74 85 94 91 91 96 98 92 75 89 84 80 70 63 95 88 90 68 92 93 84 65 67 80 60 68 66 65 77 92 87 95 91 94 86 79 67 55 63 65 72 92 97 85
76 89 83 83 93 97 86 79 94 91 64 76 65 81 77 97 88 94 82 94 96 84 74 76 69 63 78 67 62 72 90 86 88 79 67 95 61 46 50 50 78 80 64 72
89 78 90 78 83 89 99 95 98 98 96 83 60 55 73 86 94 99 86 94 82 81 92 92 78 76 60 47 52 46 46 51 79 65 87 74 54 49 40 61 58 48 48 51
100 97 85 86 68 82 99 96 98 97 86 66 80 90 88 95 93 80 84 87 92 85 83 82 82 75 61 60 65 50 31 60 80 85 80 90 74 66 46 43 60 57 52 54
92 94 94 91 75 77 92 90 99 98 93 64 85 81 90 91 96 97 95 96 91 83 67 68 82 83 68 72 66 67 80 85 88 89 88 75 63 81 80 53 89 80 64 67
92 96 96 94 77 74 89 84 96 97 90 69 74 88 97 98 94 96 97 92 94 87 80 76 73 74 63 75 72 79 96 92 96 90 86 83 55 60 67 62 76 79 69 71
85 93 97 98 97 80 91 86 95 98 97 76 60 66 72 73 73 89 91 96 97 92 96 86 93 81 60 80 87 90 91 90 86 76 66 64 58 49 62 57 53 76 74 73
96 95 92 97 97 96 62 77 92 96 93 80 77 46 52 60 59 68 79 92 97 96 94 95 96 92 84 82 83 78 88 95 95 80 77 62 78 98 99 82 77 87 87 83
96 96 96 96 96 98 54 63 81 86 100 89 48 62 58 53 53 57 76 77 88 94 96 93 90 97 90 87 78 84 88 89 88 84 97 87 88 94 98 98 96 82 73 52
94 96 95 96 98 81 52 67 78 82 94 94 76 57 49 54 47 49 63 52 51 72 94 95 93 97 95 88 86 93 99 94 98 99 98 98 98 97 96 92 91 66 59 48
95 92 93 96 90 73 91 93 69 75 97 99 80 79 98 55 42 40 45 48 63 80 91 98 83 97 97 92 91 100 99 97 99 94 94 96 95 92 90 88 71 52 49 51
76 62 82 78 47 51 48 60 59 66 95 98 94 82 82 93 67 61 70 88 74 79 96 82 75 77 96 98 99 100 96 86 97 97 98 100 84 80 77 68 61 57 56 54
39 37 39 43 59 75 76 83 92 80 86 96 95 84 93 96 93 95 91 92 85 95 99 86 77 85 84 97 87 83 98 95 80 73 68 69 68 64 74 69 62 61 58 55
34 40 81 95 83 66 65 91 94 91 83 84 76 78 96 95 96 96 94 97 96 96 94 92 91 88 94 91 80 69 64 68 70 72 74 74 70 70 77 79 72 67 62 60
90 84 84 85 62 74 92 96 98 98 100 95 76 71 92 97 96 92 95 96 96 96 89 94 99 93 83 76 62 52 52 71 75 66 68 75 66 66 73 69 61 60 59 61
87 92 98 83 86 96 98 97 96 92 80 69 54 59 73 97 96 96 94 94 95 92 85 82 100 91 68 58 54 61 66 61 62 68 67 66 60 63 69 73 71 68 70 79
91 94 83 94 96 96 96 90 84 88 76 78 67 67 75 95 96 93 93 94 93 95 97 95 95 79 78 77 73 67 71 70 66 63 63 67 69 70 70 74 79 83 86 89
94 96 97 96 94 91 95 83 82 86 86 85 86 91 97 96 86 80 90 96 96 95 97 96 91 76 75 76 81 72 72 71 70 72 77 78 76 79 82 84 84 86 86 88
96 93 86 90 71 94 92 83 70 54 62 67 76 92 87 78 69 65 77 92 97 99 98 91 79 77 84 85 84 82 81 84 87 89 89 89 89 86 86 85 86 85 87 89
94 78 84 78 64 70 76 73 74 58 53 67 81 86 91 86 66 63 61 92 98 98 97 89 91 94 92 90 94 95 95 97 98 95 93 92 90 88 91 89 88 88 88 89
64 58 59 61 66 60 59 74 82 74 64 67 81 86 80 80 61 97 100 100 96 90 84 90 94 96 99 99 98 98 98 97 96 95 95 96 95 94 94 91 90 88 83 70
62 61 60 53 62 66 57 75 87 93 96 100 98 98 97 97 96 100 98 90 82 84 90 94 97 99 100 99 98 97 97 97 96 96 96 96 95 95 93 86 75 64 57 51

GFSNW_700_rhum_066.txt.gz
RH
6 6 8 12 20 38 64 65 62 57 100 86 88 94 19 9 9 18 31 33 70 64 57 56 53 54 56 62 68 60 90 88 84 66 45 48 84 92 98 98 89 94 97 97
6 7 10 18 36 58 70 79 63 65 94 97 84 55 47 54 47 36 43 56 89 64 63 59 58 53 64 60 59 59 59 85 82 59 50 50 53 78 84 92 99 95 96 91
6 7 26 26 54 96 88 93 92 66 67 79 96 96 97 85 82 78 73 55 73 72 65 60 59 53 62 68 69 54 52 61 61 84 97 96 83 94 92 99 99 92 84 87
7 12 21 32 93 85 98 100 90 77 82 92 93 94 84 92 94 94 97 80 79 68 65 66 62 59 54 56 59 56 60 62 65 63 56 82 92 98 94 100 93 92 77 77
65 96 100 77 89 89 100 94 87 80 67 83 95 94 86 89 85 62 67 96 88 79 76 74 70 73 63 64 67 78 75 75 88 69 86 86 80 82 96 98 99 99 89 83
90 96 70 74 89 91 98 95 87 88 72 78 95 87 91 95 97 91 86 83 95 84 76 77 77 82 67 60 62 74 84 95 80 77 67 61 71 68 71 87 99 99 98 98
33 44 67 77 86 94 94 97 98 99 78 80 66 78 83 76 90 95 79 85 96 84 86 89 85 82 77 66 58 65 73 86 87 87 67 79 63 64 60 70 90 92 92 94
45 88 72 88 75 76 96 95 99 94 86 98 91 84 77 64 57 81 70 84 91 89 81 86 88 73 68 59 51 51 51 56 70 69 66 53 33 52 66 78 91 74 91 99
72 90 90 86 92 82 77 91 99 99 90 72 78 77 68 69 58 82 93 88 88 94 96 92 86 70 71 66 65 66 59 53 67 79 84 86 60 70 77 74 96 90 66 96
70 74 84 91 88 90 86 78 96 100 97 80 85 73 68 90 78 70 93 83 91 98 85 63 71 73 73 66 61 59 70 90 87 88 88 62 43 61 73 73 98 99 82 94
67 74 81 82 88 92 77 76 87 96 96 83 77 77 63 91 96 97 89 97 97 92 83 75 67 68 60 57 48 68 76 88 96 93 92 82 46 69 71 97 99 98 99 93
64 72 80 88 96 97 93 55 78 96 100 89 76 66 64 77 80 88 78 90 95 97 93 87 92 87 78 58 67 90 95 88 93 80 78 81 82 54 66 78 91 97 99 97
78 80 84 88 93 97 96 82 72 94 99 86 69 48 60 58 62 76 71 75 95 96 98 96 95 90 90 81 86 92 96 97 95 93 91 84 76 87 73 100 99 98 98 89
95 95 96 97 97 97 97 92 75 94 96 79 53 68 56 52 52 54 54 59 82 92 94 95 87 86 86 92 93 97 97 90 95 98 93 87 93 88 94 98 99 99 88 86
96 96 96 96 96 97 96 98 72 88 85 95 96 61 57 56 56 58 45 49 62 63 60 66 79 96 95 98 97 96 97 96 91 98 98 97 98 100 98 97 98 91 77 60
94 96 97 96 92 95 95 89 54 77 78 90 81 65 72 67 51 49 45 44 58 57 51 59 64 95 96 97 97 96 98 95 97 97 98 95 93 93 93 79 86 92 66 51
97 96 96 93 93 88 76 38 45 60 81 99 87 67 64 69 54 44 48 52 53 50 58 71 70 85 96 97 99 94 88 95 95 93 96 96 94 82 76 84 83 74 54 53
98 77 88 100 100 85 54 59 58 55 70 86 88 80 84 84 67 49 55 85 83 81 82 76 83 86 94 90 95 95 94 95 84 85 86 84 86 75 64 63 70 73 69 60
55 91 100 85 60 50 70 94 86 73 75 89 82 88 93 96 97 91 86 90 97 96 89 84 96 98 97 94 96 92 89 91 86 77 70 73 69 71 71 71 74 70 68 61
37 46 60 56 52 65 96 98 100 97 100 96 88 75 90 95 97 97 95 97 96 93 88 90 97 98 88 85 83 79 79 90 80 87 89 77 71 72 75 76 79 79 77 76
39 54 67 53 74 78 88 85 86 97 85 74 59 59 74 91 97 95 93 89 94 85 89 99 98 88 71 72 78 88 92 94 99 100 95 87 81 79 80 81 79 78 81 86
36 77 70 87 92 89 96 96 89 72 66 82 79 62 54 63 95 92 86 92 93 96 97 95 96 79 76 77 86 89 82 79 79 76 77 75 76 81 85 89 91 92 94 96
88 76 85 88 89 98 94 80 68 72 74 74 74 75 80 90 97 85 91 97 95 90 97 96 84 74 80 84 88 89 85 78 76 76 77 82 90 92 91 91 91 91 90 91
94 90 93 94 80 90 97 78 60 57 68 74 90 100 99 89 76 71 72 85 94 94 97 88 76 79 80 82 82 84 84 84 85 89 93 95 95 92 90 89 90 88 92 92
89 79 68 77 64 80 77 87 67 58 66 85 96 96 89 77 67 61 61 96 99 97 91 84 82 82 84 85 86 90 96 98 98 98 96 96 96 95 94 91 91 91 94 93
79 78 72 66 55 57 78 84 88 72 63 88 99 93 86 79 67 86 97 100 90 83 80 78 81 86 91 94 95 96 96 96 96 96 96 97 97 96 96 96 97 95 85 66
65 57 60 60 60 58 64 78 91 75 74 88 86 82 87 82 84 87 88 85 76 81 84 88 90 92 95 96 96 97 97 97 98 97 97 97 97 97 97 96 94 74 60 54

GFSNW_700_rhum_069.txt.gz
RH
8 8 6 6 5 7 11 18 27 41 56 97 71 41 38 52 57 41 32 19 20 28 79 64 73 63 72 90 72 90 96 95 86 66 56 60 64 84 99 98 99 94 99 93
8 6 6 6 6 13 25 36 37 66 75 76 96 95 84 87 81 52 67 66 89 92 76 90 71 74 79 75 63 61 61 86 85 60 56 68 77 78 92 98 97 90 97 91
7 6 6 6 11 34 60 78 72 68 72 73 72 93 91 91 97 93 92 98 73 61 90 93 92 80 71 84 77 65 59 58 60 76 75 92 87 93 99 99 99 94 92 91
6 6 6 7 15 72 76 96 85 88 94 93 96 96 95 96 92 94 94 90 100 99 90 88 90 70 91 75 62 60 59 59 60 53 55 67 79 72 92 98 99 98 68 72
6 6 9 31 65 80 93 97 99 87 86 85 83 91 90 97 95 97 95 96 86 97 98 92 94 76 66 70 65 70 68 68 81 59 61 83 72 70 81 81 99 98 94 82
7 23 45 61 76 85 94 92 99 94 89 86 89 75 79 92 95 73 89 94 91 85 88 85 89 80 70 77 71 68 74 76 84 71 71 57 47 66 72 79 78 79 99 86
6 14 46 45 64 84 98 95 100 96 98 95 82 76 70 78 74 67 66 95 87 64 95 84 90 81 69 75 74 69 63 66 84 80 68 76 46 59 66 71 76 93 82 84
6 12 34 43 77 91 80 99 100 96 94 90 84 88 88 85 71 52 74 99 92 68 96 96 92 80 75 61 55 51 45 48 70 70 60 53 37 77 63 90 84 94 84 98
23 46 85 90 82 84 86 79 91 98 95 78 84 82 79 76 71 51 67 93 92 96 96 99 81 73 60 55 57 67 55 60 80 74 80 82 66 54 77 69 92 85 86 99
39 57 77 88 86 81 83 79 86 85 94 83 92 73 75 71 77 95 88 72 96 97 90 88 73 75 69 58 58 57 62 73 83 83 87 64 38 37 67 66 77 76 86 96
60 60 68 76 88 92 81 69 78 85 85 79 85 76 75 68 74 98 94 87 95 100 95 87 69 63 62 63 55 59 68 80 92 100 92 85 34 33 61 69 67 87 95 100
56 58 63 72 80 88 100 76 63 78 93 72 74 71 63 60 61 82 82 96 95 96 96 95 92 94 89 75 76 60 71 94 94 79 83 70 74 78 64 67 76 99 99 100
61 59 61 68 78 90 98 94 88 82 85 75 70 54 63 61 65 69 74 90 91 96 96 97 98 95 98 88 91 82 87 95 96 98 98 84 81 77 78 94 76 68 76 98
88 84 86 95 96 97 97 95 93 97 85 93 57 70 55 56 56 53 66 60 87 94 93 96 99 87 99 98 95 94 98 92 90 98 98 99 100 100 92 98 99 99 98 95
94 93 97 95 96 97 97 96 97 97 91 86 75 60 60 65 50 55 57 51 71 60 91 67 62 67 97 92 98 97 95 84 91 96 97 98 100 98 100 99 98 96 97 94
96 97 89 96 96 98 96 98 97 95 70 82 76 85 82 68 57 60 52 54 54 62 80 82 52 82 96 96 97 97 91 88 96 98 97 96 97 94 97 96 96 97 95 97
96 96 94 88 93 97 97 92 73 82 61 87 82 80 78 83 95 69 55 44 45 56 85 65 42 69 96 96 96 97 92 95 96 97 96 95 96 94 90 89 76 77 78 80
98 98 96 95 94 95 94 82 40 41 70 80 87 75 76 93 91 79 66 51 54 73 93 60 60 79 86 100 93 92 95 96 93 88 85 83 86 84 78 77 76 76 77 74
96 96 99 96 98 97 90 64 54 60 72 81 67 67 80 95 95 92 67 65 82 79 72 77 86 93 93 95 91 92 81 74 70 68 77 81 77 74 72 72 68 73 79 74
92 74 100 100 98 98 96 100 93 83 71 65 66 84 92 94 98 93 99 91 86 98 80 90 98 95 78 79 90 92 89 84 82 80 72 82 82 77 75 71 67 71 76 78
84 92 94 73 62 98 94 95 91 94 86 77 70 83 95 95 96 96 97 88 96 94 98 96 97 94 86 85 85 90 94 94 87 80 78 77 75 75 72 73 74 76 78 81
69 50 38 64 93 92 80 86 81 86 76 69 79 77 60 92 96 97 92 91 89 96 93 97 97 84 82 84 87 90 95 94 85 82 79 76 75 76 79 85 86 85 87 90
90 53 75 81 84 80 89 82 68 66 68 60 86 75 65 93 98 94 92 93 92 96 97 95 85 77 83 84 84 86 86 86 86 86 86 86 89 92 94 92 91 90 88 88
82 77 74 75 78 88 83 60 46 46 64 76 100 94 100 94 81 72 70 91 97 99 97 90 83 80 81 82 82 83 83 85 88 90 94 97 98 98 97 96 96 94 96 97
82 74 64 68 66 78 76 87 60 56 82 100 100 97 87 80 67 62 61 94 99 94 93 85 83 84 84 86 88 89 91 94 95 96 97 98 98 98 98 98 98 96 96 96
81 70 66 65 71 81 88 88 78 76 100 100 98 98 89 78 68 64 56 70 81 86 82 78 77 78 81 86 91 95 98 99 98 99 98 98 98 98 98 97 97 97 96 94
74 72 64 63 67 72 76 82 95 84 84 87 84 74 63 62 63 64 72 76 70 76 79 83 88 89 92 94 96 98 97 97 97 97 97 97 97 96 96 97 96 94 77 60

GFSNW_700_rhum_072.txt.gz
RH
9 10 10 10 9 7 6 5 10 21 23 37 71 76 87 74 54 63 57 46 33 27 44 53 82 85 80 88 85 91 80 84 88 68 60 72 70 70 73 98 99 94 99 98
10 10 10 8 6 5 5 9 18 30 47 63 76 87 91 96 77 73 70 71 71 95 94 89 71 74 96 98 87 97 78 95 82 57 77 90 91 88 87 91 98 99 97 91
10 10 8 6 5 5 8 19 42 52 77 78 90 98 77 91 89 88 93 88 84 60 77 95 89 87 94 99 92 82 66 62 54 60 56 68 64 81 89 96 99 98 91 88
10 8 7 6 6 8 13 41 57 63 76 92 90 91 89 87 94 94 92 96 100 99 92 56 83 64 84 81 95 75 64 58 55 50 54 65 80 79 61 85 77 98 98 96
9 7 6 7 17 29 41 53 62 76 83 84 80 81 76 88 98 93 90 95 96 97 96 91 100 98 82 95 81 88 73 67 68 53 60 73 76 57 51 62 78 92 68 68
8 7 8 16 37 62 66 74 89 98 98 94 90 79 76 73 85 75 83 83 91 80 93 86 91 92 92 91 97 87 75 73 74 65 56 46 37 61 63 71 80 75 81 70
7 6 7 51 74 89 70 78 97 100 99 96 85 79 77 72 75 73 57 59 96 95 96 79 76 85 94 95 80 75 69 64 62 70 54 73 32 57 57 69 82 77 77 76
7 5 7 16 32 87 82 86 89 96 94 90 78 80 80 94 75 62 48 59 93 90 94 88 88 83 77 70 62 57 63 69 62 63 62 50 30 63 80 82 66 73 88 93
6 7 24 55 85 90 80 87 85 85 91 83 83 79 74 78 66 50 82 76 73 83 88 98 92 75 67 57 57 44 46 75 89 84 82 83 39 66 50 59 49 72 88 94
5 17 57 83 100 93 84 83 94 91 80 72 80 71 76 74 72 63 88 71 77 85 97 96 89 70 64 62 67 76 74 78 84 80 88 66 39 29 37 59 48 66 72 89
6 35 47 63 77 90 83 81 85 85 77 63 69 78 78 73 73 72 80 78 91 91 95 94 81 68 73 66 61 60 56 68 81 99 95 84 51 46 44 53 52 81 97 96
29 60 57 61 65 89 97 75 87 91 70 51 60 69 65 64 76 64 64 79 89 96 95 95 99 98 94 78 71 60 67 71 83 90 82 63 62 77 76 75 67 62 87 99
58 58 54 54 63 72 81 86 92 100 100 68 55 40 61 83 68 76 53 72 91 96 96 97 98 95 96 91 91 88 83 88 97 98 92 81 78 76 81 84 81 92 89 79
65 58 56 55 60 68 94 88 87 99 99 93 64 56 62 59 57 54 64 70 81 94 96 98 96 90 92 88 96 90 92 96 97 99 99 99 100 100 98 99 100 100 99 99
72 81 86 81 89 96 97 97 89 97 97 91 73 52 49 63 60 54 54 64 68 91 93 97 89 84 96 96 91 99 97 96 96 97 99 100 97 98 98 97 98 98 98 96
89 90 91 92 97 97 97 96 93 97 97 98 94 72 63 60 59 53 54 59 54 73 96 99 75 86 96 96 96 96 96 100 98 97 97 97 97 98 97 97 97 100 99 97
96 95 100 96 95 97 97 96 94 94 97 96 61 54 73 72 53 57 57 54 50 67 70 56 63 67 98 96 96 95 100 97 97 97 97 96 97 96 95 95 89 88 90 88
99 98 97 97 94 97 98 98 94 91 99 85 65 71 79 79 71 66 62 64 76 85 72 65 74 91 93 96 96 96 97 96 96 96 93 84 87 88 88 89 85 81 79 79
96 94 96 93 97 96 95 96 54 69 85 70 62 66 75 90 86 85 96 88 88 76 73 70 87 92 91 90 97 100 97 91 86 82 72 71 75 80 86 83 80 78 74 73
97 97 95 98 98 96 77 58 55 61 64 65 57 71 88 95 96 94 86 68 68 90 64 71 90 100 80 80 79 93 84 81 80 79 77 74 67 75 79 79 77 74 74 76
96 95 92 95 94 90 79 80 74 70 74 69 72 89 99 97 96 98 95 95 89 88 98 98 99 89 86 80 79 80 81 83 84 83 79 76 78 79 79 78 75 74 81 84
92 87 88 97 87 87 83 84 84 79 80 72 86 94 93 96 94 96 95 96 96 97 100 98 96 77 78 79 81 84 85 84 83 85 84 84 82 80 78 77 78 84 86 88
85 96 90 86 91 99 79 86 65 67 64 73 94 93 96 96 98 97 92 94 96 94 98 95 76 71 78 84 84 85 87 89 89 88 89 88 87 84 81 84 88 90 92 95
75 53 70 79 69 58 58 64 56 51 62 70 97 83 94 89 85 84 80 96 94 98 92 84 81 78 76 80 82 82 83 83 82 83 86 88 91 92 94 95 96 96 97 96
75 73 56 62 68 75 68 64 54 53 78 100 100 97 96 89 69 65 68 90 95 94 89 81 79 80 78 80 82 85 90 94 97 99 99 97 97 97 97 97 96 95 95 94
72 58 50 63 73 78 76 80 59 72 100 96 100 94 86 74 66 60 57 75 78 85 83 84 81 80 84 88 90 93 94 94 95 96 96 96 96 96 96 97 97 96 96 95
68 70 68 69 69 75 79 88 92 98 100 100 90 82 78 66 61 58 65 64 62 72 74 77 82 89 90 92 94 95 96 97 96 97 96 96 96 96 96 96 96 96 91 74

GFSNW_700_rhum_075.txt.gz
RH
8 9 9 9 9 10 10 8 5 8 6 10 22 32 64 60 63 69 60 44 30 31 45 63 65 42 90 94 99 95 83 70 70 67 69 69 75 87 88 98 93 97 98 84
9 9 9 10 10 11 8 5 5 9 14 22 47 49 49 68 79 73 76 68 63 90 89 82 50 59 50 97 98 99 100 98 98 88 92 87 87 94 99 99 98 99 94 93
9 9 10 10 11 9 5 6 10 19 29 47 65 74 87 73 92 90 97 94 77 93 72 74 74 67 86 85 97 100 96 89 93 78 62 55 56 45 61 86 97 96 97 99
10 10 10 10 9 6 6 11 20 26 55 87 88 71 67 77 81 87 84 97 95 96 96 71 57 73 72 62 76 97 98 91 92 68 52 52 59 59 60 58 58 84 66 69
10 10 10 9 7 6 8 12 21 39 64 77 74 69 67 69 75 89 75 89 89 93 100 97 97 100 99 80 70 95 98 95 93 62 62 67 63 47 50 59 68 66 65 61
10 10 10 8 6 7 11 27 42 56 74 86 76 71 72 66 62 65 73 69 62 77 99 94 97 89 92 94 85 94 96 94 77 67 53 43 35 41 63 60 62 78 98 86
10 10 8 6 6 15 30 40 67 96 93 90 81 75 72 64 66 64 60 58 56 74 81 80 83 72 70 95 92 83 96 92 70 68 52 51 33 43 46 75 76 77 76 94
10 9 7 6 7 34 56 62 77 83 82 82 72 73 70 69 74 69 59 69 74 67 66 80 75 72 66 68 88 96 88 88 72 63 70 46 30 60 72 77 49 38 66 96
10 8 7 6 26 52 80 72 83 83 80 67 70 72 74 66 63 54 53 70 83 76 80 90 95 89 71 63 70 58 64 77 81 79 80 64 45 71 55 50 50 90 69 71
10 8 7 17 53 73 78 76 81 82 74 63 61 60 70 72 72 65 50 68 66 87 98 95 96 84 55 59 59 60 67 78 92 94 87 69 46 37 39 50 48 40 50 72
9 7 8 39 67 71 72 80 73 70 57 55 45 43 57 69 76 70 55 66 69 81 93 96 97 88 78 65 67 70 63 63 77 100 95 82 60 61 51 52 44 40 45 63
9 6 10 42 54 70 63 70 82 84 68 60 52 50 54 60 64 64 56 64 80 96 95 94 93 96 92 75 67 68 68 78 91 86 81 65 70 72 77 78 68 100 94 93
9 6 34 59 55 69 76 72 86 89 85 62 59 66 44 42 59 66 46 60 71 95 100 97 98 96 96 96 87 90 87 72 76 81 96 92 87 83 96 100 98 97 100 92
8 11 63 61 58 73 84 64 75 89 91 87 65 65 65 56 50 54 51 67 68 82 95 96 99 95 95 91 98 93 84 90 96 97 98 97 97 100 95 95 92 94 100 99
7 44 65 58 56 60 78 100 95 97 97 90 73 63 74 55 54 52 53 59 68 78 90 93 96 95 100 91 93 94 100 97 96 97 98 97 97 99 98 98 98 97 97 96
14 68 77 86 83 96 98 95 85 87 98 98 95 80 81 69 51 56 55 58 63 68 87 96 88 94 98 98 93 95 99 96 97 97 98 98 97 98 98 98 98 99 97 99
68 88 94 97 97 98 98 97 91 95 97 97 96 86 65 78 61 58 62 60 66 74 72 61 59 69 100 100 96 97 96 96 96 97 96 96 96 96 97 97 96 95 93 94
93 98 97 94 91 94 97 97 99 98 97 98 94 58 65 70 67 67 64 65 74 74 60 58 57 76 87 97 96 97 96 96 96 96 96 96 95 95 92 90 85 81 77 74
97 93 97 98 97 92 92 98 97 96 98 96 67 51 60 71 71 71 71 84 86 70 54 57 68 72 96 89 96 96 96 96 95 94 87 80 76 74 78 84 83 78 73 69
91 96 98 99 97 98 95 78 74 98 90 58 41 42 51 77 92 88 91 99 92 68 52 53 79 90 75 78 93 87 92 91 84 84 85 87 86 78 75 75 82 80 78 77
97 97 95 94 96 89 69 54 55 51 48 41 36 44 53 80 94 98 90 95 75 69 76 95 98 88 77 84 83 80 75 76 81 83 84 83 78 77 80 79 80 79 77 80
96 95 90 93 83 78 84 66 73 58 60 72 72 84 89 91 94 95 91 93 96 98 97 97 96 78 80 80 83 86 86 85 83 82 83 85 85 86 84 80 78 80 86 90
97 98 96 85 79 83 75 66 61 64 71 79 96 97 97 95 96 96 97 97 97 94 97 96 88 82 80 78 83 86 85 85 86 87 89 89 89 90 90 92 94 96 98 99
98 90 80 56 60 58 62 53 55 58 70 90 97 95 96 97 98 96 96 96 97 100 98 97 92 86 84 83 84 82 82 82 82 83 86 91 96 98 98 98 98 99 99 99
80 50 43 54 50 51 55 59 54 55 66 90 97 95 96 95 81 67 71 91 95 93 95 89 86 85 84 83 82 83 84 87 88 89 91 92 94 95 96 96 97 98 99 100
57 50 39 51 65 71 64 53 51 53 80 99 98 93 88 80 69 63 59 75 80 86 87 84 84 82 81 84 88 88 91 91 92 93 94 95 96 95 95 95 95 96 96 96
67 67 55 76 74 81 71 69 51 72 90 91 90 83 82 72 69 56 58 60 62 59 66 71 74 84 90 91 93 94 93 92 92 92 94 94 95 95 96 96 96 96 95 86

GFSNW_700_rhum_078.txt.gz
RH
7 8 8 7 8 8 9 10 7 6 4 6 8 32 17 28 46 50 59 54 81 65 58 44 44 42 62 90 94 95 85 84 63 54 59 72 68 70 87 75 74 95 94 74
8 8 8 7 8 10 10 8 6 6 6 11 25 28 29 38 65 96 100 100 96 84 75 70 56 52 51 67 77 98 98 96 69 59 82 86 80 86 88 97 98 94 91 87
8 8 8 8 9 10 9 6 6 9 13 15 27 38 49 73 68 73 79 89 93 97 95 90 72 63 76 53 88 80 98 97 76 43 87 83 84 79 84 87 84 69 64 82
9 9 9 8 9 10 7 6 8 10 30 66 44 41 49 56 58 56 62 82 91 93 98 93 87 73 60 68 90 62 78 97 90 98 74 95 65 58 57 68 66 66 44 47
9 9 9 9 10 8 6 7 10 16 27 36 49 52 81 72 92 62 82 70 98 94 100 100 95 96 96 91 90 79 85 97 95 94 78 82 67 56 45 52 62 60 62 65
10 10 10 10 10 7 6 13 17 17 30 67 70 96 96 60 59 66 74 80 57 84 85 73 82 82 78 71 94 93 94 97 94 75 75 62 48 44 51 54 55 76 76 80
10 10 10 10 8 6 18 30 27 22 76 95 88 66 60 59 66 86 78 62 96 84 48 49 48 56 66 68 66 95 96 96 94 64 56 43 56 56 61 65 69 91 86 87
10 10 10 9 7 7 34 34 30 29 68 83 73 53 54 54 66 71 57 64 84 51 48 62 83 80 88 76 37 89 84 96 92 58 49 41 39 82 81 83 71 56 86 82
10 10 10 8 6 20 41 32 38 39 44 72 49 51 55 91 100 87 54 53 70 68 75 89 97 89 60 51 73 76 89 94 98 75 52 46 72 77 58 63 61 65 60 52
11 10 10 8 8 37 42 33 34 40 44 37 41 74 88 68 77 78 58 44 63 72 99 99 98 97 70 48 57 62 72 98 89 68 58 56 67 49 52 56 80 67 41 36
11 10 10 8 17 42 41 41 40 44 50 42 33 36 45 60 61 88 62 58 74 86 100 100 94 96 97 78 68 72 72 78 84 76 73 63 63 64 79 78 67 67 71 58
11 11 9 7 31 44 49 51 54 52 55 59 55 57 42 39 47 50 48 57 70 99 94 96 97 96 100 98 70 70 79 90 95 88 95 79 67 68 72 73 98 94 96 84
16 11 9 7 34 48 50 64 59 61 58 60 58 65 62 47 40 46 45 54 64 97 98 96 97 96 93 100 99 95 93 73 73 75 75 69 87 83 81 94 98 90 94 96
14 11 8 12 55 54 56 56 72 72 75 76 68 72 60 60 44 43 47 53 59 78 89 98 98 97 96 97 96 99 94 89 100 100 99 95 97 99 93 90 98 96 98 97
12 10 8 49 69 76 99 95 74 83 90 96 73 67 68 82 68 46 43 45 58 66 74 97 100 98 94 97 94 95 92 96 98 98 97 96 97 96 95 96 98 96 97 98
12 9 24 68 70 76 100 90 73 71 92 98 96 81 90 86 66 48 53 51 57 66 71 92 94 85 94 96 97 92 93 90 92 95 96 97 97 96 96 96 98 98 99 99
10 9 65 80 83 100 92 78 70 96 97 97 97 91 76 78 64 55 52 55 57 64 69 86 90 88 83 94 97 95 98 96 96 96 97 98 97 96 96 97 97 96 94 90
11 58 91 96 98 96 96 90 98 97 98 97 95 91 66 49 62 67 62 66 70 74 83 94 89 80 84 92 97 96 97 96 96 96 96 96 96 95 96 95 90 83 80 75
71 98 98 98 98 99 92 97 97 97 97 99 91 70 68 66 72 70 74 70 79 65 86 91 64 96 84 82 95 96 95 95 95 96 96 86 80 77 78 74 77 79 76 74
97 97 98 97 96 97 96 95 100 99 98 97 72 52 62 69 81 76 80 86 82 100 90 77 92 100 65 69 85 93 97 96 96 88 87 85 82 78 74 70 71 74 73 72
94 97 97 96 96 93 93 73 77 81 74 63 46 42 48 57 87 92 78 88 79 91 95 86 98 100 72 75 69 76 82 87 83 83 83 82 80 78 80 82 81 81 82 82
94 99 96 96 95 82 62 45 42 43 48 47 41 37 42 50 73 84 80 80 94 98 94 97 100 74 79 84 88 92 91 88 87 86 85 86 88 88 89 89 89 88 89 91
98 97 96 93 76 69 71 51 51 58 50 63 65 72 83 81 83 84 96 88 96 94 97 99 86 82 81 79 84 88 91 89 87 85 84 83 84 86 89 91 92 93 94 94
96 94 87 64 50 50 56 46 48 54 63 77 91 96 94 93 94 96 96 96 96 96 98 96 83 84 85 84 82 82 80 80 82 84 86 91 95 97 97 96 96 96 96 97
92 68 62 44 40 52 53 51 52 67 88 94 96 96 96 96 96 92 93 96 96 96 95 87 83 83 82 81 81 83 85 87 89 91 93 95 95 96 96 96 96 96 96 96
74 48 40 40 53 51 51 58 58 65 83 98 97 96 96 94 76 68 64 78 88 83 81 85 86 82 81 84 88 89 88 90 91 92 93 94 96 96 98 98 98 97 97 97
56 58 40 53 58 57 59 57 57 64 94 98 92 86 86 77 71 59 53 54 57 63 67 69 69 72 77 85 89 92 92 92 92 91 92 92 92 92 93 94 94 94 89 75

GFSNW_700_rhum_081.txt.gz
RH
7 7 8 9 7 8 7 9 10 6 5 18 42 57 55 8 61 31 66 61 58 52 49 48 44 36 28 48 83 94 99 89 47 34 38 46 47 60 69 76 50 63 67 70
8 8 9 9 8 6 9 8 8 6 5 34 70 18 28 60 80 83 78 71 70 69 68 61 48 44 44 41 50 89 90 87 62 47 46 47 46 47 57 85 86 74 73 79
8 9 9 8 8 9 9 8 12 11 11 28 55 61 77 82 91 94 96 94 98 93 76 66 68 64 53 56 68 76 77 87 93 55 63 85 90 50 64 80 81 66 65 51
9 9 9 9 9 9 9 7 12 27 57 93 91 67 82 79 88 80 88 77 77 88 83 72 67 76 86 77 49 60 86 94 84 78 55 70 76 95 67 74 69 56 46 39
9 9 9 9 9 10 8 6 32 13 96 87 85 66 76 65 79 78 74 74 81 74 71 67 84 96 90 85 74 84 95 87 88 86 88 75 75 79 52 46 40 40 42 43
9 10 10 9 10 9 8 8 16 71 92 91 79 77 78 84 85 82 81 80 85 80 80 86 85 86 83 91 92 90 98 98 100 81 88 78 80 62 53 39 44 45 59 80
10 10 10 10 10 8 7 20 24 75 90 73 75 83 82 82 82 88 84 86 85 81 90 71 60 69 78 93 89 86 92 95 96 94 77 70 51 46 43 42 47 71 78 90
10 10 10 10 9 7 14 28 27 92 98 76 80 86 82 82 84 87 87 85 89 63 64 98 79 60 60 76 79 73 86 95 94 97 47 50 41 63 60 64 95 97 98 100
11 10 10 10 9 6 26 21 14 42 96 86 84 86 87 80 73 77 85 95 57 47 91 97 93 75 71 60 49 59 85 88 95 96 63 52 80 76 84 67 73 96 72 57
11 10 10 10 8 10 31 20 20 25 68 96 45 97 94 94 94 90 86 97 91 95 90 100 97 96 82 66 48 84 100 100 92 95 54 59 96 86 60 56 97 77 63 64
11 11 10 10 8 21 32 30 37 36 42 97 22 21 32 82 96 99 100 86 97 100 100 97 95 93 90 72 56 69 69 64 68 70 64 65 67 86 79 96 87 66 63 50
14 11 11 11 8 35 37 45 41 46 43 56 43 33 29 26 35 98 100 93 89 91 92 100 92 96 100 95 75 82 84 92 97 95 97 90 63 65 73 78 73 77 76 87
14 11 12 11 10 46 52 84 51 54 54 59 55 52 51 44 37 33 51 100 97 95 95 96 95 96 96 99 96 96 91 78 98 84 82 70 75 79 92 87 81 97 81 92
14 17 14 11 9 40 60 67 73 59 62 62 98 54 61 57 56 36 40 73 74 54 92 100 93 100 100 100 98 97 83 96 82 94 82 87 94 98 98 99 92 99 98 96
19 25 15 10 9 45 79 95 81 71 72 96 98 62 59 67 68 55 38 42 48 92 90 93 96 100 94 96 98 89 81 84 87 96 93 93 95 96 97 98 97 98 96 96
31 30 14 10 26 88 100 90 65 60 66 88 91 88 68 77 80 84 42 48 48 54 59 81 90 96 100 100 98 89 87 86 84 86 92 96 96 96 96 96 97 96 95 95
28 18 11 15 72 100 89 88 88 78 92 98 95 99 85 63 68 79 74 66 54 60 69 98 93 93 99 96 99 93 92 93 96 98 96 96 96 96 96 96 96 96 95 94
30 14 11 52 98 93 77 79 87 89 99 97 94 97 83 68 71 99 66 59 64 59 72 94 94 100 99 98 77 95 96 96 96 96 96 96 96 96 94 93 94 91 84 77
16 11 38 89 99 93 81 97 98 98 98 96 96 99 96 62 66 88 70 69 81 87 89 100 99 99 97 77 75 95 95 96 96 96 96 96 93 90 86 83 77 73 72 71
20 72 100 96 89 95 97 96 97 96 97 98 92 100 98 57 73 73 71 74 69 100 98 94 94 100 82 82 59 74 87 94 95 95 98 94 83 77 76 76 73 74 75 74
96 98 97 90 95 97 97 93 100 100 98 95 79 87 96 57 72 81 56 89 88 95 93 92 100 100 70 73 63 73 76 81 92 88 80 78 77 75 73 76 78 78 77 76
96 97 95 96 97 93 86 78 81 94 93 97 83 67 89 85 80 95 88 78 85 99 96 93 99 78 81 76 86 88 90 92 90 85 82 83 84 84 84 85 86 87 87 88
98 97 96 95 87 92 69 99 92 100 90 75 50 46 45 60 63 82 86 82 90 93 96 96 80 77 82 78 77 80 84 83 80 79 77 76 77 77 78 82 86 90 92 92
97 94 94 77 69 57 86 87 90 68 84 74 73 75 83 89 81 82 96 92 96 100 97 99 79 84 82 80 76 74 75 74 75 76 78 80 84 88 90 92 92 91 91 91
96 91 86 76 69 41 52 45 44 58 75 87 95 95 95 90 94 94 95 96 95 94 92 78 79 77 77 76 74 73 73 77 80 81 83 86 89 90 90 89 89 89 88 89
93 74 53 47 42 45 52 46 53 71 93 95 96 96 96 96 93 83 88 99 99 82 71 69 73 78 76 73 74 80 83 82 83 84 85 85 85 86 86 87 90 92 93 94
92 67 44 47 50 48 48 46 57 73 91 98 97 95 96 94 90 77 59 59 51 49 49 55 66 71 71 76 82 85 86 84 82 81 82 83 83 84 85 87 89 88 85 73

GFSNW_700_rhum_084.txt.gz
RH
31 23 11 8 9 9 8 9 31 8 6 8 58 59 52 23 51 20 52 36 49 44 46 46 42 38 36 35 35 34 56 86 90 60 40 46 47 39 56 68 58 59 59 70
12 8 9 12 9 9 8 29 27 7 5 49 70 57 37 51 63 68 66 61 62 64 60 54 45 44 48 51 45 49 61 82 73 52 43 42 48 50 79 66 77 80 87 68
8 12 9 9 9 9 10 19 34 10 9 50 76 58 66 70 31 85 83 74 78 74 66 58 53 50 56 65 67 65 81 79 83 80 72 92 90 91 81 56 72 70 63 78
8 9 9 9 9 9 8 10 62 65 72 86 84 48 70 68 74 79 76 83 66 82 66 60 53 57 62 66 66 65 70 76 71 86 68 72 89 94 80 85 96 68 60 51
9 9 9 10 9 9 9 11 87 49 96 83 88 71 70 58 66 64 76 86 74 64 63 58 75 69 70 74 72 81 73 87 73 66 68 66 76 77 79 72 93 81 54 46
10 9 10 10 9 9 11 8 18 60 91 90 80 81 71 68 75 71 68 65 68 71 68 72 82 81 56 53 82 84 85 93 96 70 58 68 80 57 57 64 61 56 55 98
10 10 10 10 10 9 9 9 19 54 92 74 70 74 74 70 69 74 72 73 74 77 88 67 51 41 45 65 79 82 81 90 94 90 81 76 55 48 47 51 75 72 98 99
10 10 10 10 10 9 8 18 25 95 90 66 72 77 76 72 71 77 77 74 81 78 71 94 82 68 59 59 70 86 82 80 95 93 83 78 54 49 51 55 98 97 98 84
10 10 10 10 10 9 9 19 20 34 91 75 73 74 76 76 80 89 89 86 86 70 89 97 89 70 70 75 94 74 66 71 96 92 95 95 98 78 75 66 96 84 88 70
11 10 10 10 10 8 14 20 11 21 86 96 59 98 97 91 75 88 91 89 83 97 87 100 96 86 86 88 73 52 67 76 72 87 96 96 92 91 59 58 99 87 58 54
11 11 11 10 10 8 26 24 15 13 50 58 42 36 59 84 96 97 96 78 93 89 100 96 97 92 83 95 87 66 78 89 90 94 97 96 74 54 77 100 86 78 68 69
12 12 11 11 10 10 34 41 23 27 23 32 26 26 26 25 34 44 93 92 96 82 94 95 85 99 96 95 93 91 94 97 97 92 97 100 85 73 70 68 60 57 75 82
13 15 13 12 12 17 42 95 38 38 40 40 40 55 43 38 38 29 32 97 93 84 74 92 86 99 96 95 96 93 97 96 95 95 78 83 82 79 81 88 87 83 86 99
17 18 13 13 15 22 43 65 73 51 54 47 94 75 54 51 45 46 36 39 91 69 78 88 92 100 93 92 98 94 88 91 89 99 91 83 88 87 92 98 100 100 99 98
22 19 16 16 14 16 50 52 84 88 67 94 86 80 59 58 53 58 62 40 35 53 82 81 77 98 96 89 98 87 86 88 88 100 98 94 94 94 93 96 97 97 97 97
29 28 21 19 12 12 61 72 73 81 86 75 72 84 80 67 65 66 74 79 47 40 40 44 54 92 97 94 97 95 88 90 91 93 96 97 97 95 93 95 96 96 97 96
75 41 36 17 10 28 82 85 96 74 68 84 84 95 88 70 63 68 92 99 90 48 48 51 85 96 98 87 99 92 86 91 98 96 97 99 97 94 96 99 95 95 93 91
95 55 34 14 13 56 77 90 97 93 89 93 90 86 92 78 73 82 97 92 66 46 44 64 92 94 96 99 90 84 93 95 96 95 96 96 94 95 95 85 81 78 79 81
87 56 24 16 32 61 68 89 85 92 98 96 88 90 96 81 64 81 93 75 67 78 83 83 94 87 88 69 64 60 89 94 95 95 95 95 95 95 90 84 76 69 67 69
65 30 33 45 67 84 95 98 96 98 97 98 85 92 91 77 49 80 77 77 74 96 86 91 93 89 74 78 74 68 75 71 93 96 95 95 93 89 83 81 78 78 79 78
37 49 95 98 94 94 97 94 98 94 94 87 76 94 94 72 60 72 70 91 80 93 91 94 95 97 64 81 85 58 62 74 83 88 91 89 85 79 81 84 85 86 85 84
64 96 97 97 98 96 97 96 96 94 98 99 89 92 88 88 70 91 88 71 77 96 92 92 98 76 79 81 74 81 84 87 89 86 82 82 82 81 80 81 83 84 86 89
98 99 96 96 94 99 86 97 100 96 86 73 83 93 92 92 86 93 92 79 70 95 95 97 80 71 72 76 74 75 78 81 82 80 78 77 78 80 82 83 85 88 90 91
97 95 96 96 84 72 83 88 98 88 71 64 83 56 66 55 69 68 69 81 86 95 93 97 72 77 78 79 78 77 76 77 77 78 77 78 79 80 82 83 83 83 83 83
97 96 93 79 78 70 55 62 68 64 64 85 85 88 84 89 80 75 81 95 91 95 92 79 78 77 78 79 77 76 75 76 78 77 78 79 80 80 79 79 78 78 79 80
96 85 79 67 62 62 43 46 43 49 69 90 96 97 93 96 88 96 94 96 99 81 71 63 65 76 82 81 74 68 70 74 77 79 78 76 73 72 71 72 74 76 78 79
93 78 62 44 41 37 44 49 44 58 95 96 94 96 96 95 96 97 81 81 56 52 60 61 61 62 66 66 70 77 82 82 78 74 70 68 69 71 72 74 74 71 59 35

GFSNW_700_rhum_087.txt.gz
RH
95 86 67 46 15 10 10 12 26 15 8 6 9 59 52 46 42 15 11 16 26 42 47 51 48 43 40 40 41 41 43 50 60 56 44 41 69 60 58 60 65 65 67 86
61 32 16 24 23 10 12 13 29 11 7 28 59 66 56 38 41 64 63 60 57 64 61 56 49 49 50 53 54 48 54 66 80 44 32 39 72 94 94 87 76 96 90 74
59 48 24 11 18 17 13 22 14 8 31 74 83 67 47 37 48 58 56 74 68 72 68 62 57 50 55 64 66 67 66 64 62 85 69 74 91 84 92 95 98 98 90 73
19 10 26 26 9 10 12 24 38 36 51 49 76 58 62 75 64 67 54 80 54 58 70 65 55 56 65 68 54 71 77 84 85 82 55 62 78 87 78 91 94 98 79 86
44 16 9 9 9 9 10 13 40 83 93 69 54 48 62 62 70 54 84 74 64 71 68 70 66 69 74 78 47 60 82 79 81 71 57 73 64 58 63 56 96 74 85 96
9 9 10 12 10 9 9 19 35 67 78 48 81 79 73 65 69 63 58 66 66 66 70 69 60 54 62 75 54 38 46 73 85 76 64 86 76 51 39 41 94 76 88 96
10 11 24 10 10 9 13 8 16 43 78 76 74 81 73 69 69 70 62 73 73 68 72 63 46 32 30 25 21 38 63 82 88 92 67 92 46 45 60 84 97 98 98 98
13 45 10 10 10 9 9 8 14 24 70 73 73 71 64 62 62 72 72 78 78 62 48 49 60 55 62 55 64 70 95 83 95 86 86 71 42 88 98 88 98 99 94 73
12 16 10 10 10 9 9 12 17 31 72 70 70 70 69 80 85 94 86 86 78 61 70 79 91 85 81 87 73 73 80 89 92 89 95 94 92 92 99 98 98 95 75 59
12 10 10 10 10 9 8 15 16 41 73 67 61 71 78 53 59 68 90 78 66 68 67 84 95 91 78 93 95 76 80 84 91 85 78 90 95 94 96 95 99 82 66 58
13 11 10 10 10 9 9 15 12 43 43 33 33 67 81 27 34 60 64 66 80 58 76 100 85 87 87 94 97 73 74 78 76 82 94 96 85 78 79 99 100 64 50 65
20 11 11 11 10 10 10 21 15 19 26 22 24 22 23 29 26 23 29 70 79 81 69 76 78 83 96 96 96 96 96 97 94 90 96 96 100 99 100 100 93 68 67 83
14 12 11 11 11 10 16 28 21 20 32 31 32 26 31 32 33 30 25 61 75 76 48 52 78 81 93 95 97 90 92 94 97 94 98 96 96 93 93 100 100 96 90 94
19 14 15 12 11 11 20 32 27 29 36 52 60 50 42 39 42 38 43 36 46 74 70 50 72 68 91 94 97 94 86 85 96 97 97 96 99 99 99 99 100 100 97 95
20 16 18 14 13 13 24 40 40 42 41 56 66 63 56 45 51 49 50 54 55 32 30 38 32 58 95 89 96 86 82 81 86 100 100 100 97 96 97 98 97 96 96 93
30 27 22 15 15 12 29 60 52 46 49 42 47 62 61 70 64 59 69 80 76 58 33 30 27 77 96 94 100 97 85 84 87 97 100 100 100 100 100 100 93 95 98 96
71 42 26 21 16 10 23 56 61 61 57 50 59 56 70 73 70 71 80 95 96 78 51 26 37 88 98 98 98 94 91 86 89 90 95 97 98 98 97 92 95 94 89 88
83 90 36 28 13 11 55 87 90 76 75 75 64 64 78 84 89 82 70 87 99 80 51 30 50 82 98 100 94 84 77 87 93 95 94 97 98 99 91 80 72 69 66 72
100 84 51 20 11 14 68 90 92 91 85 74 68 75 86 86 60 72 88 95 84 66 50 63 95 95 94 78 82 83 83 82 93 97 97 94 93 96 91 75 70 75 73 77
100 68 33 14 17 83 82 86 83 78 77 77 62 69 87 84 69 65 86 81 73 87 73 78 91 94 81 82 75 76 81 87 95 94 96 95 96 89 85 83 84 81 80 79
77 40 36 73 81 93 96 94 92 89 80 71 68 71 84 84 72 66 73 94 86 92 92 91 92 90 75 84 80 80 72 92 95 95 93 88 80 84 87 88 88 87 87 86
39 95 100 99 97 95 96 96 91 94 84 92 83 73 70 88 80 80 89 77 83 82 96 94 95 82 84 79 80 74 82 86 90 95 92 89 86 81 79 78 78 79 83 87
100 100 98 93 93 98 90 87 92 79 76 83 88 86 98 85 89 91 95 96 72 84 95 94 84 82 76 75 77 77 78 80 78 77 75 74 75 76 78 80 83 84 84 84
99 99 89 95 86 77 80 92 93 75 80 72 72 79 74 77 76 64 63 71 80 96 97 92 74 75 81 85 83 79 76 77 74 74 77 79 81 81 80 79 79 80 81 80
99 87 90 81 84 74 78 78 83 74 80 79 78 63 61 54 73 69 64 84 94 96 95 80 75 76 77 81 79 77 74 72 74 76 77 78 76 74 75 75 75 74 73 72
97 96 89 83 80 72 71 46 54 51 53 82 93 92 91 92 82 94 93 95 95 81 64 55 49 55 71 75 73 70 70 77 81 82 77 74 71 68 66 63 62 60 55 45
92 80 73 50 42 42 51 44 40 46 66 88 93 91 89 97 92 90 95 80 58 61 73 70 70 72 73 75 78 83 85 84 79 70 63 58 56 52 46 38 25 16 12 11

GFSNW_700_rhum_090.txt.gz
RH
92 96 94 66 53 19 17 48 44 37 14 8 20 59 40 27 34 29 15 17 25 26 29 29 31 43 39 46 47 43 37 35 49 51 27 29 34 70 89 98 89 81 66 66
100 95 95 65 54 78 65 24 32 10 9 39 30 61 48 42 43 29 26 39 37 33 36 34 52 51 52 61 53 45 48 51 58 36 22 36 57 87 93 94 96 98 94 75
92 85 59 40 25 14 41 55 44 27 26 47 56 62 59 52 42 33 50 60 56 50 56 64 58 56 51 63 65 65 63 68 70 74 66 52 54 67 62 83 98 95 89 92
50 28 37 22 12 30 48 41 16 20 43 64 69 66 49 48 40 26 58 58 37 50 59 57 59 59 56 52 67 66 68 71 84 70 57 55 61 61 49 60 76 97 88 98
66 43 23 19 49 35 17 30 31 37 52 72 80 50 75 68 67 58 67 66 67 78 72 70 71 68 59 58 44 54 58 67 78 33 24 41 85 59 58 44 44 69 90 100
18 22 54 37 10 12 18 23 37 50 72 58 44 50 66 72 70 58 60 64 60 56 60 64 60 58 52 49 46 40 56 72 69 61 70 75 71 56 35 29 58 78 96 97
63 48 11 9 12 58 15 17 38 64 50 71 80 71 67 60 55 55 71 74 71 53 53 39 17 17 24 33 31 31 25 43 70 85 82 98 63 78 84 97 88 98 99 98
10 9 11 12 13 9 11 16 37 57 74 78 80 76 70 57 50 62 60 64 60 66 58 35 46 55 60 53 61 65 66 77 94 92 79 62 58 92 96 95 98 98 89 94
10 35 25 10 9 10 10 12 29 45 64 74 73 70 53 56 73 82 84 84 80 57 47 58 71 76 88 79 67 83 84 93 96 99 95 97 86 83 89 96 96 99 92 82
36 61 18 10 10 9 9 15 29 60 48 64 67 46 32 39 46 48 42 54 56 60 58 93 93 83 74 94 95 96 76 99 93 92 94 82 93 92 98 97 97 98 87 65
17 39 10 10 10 9 9 17 20 48 38 44 52 31 19 12 20 31 23 40 64 47 70 76 65 70 79 95 97 99 96 96 97 97 96 95 95 96 91 97 97 95 73 85
25 25 10 11 10 9 10 14 13 24 48 24 32 34 28 27 23 17 16 28 40 61 60 39 38 64 85 94 96 95 94 96 96 96 95 96 96 100 96 98 100 100 98 90
17 12 11 11 10 10 10 16 14 23 23 15 21 20 22 24 26 25 21 33 38 57 53 45 37 64 83 96 96 82 92 96 96 97 96 97 96 96 95 97 100 100 100 94
43 41 12 12 11 10 11 19 16 18 19 24 26 26 32 34 36 37 34 34 35 34 33 32 28 39 86 94 96 78 79 89 88 90 95 92 96 97 100 100 100 98 93 90
22 15 15 13 11 11 13 24 24 23 25 28 41 50 48 41 37 45 46 50 51 51 37 26 28 37 80 93 96 84 69 75 86 92 90 96 98 98 96 98 98 97 94 90
41 22 17 14 12 12 14 23 30 28 35 52 46 51 52 57 62 52 55 63 61 68 58 27 26 40 79 90 99 95 73 81 87 96 96 94 94 92 95 97 98 96 94 93
66 25 20 15 13 12 14 22 30 34 35 38 41 56 62 61 65 70 75 72 84 81 78 32 31 87 97 100 100 96 71 81 92 95 92 91 89 90 94 100 99 95 92 84
92 42 22 16 14 12 13 24 33 44 44 41 49 56 59 67 78 86 78 75 84 91 90 54 34 96 97 98 93 93 76 84 93 94 91 89 92 95 94 93 85 80 72 68
96 38 22 17 14 12 34 50 65 62 58 54 55 52 68 72 76 60 74 88 93 88 71 57 75 97 97 87 85 87 94 89 95 97 95 95 95 96 90 83 81 78 74 71
76 46 32 20 13 20 52 79 78 80 69 61 53 58 62 76 84 60 80 88 80 73 72 70 85 93 83 82 78 81 89 94 97 97 98 96 97 97 90 82 79 79 79 78
63 49 22 16 34 66 78 76 73 72 65 63 63 62 73 80 82 73 78 94 92 94 86 97 96 90 70 67 76 89 96 96 96 96 96 96 95 90 84 83 78 77 76 79
61 50 57 62 91 87 82 80 76 78 77 78 82 71 68 87 89 72 92 92 95 94 98 97 97 78 81 87 91 93 92 96 96 94 91 87 86 84 81 79 81 81 82 82
95 100 99 90 97 89 82 77 81 83 81 80 94 86 88 88 88 93 94 97 88 87 94 95 80 92 84 85 90 84 82 81 80 80 80 80 82 82 80 78 77 78 77 75
100 93 92 96 80 79 78 77 76 72 75 81 84 84 86 73 92 75 62 68 79 86 97 95 86 82 84 84 83 79 76 77 75 75 76 76 76 76 76 74 70 64 62 63
96 93 85 80 87 74 76 74 87 84 86 82 72 74 81 69 70 78 68 83 94 96 96 89 76 76 78 81 78 77 75 70 71 74 76 76 71 66 59 54 51 48 45 38
94 100 94 75 74 72 63 53 66 79 68 82 85 68 69 77 76 87 94 96 89 58 57 52 49 54 73 80 79 72 68 73 77 77 69 59 51 46 42 34 25 18 13 12
98 92 86 68 53 45 48 63 42 49 53 78 89 85 82 97 92 93 90 82 58 70 70 67 66 66 70 72 74 78 79 78 71 55 43 34 27 25 22 16 13 11 10 9

GFSNW_700_rhum_093.txt.gz
RH
80 83 86 95 94 95 83 81 75 72 56 37 34 52 56 46 48 61 57 26 21 26 24 29 32 37 43 52 44 35 30 29 36 31 14 11 13 51 86 95 96 93 94 76
85 90 96 94 84 75 70 56 33 21 21 36 27 63 50 49 46 38 30 34 22 26 27 30 36 45 53 51 40 41 37 39 39 25 50 56 83 66 56 70 94 96 94 73
96 95 83 70 28 31 69 70 55 64 24 41 32 64 51 47 45 36 27 33 41 41 39 45 53 57 61 61 54 50 48 46 47 63 37 52 58 44 51 67 69 83 88 71
99 96 71 44 68 86 72 60 23 28 48 51 40 62 56 54 50 34 42 49 46 48 54 54 56 54 55 54 54 58 61 65 61 45 44 57 40 25 21 37 45 70 61 64
88 70 57 62 40 35 81 61 52 61 37 58 80 67 57 53 41 25 40 37 39 39 37 40 46 50 47 42 44 49 57 62 73 54 52 38 22 15 30 51 41 50 47 40
39 41 33 22 21 53 74 63 32 34 68 81 72 61 56 70 58 62 58 61 58 50 43 41 45 41 30 35 31 34 43 56 63 59 60 45 57 68 96 75 61 57 47 59
58 53 42 14 73 54 26 34 61 57 54 50 64 64 56 64 63 54 46 42 36 34 33 20 17 20 19 26 39 46 46 53 66 69 64 95 53 88 92 99 82 97 62 82
25 43 59 60 10 12 19 52 63 54 51 56 59 60 61 60 52 52 46 39 44 48 29 33 51 59 59 63 74 76 80 85 71 70 91 56 54 85 93 97 96 100 97 98
79 66 14 10 26 47 16 20 62 48 66 79 77 74 66 42 38 47 50 50 45 48 38 60 67 77 79 75 77 88 78 99 96 96 99 96 84 69 89 97 96 97 97 95
12 10 11 13 12 10 12 28 62 67 59 72 71 62 44 42 36 30 47 50 45 40 56 59 57 65 86 95 90 98 99 100 96 91 94 75 82 94 96 96 96 97 96 84
12 22 12 10 10 10 13 20 39 71 54 56 54 37 28 25 29 23 20 34 40 42 49 48 58 60 91 96 98 97 96 97 97 97 96 96 94 95 94 96 96 96 97 100
37 40 12 10 10 9 11 19 38 69 68 51 48 40 22 20 17 14 18 24 32 43 30 23 37 68 84 98 92 96 95 96 96 95 96 95 95 95 96 96 95 97 97 100
21 19 12 10 10 9 14 16 20 42 50 40 36 39 25 21 20 17 19 17 18 24 30 25 36 60 80 94 93 81 97 96 96 96 95 95 96 96 96 96 96 94 96 100
39 38 14 11 10 10 15 15 16 33 17 24 21 20 23 24 27 31 30 28 29 27 20 22 24 48 78 94 96 76 72 89 90 92 93 95 96 96 96 96 96 97 99 96
54 21 12 12 11 12 16 17 20 22 20 17 25 26 28 31 33 34 42 43 48 45 30 20 22 32 79 87 94 87 68 73 86 94 91 92 96 97 97 95 96 97 98 100
29 50 20 12 12 13 16 24 21 23 25 27 42 50 52 51 55 50 46 56 58 54 48 32 23 28 74 83 86 86 64 75 89 97 96 96 97 96 96 95 96 96 99 98
49 21 17 14 12 12 14 22 23 26 35 42 43 51 55 55 58 60 60 56 55 63 64 43 28 53 77 85 92 90 61 62 84 92 96 96 96 97 97 97 96 90 82 78
65 25 19 15 13 14 16 14 24 28 32 34 36 51 64 60 67 75 70 61 70 68 73 64 40 77 98 89 81 93 70 68 83 90 91 96 99 98 99 94 86 78 74 70
59 29 22 18 15 14 17 20 25 30 37 37 35 52 58 68 67 58 58 71 82 84 69 67 53 70 95 88 84 93 86 86 79 87 94 96 96 97 96 86 74 71 71 71
62 37 28 22 15 18 27 46 48 49 48 45 54 56 57 65 75 59 64 88 83 76 76 63 63 96 78 80 79 81 76 89 96 89 99 98 94 90 86 76 75 76 72 69
70 48 27 16 14 30 51 56 58 59 56 54 55 58 61 72 78 67 73 88 93 93 85 85 88 79 61 66 67 68 92 97 93 91 96 91 88 86 80 78 74 73 75 77
63 32 19 25 54 65 71 69 67 66 69 73 76 63 68 80 82 69 83 94 94 93 97 96 92 72 82 79 84 93 89 91 94 94 90 88 89 84 78 74 74 73 72 72
46 43 70 77 80 73 71 68 69 71 73 82 85 70 72 81 84 83 90 96 96 76 97 93 76 90 89 86 87 85 84 85 86 84 81 79 77 75 73 73 73 69 63 57
100 89 77 83 72 76 74 70 71 69 75 78 89 84 86 74 89 82 61 66 74 86 91 87 88 76 80 83 82 80 77 78 72 69 70 71 72 74 73 66 56 46 37 27
92 84 84 89 87 82 76 76 84 79 91 84 79 85 93 76 74 75 70 76 94 96 96 93 85 78 79 84 83 81 79 68 64 69 74 75 69 58 44 32 26 21 17 15
95 99 100 78 84 77 74 73 81 84 81 88 85 74 53 55 63 85 92 96 79 63 65 57 56 66 77 81 81 76 66 67 75 75 66 51 36 25 22 19 18 16 13 12
86 87 92 79 71 69 65 65 51 69 66 85 93 74 84 87 88 89 88 81 70 69 69 67 67 66 68 71 71 71 77 79 72 50 34 23 19 20 20 17 14 13 12 10

GFSNW_700_rhum_096.txt.gz
RH
80 83 87 86 83 89 98 96 84 93 92 93 92 87 70 84 54 88 64 93 73 37 33 32 34 39 39 35 36 35 32 33 31 24 18 13 15 65 69 66 94 94 96 80
77 80 82 89 93 98 99 90 69 42 57 81 74 73 82 78 77 80 93 87 58 48 35 34 32 38 50 54 45 36 32 38 28 52 51 81 72 72 50 55 59 80 92 66
83 93 96 100 96 85 84 86 83 64 51 64 52 69 84 76 80 83 50 68 81 79 51 39 36 51 60 58 51 43 36 38 31 30 24 32 35 40 32 28 77 54 44 54
94 100 98 91 79 64 97 52 39 45 23 69 54 68 56 60 64 64 82 51 43 45 36 39 48 52 57 60 55 53 45 50 57 54 48 60 62 31 12 16 18 63 18 22
97 99 96 63 28 54 93 63 47 65 50 60 58 67 60 69 73 58 44 38 48 48 41 43 50 52 54 52 44 39 45 47 56 55 39 44 46 22 25 38 78 90 34 46
98 96 76 37 79 96 95 75 35 48 53 64 69 61 62 57 49 50 49 44 42 43 40 41 33 26 24 27 26 27 29 32 45 48 68 50 28 22 42 84 89 76 100 63
73 74 82 85 75 50 91 94 75 62 60 52 67 68 67 57 56 49 57 53 45 33 25 21 13 16 14 17 31 38 43 50 56 59 49 60 37 73 76 76 80 98 92 86
46 31 20 15 25 85 93 58 71 49 69 82 77 71 60 61 62 56 45 37 33 32 21 43 61 68 68 75 79 81 86 84 73 66 85 52 55 67 84 90 87 96 100 89
58 71 63 29 78 90 65 46 88 77 66 68 66 69 68 58 52 36 34 40 35 26 54 56 63 72 77 83 90 84 92 100 95 98 96 99 85 88 86 89 99 96 96 96
34 38 67 62 18 15 20 60 91 80 68 66 71 70 60 43 32 32 34 30 41 31 52 49 57 74 84 86 89 97 94 98 98 96 96 84 91 88 88 98 95 96 96 96
88 84 49 12 16 38 29 35 76 70 55 66 72 50 43 31 20 14 20 35 36 42 40 41 53 74 88 89 92 99 96 97 97 97 95 95 91 95 94 95 96 96 96 97
18 12 18 30 12 11 12 22 46 66 68 63 56 31 31 25 16 17 20 22 30 33 26 29 50 74 84 84 95 98 95 97 95 95 95 94 96 96 95 96 96 96 96 96
14 16 27 12 11 10 12 24 40 64 66 56 44 25 24 18 13 16 14 12 14 23 24 26 49 69 77 88 90 86 94 97 97 94 95 95 95 96 96 96 96 96 96 98
27 81 14 12 10 10 14 23 29 58 58 53 49 38 22 22 22 21 21 19 20 17 18 18 35 60 74 90 87 93 79 94 96 94 93 94 95 95 95 96 96 97 98 97
48 20 13 12 11 15 18 18 26 43 29 30 29 23 23 25 29 32 35 33 34 32 21 19 20 30 73 77 80 90 70 76 84 89 86 94 95 95 95 96 96 96 94 94
67 29 13 12 12 18 18 24 34 22 23 18 28 36 32 36 35 34 40 39 44 41 37 27 23 24 58 75 79 84 63 81 89 90 89 92 97 97 96 93 92 92 92 93
67 49 21 13 12 16 21 23 21 23 27 22 35 56 58 56 53 50 50 52 49 46 51 46 33 26 39 65 79 82 71 65 86 89 93 95 95 96 96 96 91 84 81 77
66 51 34 13 13 17 18 20 23 28 38 38 36 51 62 55 56 53 55 44 45 51 56 62 48 41 61 65 77 80 80 79 72 89 92 95 93 96 94 92 88 79 74 74
54 43 28 15 14 14 16 18 27 30 40 34 30 37 52 59 62 60 59 50 60 68 67 69 68 54 56 69 83 89 86 88 82 91 96 96 94 96 96 92 80 74 75 72
53 29 26 18 16 15 17 26 30 35 39 35 33 41 48 61 67 69 52 67 74 68 67 67 71 57 40 82 86 79 79 82 89 96 92 89 93 92 94 83 80 74 72 74
47 28 19 15 16 24 36 44 48 50 47 46 54 57 57 66 72 70 60 74 91 85 83 73 75 43 36 53 66 64 69 84 93 94 94 93 90 90 85 84 76 73 72 74
40 25 16 16 29 31 44 45 56 58 63 62 59 57 60 67 71 66 69 87 95 95 98 90 93 80 71 67 62 61 73 86 95 93 93 95 94 84 79 79 76 73 71 66
34 22 28 33 55 54 58 60 64 65 72 68 64 62 67 74 73 66 77 90 96 81 97 90 74 84 79 73 69 74 84 92 94 93 92 88 81 79 80 78 74 66 52 34
49 54 45 66 66 66 72 71 69 74 80 82 68 68 80 80 81 78 64 67 78 88 87 84 84 77 75 74 77 81 80 79 78 77 77 78 78 76 72 61 38 22 19 18
85 72 82 87 83 86 83 74 75 75 74 78 78 83 87 71 74 73 73 76 90 98 90 87 85 77 77 80 81 76 75 71 68 71 68 70 70 54 30 19 19 20 19 18
86 94 99 96 91 83 78 83 84 81 84 78 70 69 60 59 57 77 90 95 85 66 74 68 66 70 72 78 76 76 73 63 63 71 71 51 27 20 20 21 21 20 18 18
90 92 90 90 82 74 66 63 79 82 81 77 68 51 70 75 76 81 90 90 79 68 68 66 59 53 61 72 75 73 66 72 75 63 33 21 21 22 23 21 21 19 17 14

GFSNW_700_rhum_099.txt.gz
RH
87 86 92 94 90 89 96 98 100 97 98 88 96 98 87 91 87 94 81 90 94 69 60 51 92 87 87 67 60 44 35 30 29 37 30 25 20 23 28 42 72 98 97 74
92 84 84 86 88 94 98 100 96 97 95 96 93 93 91 88 93 93 94 93 93 86 67 46 54 69 60 41 37 36 33 29 29 43 58 60 58 78 58 54 53 68 75 61
92 81 79 82 87 94 99 97 95 90 96 96 89 85 89 94 87 93 91 94 94 87 58 49 46 47 58 49 48 40 35 25 17 27 40 60 48 59 46 36 79 55 56 41
89 86 93 100 99 96 98 94 82 72 58 78 76 86 91 86 93 95 72 88 80 87 81 61 44 47 48 53 51 45 37 31 28 25 27 26 24 19 27 30 23 42 26 38
95 96 100 97 98 89 95 74 54 71 60 62 71 78 77 81 78 84 88 79 61 55 44 35 39 40 54 55 57 55 47 47 52 43 38 41 37 22 18 24 29 37 54 70
96 96 98 96 86 94 85 93 54 51 56 68 89 68 73 82 93 87 71 56 48 57 53 52 43 52 51 44 38 34 31 32 34 50 51 45 40 25 31 45 77 86 100 95
96 96 97 94 59 49 92 84 80 69 64 62 85 73 78 72 59 50 50 58 56 43 38 29 21 18 17 16 18 21 28 44 54 46 53 45 67 84 89 86 97 96 93 100
96 96 96 59 61 96 94 92 94 81 73 75 79 75 71 68 62 51 56 49 36 29 24 34 60 74 70 82 79 78 80 80 74 78 79 60 79 98 92 94 100 97 100 99
64 95 94 85 90 93 90 94 88 84 72 82 75 74 71 62 62 58 48 31 30 27 31 56 62 69 76 89 89 88 94 98 92 99 91 78 84 95 91 86 100 98 96 100
45 51 68 50 36 89 96 64 95 95 83 75 73 71 67 61 48 30 35 36 34 50 55 59 66 79 84 87 94 100 95 99 100 100 100 84 93 88 89 99 94 92 96 97
91 86 65 52 93 89 76 60 97 95 74 70 72 74 68 45 34 28 23 33 30 48 45 50 69 84 86 89 95 100 98 98 100 100 100 95 89 93 92 96 93 96 95 95
64 65 79 70 27 16 24 91 94 82 70 72 77 51 44 39 20 19 24 22 29 31 33 42 62 74 86 86 96 94 94 94 96 97 96 95 94 94 95 95 96 95 96 95
95 77 22 15 37 62 26 75 92 85 74 72 52 36 32 21 18 16 17 18 22 24 24 42 64 74 76 78 81 89 93 96 95 97 97 98 96 97 96 95 95 96 96 95
21 17 74 58 17 16 23 55 72 75 61 60 42 30 20 16 16 14 13 12 12 17 19 23 45 61 72 78 78 75 80 96 95 97 98 97 96 96 96 96 96 96 96 96
26 70 38 14 12 12 25 50 52 66 55 43 43 36 25 22 22 24 24 25 25 19 16 17 21 42 64 70 76 75 55 73 82 90 92 95 96 96 96 96 96 96 97 95
90 35 16 14 14 22 29 41 45 60 54 38 36 32 28 27 27 27 30 32 33 31 29 23 19 21 51 66 69 74 47 68 87 91 94 96 97 96 96 96 97 94 92 92
77 18 14 13 21 22 22 35 35 30 27 28 24 33 36 37 35 35 41 41 36 34 34 34 33 25 30 57 71 72 58 47 81 92 95 98 98 97 97 92 86 81 77 74
89 20 14 15 24 26 27 27 21 27 28 26 30 49 54 46 47 47 45 41 36 34 37 42 48 41 36 39 52 65 71 59 54 84 89 94 94 95 94 92 87 74 74 75
90 48 15 15 22 22 20 23 25 35 35 34 32 37 45 50 51 49 46 44 39 46 55 60 67 66 40 45 72 84 78 73 72 73 90 96 93 92 92 89 76 74 73 70
87 56 36 20 21 20 17 31 36 45 41 32 27 31 36 48 54 56 52 49 64 62 61 67 78 70 48 51 84 85 87 88 76 75 84 92 96 94 91 83 78 72 72 72
48 44 26 24 20 20 24 30 32 32 36 33 34 38 44 65 61 60 58 61 83 84 87 73 72 53 44 40 51 62 73 77 85 83 86 93 95 90 88 76 70 70 65 64
43 35 50 30 23 22 26 32 44 49 48 46 53 55 61 57 59 68 59 76 90 94 98 84 93 85 72 47 54 62 72 85 97 93 88 88 90 92 85 76 73 70 66 49
29 19 19 18 30 35 46 52 58 58 62 53 54 57 58 59 64 61 62 84 97 91 96 94 89 92 79 81 75 72 86 95 97 94 89 91 93 84 80 74 69 54 27 20
23 21 25 44 52 56 62 58 57 62 64 61 56 59 67 68 62 76 68 66 73 87 89 95 97 88 90 86 85 89 82 82 93 93 90 83 77 76 74 62 31 23 21 19
54 53 72 77 88 84 78 83 71 71 71 66 68 73 74 65 72 69 69 76 90 94 85 86 95 82 80 81 82 80 73 74 76 75 74 73 75 70 44 23 22 21 20 20
77 90 95 91 97 88 78 76 72 71 81 81 79 68 63 58 56 68 85 92 80 69 78 71 80 76 75 77 79 76 76 75 68 70 74 73 56 35 24 21 21 21 22 23
92 100 94 88 82 75 70 75 74 81 74 61 52 52 46 51 60 74 87 87 78 67 68 63 51 49 64 78 79 78 77 66 66 74 70 45 26 23 24 23 23 23 24 23

GFSNW_700_rhum_102.txt.gz
RH
76 100 100 98 99 100 100 99 98 97 98 97 100 100 100 94 98 92 97 79 90 86 86 95 95 86 82 55 70 79 54 38 39 48 36 37 42 58 55 44 39 52 65 45
84 94 100 99 97 98 98 99 97 100 98 97 99 100 100 96 97 95 99 92 96 94 95 74 95 96 90 90 93 91 56 51 52 48 51 31 48 37 30 32 37 43 42 39
80 89 98 94 99 100 97 98 97 99 99 96 97 100 98 98 94 99 93 99 95 97 93 72 84 93 89 58 50 62 42 30 34 27 40 54 60 62 57 46 61 38 37 28
81 82 90 93 91 99 98 97 100 81 95 98 96 98 95 93 91 98 98 97 96 95 90 64 78 67 57 56 57 43 35 42 25 38 24 34 55 56 51 45 36 38 24 25
97 85 88 94 98 98 97 94 90 77 65 100 94 98 94 86 95 96 91 96 84 96 96 91 76 57 70 67 54 45 38 44 27 45 53 57 51 45 44 45 41 36 37 44
100 92 92 94 96 97 97 92 68 74 86 99 100 98 90 87 88 85 94 85 67 79 62 53 45 48 49 46 48 45 33 22 30 30 52 50 36 47 43 40 47 71 76 87
98 98 95 95 95 96 91 94 79 70 87 88 82 88 92 88 87 92 65 66 71 60 57 53 48 46 47 45 36 24 15 26 45 42 56 55 96 66 78 72 77 71 78 81
94 99 97 95 95 93 96 88 78 82 80 78 89 86 73 83 73 65 59 58 59 51 40 65 67 72 66 53 28 34 51 78 85 76 62 62 95 86 81 80 92 80 87 93
99 100 96 96 94 94 97 96 94 96 89 84 91 90 75 82 69 61 64 59 45 35 36 77 66 58 63 89 100 86 89 95 91 84 72 62 99 93 87 90 100 92 95 93
100 95 96 92 91 89 97 98 96 92 86 82 84 75 79 73 66 74 56 46 40 32 38 66 82 81 88 84 90 100 100 100 92 82 76 91 81 87 92 98 97 87 88 91
79 96 94 92 95 95 93 93 96 96 90 86 83 74 70 62 53 40 31 40 34 56 57 68 69 94 98 100 94 96 98 94 90 85 87 90 89 88 95 90 91 93 95 96
56 93 95 94 76 94 98 82 97 95 83 75 74 74 69 49 36 26 22 26 30 51 42 55 68 99 84 99 97 91 99 86 100 95 96 90 90 92 94 95 95 95 95 96
82 63 53 88 94 74 69 90 96 86 73 73 76 63 51 28 19 20 26 24 24 30 33 49 68 98 100 95 98 90 87 86 87 89 91 90 92 93 94 95 95 95 95 95
96 95 94 66 24 61 58 99 91 81 71 70 57 46 30 18 14 13 13 15 22 21 34 51 57 84 70 87 81 97 87 83 85 88 92 91 94 95 94 95 95 96 95 95
47 34 34 43 74 63 63 99 94 82 65 50 41 32 17 16 14 14 13 15 14 15 17 22 46 54 62 66 66 58 50 62 84 100 87 92 94 95 95 95 96 96 97 93
33 73 71 28 19 39 90 96 90 79 63 36 37 31 24 22 23 25 25 27 27 25 23 17 18 26 48 65 67 64 44 62 79 83 86 93 94 95 94 95 95 91 86 82
92 32 21 23 24 42 66 73 64 80 74 39 25 34 30 24 24 25 29 32 33 30 29 28 26 20 27 54 69 67 49 51 78 90 92 94 93 94 94 91 85 78 72 70
37 20 23 30 38 45 43 48 59 58 46 32 21 32 31 27 38 43 41 38 34 30 30 30 34 36 30 25 43 67 63 52 69 89 95 94 92 95 94 91 79 72 69 69
31 19 38 35 40 40 44 47 32 43 34 25 29 33 61 41 46 45 43 40 40 38 41 45 46 62 44 34 39 60 75 71 61 83 92 96 96 94 89 86 76 73 71 70
29 24 35 40 32 28 33 35 33 33 32 28 25 28 33 43 48 51 46 41 50 98 56 52 68 99 52 41 74 93 84 78 74 80 89 93 90 90 90 83 74 67 69 70
48 20 20 26 23 36 33 37 40 39 36 30 28 30 33 58 58 50 45 46 64 89 93 85 91 80 54 47 79 88 89 83 74 82 89 94 94 94 94 85 77 71 68 66
62 41 30 25 24 18 20 24 30 30 32 29 33 38 47 56 53 54 44 63 76 100 93 89 99 76 50 47 45 58 77 75 87 92 90 93 94 92 91 80 75 70 64 45
40 44 35 35 22 22 30 39 42 39 40 35 41 52 58 56 52 51 48 76 97 92 96 99 89 92 85 57 43 62 81 86 96 98 94 90 92 89 84 76 71 63 33 22
69 22 17 29 37 34 38 32 29 37 47 49 55 60 57 54 50 65 64 68 70 92 98 95 98 90 80 76 72 82 96 97 97 97 93 93 96 84 76 69 61 30 22 20
28 33 42 56 52 52 48 45 53 55 56 59 62 60 60 56 66 67 61 68 93 96 93 82 92 81 83 84 91 95 93 95 97 96 90 86 82 77 73 55 27 22 21 20
49 54 84 84 96 97 80 72 68 62 62 64 67 63 60 53 58 62 81 96 95 78 76 75 85 84 83 87 88 86 81 78 72 70 72 75 77 74 42 24 22 21 21 23
79 95 86 90 90 86 71 69 67 66 66 60 54 46 50 50 51 69 84 90 77 68 68 59 54 67 80 86 83 79 79 77 67 68 76 78 67 38 26 23 22 22 24 27

GFSNW_700_rhum_105.txt.gz
RH
99 93 84 67 96 100 100 99 97 95 98 97 97 98 99 92 88 85 83 88 90 84 86 60 84 66 66 64 66 67 78 78 65 49 67 62 54 45 69 86 56 82 49 60
96 98 96 84 97 97 98 99 96 99 98 96 98 100 100 94 91 85 94 95 89 86 92 84 91 87 80 62 62 76 76 73 50 47 53 50 43 43 49 52 54 37 43 53
96 96 94 83 97 97 96 97 98 98 98 92 98 100 97 90 88 88 93 93 98 94 89 83 97 100 87 76 92 80 69 57 51 47 48 46 50 43 44 48 52 34 30 24
95 97 94 77 94 97 96 96 95 86 91 95 95 97 98 90 87 85 86 95 98 98 94 88 89 93 89 95 91 88 81 65 49 41 44 42 45 45 45 40 39 34 26 23
93 97 99 85 100 97 96 96 97 100 99 100 98 96 94 85 85 79 86 93 97 100 98 92 77 79 79 70 79 69 43 53 56 43 44 41 36 32 30 31 30 30 28 26
96 96 96 94 98 100 89 92 95 96 96 99 100 98 89 86 95 94 96 95 90 99 95 91 85 78 79 79 74 72 58 67 46 28 41 35 26 35 32 29 26 35 42 78
96 99 88 94 96 98 97 95 96 95 93 99 98 95 93 94 94 92 97 92 84 90 59 66 60 78 78 73 68 69 59 56 45 32 41 34 85 97 82 74 82 84 81 77
95 96 91 94 97 97 96 97 96 95 95 84 94 96 86 98 96 93 84 82 83 59 66 74 70 67 67 72 63 50 48 50 58 60 40 56 78 98 64 55 95 71 75 81
96 100 98 96 97 96 96 90 96 95 97 90 93 91 95 93 96 98 78 61 61 53 78 70 52 51 42 68 81 75 72 78 72 61 58 51 97 96 89 60 91 88 81 82
97 97 97 95 96 95 96 91 93 93 97 88 90 96 92 97 95 93 97 63 56 46 90 84 63 61 57 63 72 94 86 88 75 62 57 91 75 68 67 94 98 88 83 82
94 89 92 92 95 95 95 96 90 96 97 82 92 90 86 91 87 89 98 72 59 68 83 66 74 78 69 86 94 90 81 72 69 58 72 87 76 83 86 92 86 90 91 92
89 91 97 92 96 96 95 98 94 90 96 89 93 90 80 69 79 88 52 93 63 89 76 69 76 86 90 93 82 81 96 88 98 90 94 76 74 80 85 89 89 94 92 94
95 98 98 96 96 96 97 98 95 95 95 92 84 73 69 60 35 30 78 49 36 49 53 95 92 97 83 82 93 100 81 71 80 74 71 76 78 84 88 89 88 90 94 95
96 97 96 98 94 96 85 96 96 95 96 92 75 70 55 23 20 22 24 27 25 30 37 83 94 89 98 94 88 99 100 98 94 84 79 79 80 84 87 86 90 93 93 93
92 96 95 83 56 78 98 96 92 80 94 85 63 50 24 21 17 15 16 19 22 55 63 78 90 96 83 92 100 98 100 97 100 99 76 76 78 85 87 88 92 94 91 87
98 96 64 59 66 91 90 98 94 88 75 55 94 34 25 18 16 17 19 21 19 52 60 62 67 52 70 98 99 66 43 46 59 62 66 78 83 87 88 90 94 94 86 81
83 57 68 90 94 72 95 93 82 85 73 38 49 44 23 19 24 23 22 23 24 64 45 74 68 53 83 91 100 63 44 46 68 72 74 82 84 84 86 84 83 80 76 74
94 65 50 35 48 97 99 88 80 80 75 33 73 87 28 26 78 60 29 38 35 30 63 28 82 58 91 94 54 65 53 42 68 78 80 90 86 85 87 80 75 76 75 72
36 54 52 55 85 99 78 72 77 81 47 32 69 62 100 22 78 42 37 61 52 32 96 91 74 96 93 94 22 49 64 50 53 77 82 87 91 89 90 84 74 72 67 61
48 48 67 84 75 63 77 74 57 48 35 25 86 93 40 74 85 72 79 49 97 97 97 67 94 92 84 59 33 44 68 65 57 71 79 83 90 90 91 83 72 65 63 64
50 52 52 42 54 74 59 48 44 35 32 32 89 69 50 74 74 95 96 99 100 87 94 96 97 92 71 52 48 85 80 73 72 80 95 96 96 95 91 83 75 72 72 66
33 34 32 54 45 28 30 38 32 55 80 43 70 99 100 67 87 100 57 98 92 97 86 100 90 84 72 57 63 89 93 88 84 85 91 95 96 95 92 87 78 75 70 57
37 38 48 28 25 24 30 29 36 46 22 45 58 70 76 55 92 55 59 70 100 81 88 97 91 84 62 50 49 88 83 81 81 93 94 91 97 95 94 86 80 73 59 28
41 45 48 40 25 24 28 86 40 19 27 71 67 41 70 69 55 50 100 80 71 100 97 97 89 89 76 66 45 46 69 78 85 97 97 100 99 98 96 86 76 60 28 22
41 34 25 26 23 24 22 25 26 30 39 48 58 53 65 47 54 60 57 55 97 100 93 81 83 85 84 78 67 70 82 92 95 97 99 98 98 96 88 81 61 30 23 20
35 43 62 69 78 64 58 53 51 46 50 72 73 58 62 53 80 58 86 100 96 95 73 72 82 81 82 85 94 95 95 95 95 95 95 94 88 84 82 62 31 23 21 23
85 97 89 96 90 95 94 95 65 62 83 82 79 54 88 51 96 100 95 100 80 68 68 58 67 79 88 95 95 94 92 87 81 80 80 80 80 80 58 30 24 22 22 24

GFSNW_700_rhum_108.txt.gz
RH
86 86 87 97 94 92 91 98 98 85 100 98 96 89 98 93 98 82 68 69 73 70 75 74 62 86 95 97 93 90 81 73 70 64 52 53 54 60 89 98 94 97 93 83
78 82 88 97 97 90 66 94 98 98 99 98 93 85 95 96 86 85 77 74 77 81 86 84 78 91 92 76 63 68 81 80 62 79 70 54 52 58 50 66 57 50 50 52
70 70 90 96 97 96 72 99 99 98 97 92 92 98 96 97 88 82 82 84 95 82 83 76 91 97 89 77 82 67 81 68 64 67 72 55 49 44 43 43 55 44 38 50
49 68 92 96 96 95 88 100 96 85 90 84 96 99 95 98 95 80 87 96 92 87 82 76 92 91 98 84 79 74 81 73 60 60 42 41 47 38 37 37 37 41 40 29
58 65 86 94 97 96 97 95 95 98 98 90 94 96 94 89 86 86 81 91 91 93 92 82 85 88 94 94 91 91 93 90 77 62 46 41 36 30 30 34 34 28 26 29
61 67 83 95 96 93 96 97 95 97 92 96 96 82 92 93 93 92 82 90 93 95 95 93 93 95 94 85 85 92 86 72 61 47 45 37 30 35 28 28 26 38 33 77
60 66 68 95 97 84 92 93 97 95 88 93 92 97 95 96 98 95 95 90 83 96 95 89 87 87 87 87 90 80 73 64 53 39 41 34 77 68 64 56 82 71 76 88
63 67 69 95 90 92 96 98 97 97 94 86 96 96 97 97 96 91 96 91 79 80 61 90 89 76 69 73 67 62 57 56 47 46 39 67 76 88 53 45 80 50 55 53
53 63 95 97 96 100 97 97 96 95 89 87 95 95 92 96 97 97 98 80 88 68 79 86 78 68 56 69 73 50 52 55 65 58 55 49 98 97 91 43 94 74 77 76
42 84 97 94 95 94 96 97 95 96 96 94 92 94 97 92 96 95 70 51 52 65 84 93 77 77 48 67 66 66 73 74 70 62 52 90 93 99 64 80 91 84 81 76
56 88 94 84 93 97 95 97 95 96 97 100 93 93 94 97 94 81 64 71 73 63 87 78 79 90 63 87 79 76 68 68 67 64 55 75 77 76 77 79 78 79 82 84
90 100 99 99 95 95 95 98 94 95 98 85 94 94 88 86 94 96 78 76 62 79 74 62 76 83 83 85 85 81 92 88 91 81 83 81 69 64 67 74 81 85 88 88
99 96 94 81 90 94 94 97 94 96 96 94 93 94 92 82 79 73 91 88 82 54 87 83 86 84 74 85 94 93 75 76 74 73 68 65 63 68 75 81 80 82 88 90
77 75 76 87 94 96 96 97 96 94 96 97 91 80 75 63 44 35 50 76 38 41 64 66 66 89 75 94 91 97 93 92 78 64 73 65 67 76 80 80 80 79 86 90
82 84 93 96 96 95 97 96 95 97 94 94 83 71 52 23 21 24 31 27 26 38 63 64 82 94 90 92 94 95 92 95 85 94 68 66 72 77 80 81 83 85 85 86
96 96 96 96 95 94 97 96 96 97 82 78 90 49 30 22 18 18 22 33 78 76 77 80 83 72 60 84 94 86 69 67 71 67 68 71 74 77 83 83 85 84 81 81
96 97 94 96 93 95 96 92 86 93 79 80 78 46 28 23 24 28 30 25 68 86 76 73 72 39 66 92 97 69 47 38 45 57 68 74 76 78 84 90 93 83 78 76
82 68 73 91 96 96 96 88 88 78 74 54 90 85 26 25 83 40 29 48 55 68 90 42 76 72 79 85 79 60 54 40 49 70 69 81 80 80 82 82 77 70 70 71
92 92 95 92 95 94 96 89 90 79 67 66 60 42 86 44 84 66 46 92 69 42 93 86 75 90 84 81 40 17 52 47 44 74 79 84 84 86 84 80 69 67 70 70
76 79 86 65 77 96 83 86 85 82 46 51 83 86 58 26 57 85 79 77 94 95 80 82 63 92 86 84 52 28 45 57 47 65 81 88 86 91 91 92 74 71 69 70
78 88 66 73 98 80 86 73 57 42 38 82 93 74 76 69 72 67 100 93 87 82 87 93 96 90 76 71 56 38 43 69 63 61 83 95 97 94 91 86 74 70 70 67
56 58 64 82 82 55 47 46 45 84 90 64 83 92 89 95 99 85 63 93 83 93 84 94 86 82 72 74 51 44 85 88 80 73 85 93 94 94 95 87 77 72 70 65
57 79 82 57 39 39 45 32 66 84 46 85 92 89 89 94 73 61 64 64 96 83 89 99 90 74 64 54 53 60 99 96 98 88 84 86 94 96 96 94 81 74 68 46
69 49 34 70 47 51 83 80 61 34 46 80 83 79 77 80 68 39 83 77 85 100 98 95 81 91 79 46 47 55 96 92 87 86 96 95 97 97 97 94 82 73 56 28
43 50 60 42 28 22 21 50 51 28 90 86 76 56 60 48 40 48 78 63 98 98 96 77 78 90 87 73 67 49 61 76 90 96 97 95 93 95 96 91 81 68 35 23
41 44 64 69 52 32 23 25 30 52 81 72 63 68 57 42 76 76 94 99 95 93 72 69 75 81 83 80 71 59 62 83 96 98 96 94 94 96 94 84 75 44 26 21
61 82 78 93 78 88 65 64 57 70 78 77 77 68 81 81 98 98 95 96 86 67 65 62 78 84 88 95 95 96 96 96 96 95 94 95 96 93 86 79 49 27 22 21

GFSNW_700_rhum_111.txt.gz
RH
87 90 89 86 88 87 98 100 96 57 96 98 98 96 98 84 75 84 85 88 78 79 76 73 66 77 77 71 60 97 98 98 84 72 66 74 79 80 70 96 90 98 97 98
88 88 95 92 87 88 90 96 96 98 96 98 94 97 97 100 84 90 94 83 76 75 72 80 76 76 80 85 82 98 97 98 88 65 65 66 61 57 64 69 71 71 70 88
73 77 82 88 84 89 97 96 98 98 97 91 92 94 87 97 92 96 94 80 83 79 74 80 83 75 79 88 84 94 90 87 66 63 71 70 58 53 55 61 53 50 44 67
37 32 57 80 84 93 97 97 90 68 74 81 90 99 98 91 99 91 91 93 86 82 82 85 84 80 87 86 91 92 97 95 80 64 64 53 53 46 48 49 45 40 39 48
46 38 33 70 91 90 96 96 84 85 86 84 78 84 95 90 82 96 93 87 80 83 76 82 79 80 97 84 82 97 95 95 93 76 63 42 41 39 30 32 35 36 30 72
57 53 54 62 78 94 94 97 77 96 89 76 95 72 67 80 85 91 87 80 69 86 85 96 91 95 92 96 77 90 96 96 90 91 69 62 42 38 34 32 37 40 35 83
58 42 54 73 68 82 90 96 91 100 90 94 79 64 67 83 91 94 92 96 88 92 88 96 92 89 96 95 84 89 93 96 80 46 48 55 55 51 47 40 52 62 69 81
46 56 66 71 82 62 96 97 100 100 92 79 90 84 74 78 95 95 88 98 89 97 94 95 95 90 92 92 90 89 94 78 54 42 44 79 80 69 58 52 43 47 70 67
63 77 75 84 85 94 96 93 97 93 91 72 83 85 85 99 95 97 97 96 97 96 78 88 94 89 75 75 75 81 63 60 50 50 65 79 95 78 67 38 40 37 51 67
86 90 94 78 80 95 97 94 94 100 98 86 82 76 93 95 91 96 96 96 96 90 82 77 88 88 64 74 73 58 52 52 60 68 63 85 96 91 83 67 54 60 73 76
90 94 87 92 96 93 97 96 89 90 99 89 97 92 84 91 97 94 90 80 76 74 80 82 92 93 82 79 71 53 56 64 66 68 68 88 81 78 72 59 59 66 70 76
73 87 97 97 96 91 88 95 98 93 95 96 97 96 91 96 97 87 67 56 46 48 54 67 93 88 82 78 87 77 74 70 70 72 72 78 77 67 57 59 71 75 78 80
57 91 99 94 92 94 91 94 96 95 96 96 97 96 96 94 97 82 54 63 49 37 48 71 79 74 71 78 82 75 76 78 84 79 76 76 66 58 63 70 72 75 82 84
99 100 92 78 96 99 92 96 96 96 96 97 95 94 93 93 82 78 70 52 50 50 70 76 87 79 74 86 88 85 74 74 74 70 67 60 58 62 70 74 73 78 82 88
95 96 96 96 89 95 96 98 96 97 96 99 97 89 87 68 53 41 42 45 35 55 80 72 75 88 84 94 94 93 90 76 63 57 61 60 62 68 74 78 80 83 83 86
86 83 80 85 96 97 95 97 94 96 91 92 89 81 35 22 19 24 31 38 62 65 75 92 87 90 75 90 92 81 83 70 62 55 66 65 67 73 75 80 85 80 76 76
92 90 98 97 96 97 95 94 95 88 91 91 66 55 28 26 30 30 41 61 78 74 76 70 58 64 72 90 77 65 59 46 42 50 61 66 70 76 77 83 88 82 77 74
97 96 96 97 96 95 96 96 92 93 92 61 52 37 32 28 36 34 33 81 88 70 58 63 74 57 73 79 71 63 53 46 39 42 52 68 76 79 84 89 94 82 72 70
95 94 96 96 96 95 96 93 91 94 68 60 70 25 48 56 59 56 59 72 66 66 67 81 81 70 52 33 33 37 31 49 44 40 66 72 81 83 87 85 77 70 69 68
80 95 95 97 96 94 95 91 75 70 60 82 57 26 29 54 68 57 57 70 76 48 65 76 82 83 82 70 58 47 28 40 48 40 69 77 83 86 88 81 73 73 73 67
97 96 94 92 95 97 92 90 77 64 35 92 95 68 46 38 51 60 71 61 70 86 84 67 72 62 62 57 58 54 38 42 57 55 74 94 96 93 93 95 83 74 71 72
95 91 86 96 90 63 57 58 47 52 62 71 72 59 55 79 83 70 78 81 66 94 85 71 88 75 76 76 67 47 46 54 72 66 68 90 97 95 96 96 95 75 72 69
94 93 94 65 51 32 38 37 49 82 66 68 76 74 77 97 79 64 53 82 82 78 83 85 80 77 85 68 60 55 56 94 88 79 84 95 96 96 96 95 93 80 74 66
80 50 42 53 40 57 71 39 29 55 67 88 85 70 70 71 56 32 48 72 78 81 97 97 79 74 75 49 47 56 95 95 91 94 93 98 99 96 96 96 95 89 74 53
42 44 54 66 56 53 60 65 56 56 77 84 92 72 69 63 38 34 70 65 81 88 97 75 72 80 81 72 54 51 93 99 94 91 94 96 96 98 98 97 95 85 70 36
44 54 62 46 29 22 47 80 60 77 86 87 70 70 48 35 50 52 69 100 98 92 75 65 71 80 82 83 81 70 66 81 80 88 95 96 99 97 97 96 94 81 55 27
58 88 74 86 47 23 29 52 84 80 88 76 60 56 60 70 88 97 84 93 84 67 62 63 76 84 88 94 86 67 62 71 90 96 97 98 98 98 96 96 88 73 38 24

GFSNW_700_rhum_114.txt.gz
RH
99 83 89 96 95 96 97 93 91 45 82 99 98 92 56 55 76 68 80 90 73 81 72 75 65 62 62 69 66 76 74 94 100 85 71 69 76 72 74 90 89 100 93 96
98 94 91 96 92 97 93 96 98 95 77 74 73 87 99 99 92 78 80 86 82 77 80 82 80 71 75 77 69 66 72 99 97 96 84 74 81 78 72 78 89 94 88 88
85 81 85 98 100 95 99 98 98 97 95 71 94 100 97 96 76 87 94 90 75 88 79 76 81 74 76 79 81 77 78 95 96 88 75 69 73 73 67 71 96 75 67 76
89 96 84 83 97 96 100 96 93 89 92 90 72 55 70 75 95 97 96 96 98 82 84 80 92 97 81 84 88 89 89 90 93 95 80 65 61 47 54 69 80 70 62 62
85 91 77 77 93 99 98 97 97 97 95 85 89 98 85 84 83 88 87 80 93 95 85 74 69 84 96 85 80 92 93 93 93 94 90 68 43 56 37 52 53 51 44 70
94 86 51 52 64 94 93 82 92 97 88 92 88 63 64 76 84 87 74 68 87 92 77 79 83 80 80 81 78 93 91 91 99 94 96 96 67 42 48 36 34 44 45 36
75 82 78 57 47 60 75 90 86 93 94 90 68 72 56 58 61 73 88 83 98 86 88 93 92 91 94 87 91 94 85 87 97 92 96 95 77 55 43 40 42 41 43 40
80 77 70 60 54 52 74 88 94 95 95 96 96 86 97 78 79 92 87 96 91 96 91 94 99 98 100 98 96 90 93 94 95 89 78 80 87 76 59 51 54 50 50 57
62 66 55 48 48 67 75 84 85 96 99 73 71 84 80 92 92 94 94 88 98 100 94 96 95 90 85 93 91 93 97 95 88 69 57 88 80 71 65 56 45 41 38 39
28 37 34 53 73 80 78 91 97 97 97 81 73 70 71 84 86 90 88 88 98 97 93 96 86 84 70 81 79 90 93 94 71 57 58 74 75 68 75 69 60 47 52 64
55 34 57 72 86 91 97 90 96 97 96 88 93 89 79 75 78 83 88 97 96 97 85 74 71 77 79 77 68 69 83 57 56 57 70 86 74 76 81 59 54 56 65 75
90 76 76 96 92 97 99 94 98 92 91 100 95 98 97 80 95 83 91 91 83 88 78 67 70 79 90 86 79 64 58 55 54 57 61 66 68 70 68 54 53 63 71 73
86 90 99 96 96 97 94 99 99 87 92 82 95 99 89 99 99 98 95 80 77 66 67 66 74 86 94 95 93 76 66 61 75 63 59 72 69 68 59 55 65 66 70 72
84 87 97 96 98 97 96 94 86 91 100 95 95 96 97 98 96 87 91 65 52 45 52 67 76 93 82 88 77 83 73 72 70 71 75 72 67 58 55 66 66 70 72 81
70 95 97 96 95 93 92 95 86 89 95 94 94 96 95 97 94 93 77 55 57 50 61 80 72 83 91 88 87 90 78 72 68 66 63 64 53 54 64 70 70 74 79 82
97 99 100 90 97 95 96 97 95 94 97 96 95 87 79 86 82 72 74 66 52 58 80 79 77 89 91 93 89 73 71 74 76 67 55 59 60 64 69 74 76 77 73 75
94 90 98 99 90 94 97 97 94 91 88 91 86 72 49 32 36 47 36 46 68 75 81 77 84 80 79 91 75 66 71 70 67 67 69 60 62 66 69 76 82 77 71 70
99 97 92 97 96 98 96 99 98 96 89 66 40 54 53 34 33 53 63 75 74 74 74 68 47 75 85 74 66 68 64 61 45 38 47 54 70 69 74 79 84 83 80 71
86 97 97 98 99 96 97 96 96 85 76 78 44 42 55 44 37 43 74 80 76 60 64 66 70 72 49 31 34 45 43 49 51 43 43 54 69 75 79 86 90 91 84 68
97 97 96 97 97 95 94 96 89 82 93 76 40 19 30 48 44 53 64 61 60 62 63 72 75 64 50 62 60 55 45 25 34 48 43 55 68 78 82 86 85 80 79 76
97 94 88 97 96 95 92 88 75 46 58 63 32 19 20 59 57 45 46 80 82 85 75 71 58 52 42 56 63 56 43 35 31 50 50 79 90 85 86 84 80 76 77 80
95 95 97 96 94 78 71 66 57 40 55 90 64 50 56 60 69 68 73 69 65 88 88 74 86 52 65 81 84 74 58 39 37 52 60 86 94 95 96 96 96 87 79 78
96 96 81 60 59 34 55 40 56 67 55 62 52 55 58 64 66 57 50 66 63 75 84 77 67 54 66 70 55 44 46 45 57 74 69 82 99 98 97 96 96 93 86 79
93 68 48 35 38 36 48 30 40 53 58 58 61 61 91 73 58 40 36 64 71 75 84 79 78 63 60 61 43 42 48 72 90 92 93 99 97 96 96 96 96 96 95 94
42 44 44 54 56 57 32 32 52 54 73 78 82 68 66 58 41 30 59 67 61 74 83 73 73 70 76 71 45 42 78 93 96 98 98 97 96 96 96 96 96 96 95 81
52 49 42 47 59 80 74 58 49 66 100 99 92 60 62 39 36 43 53 71 83 78 71 64 63 74 77 74 67 47 83 98 98 95 98 96 96 96 96 95 96 96 95 76
76 86 64 39 36 79 83 69 69 96 96 98 66 53 47 60 72 64 72 77 79 74 62 63 72 80 83 85 84 79 70 90 93 95 99 97 96 96 97 97 96 96 92 61

GFSNW_700_rhum_117.txt.gz
RH
92 97 97 99 87 76 93 87 68 37 33 68 97 91 69 69 58 69 80 55 52 67 69 78 84 67 62 63 64 63 62 79 87 87 81 82 81 72 71 76 96 99 92 81
96 97 79 88 97 91 98 97 100 83 58 94 92 74 91 94 74 96 93 75 74 68 62 83 71 72 69 66 69 70 67 75 96 85 83 90 98 98 90 76 74 90 93 80
84 75 87 94 97 93 97 100 97 98 90 96 88 95 100 99 92 99 95 75 85 76 76 82 87 75 68 71 67 71 72 76 78 74 61 83 87 90 91 82 94 85 92 85
80 85 81 98 98 92 99 98 97 84 93 90 80 82 95 96 96 92 89 94 87 77 90 98 92 96 90 73 70 82 77 82 74 76 82 86 87 98 97 96 79 91 79 79
81 76 91 86 95 97 98 97 98 92 91 92 92 100 67 67 63 91 92 93 80 85 90 87 86 81 86 84 90 84 77 88 91 90 91 89 79 91 46 52 75 81 85 91
82 81 80 85 88 98 95 92 97 99 87 76 83 72 70 68 85 85 86 88 86 82 66 81 79 96 87 82 79 92 93 95 98 94 89 97 97 73 70 49 59 65 74 71
73 86 98 93 90 84 96 85 87 98 86 93 69 79 82 72 74 78 68 75 86 59 66 81 96 97 90 86 99 94 96 92 98 96 94 96 77 74 78 60 44 40 39 39
74 82 96 95 71 84 93 98 100 95 88 86 92 94 91 94 77 66 69 71 78 90 99 100 97 98 98 94 95 95 97 94 95 94 99 88 80 72 58 49 48 47 50 49
78 86 91 80 72 50 69 74 83 89 76 74 92 94 92 77 90 86 53 61 80 86 98 98 94 93 86 96 97 100 99 99 97 96 95 94 70 59 64 59 56 48 46 46
72 79 84 84 82 68 51 52 67 95 92 81 90 91 83 65 78 93 89 87 79 97 97 99 93 90 81 88 97 96 98 100 96 91 87 61 56 63 70 64 48 47 46 46
39 52 70 80 66 63 60 63 80 82 83 92 89 78 70 70 80 85 94 99 92 96 92 98 94 92 83 79 75 81 79 91 95 94 91 76 52 59 65 62 64 54 49 50
22 23 34 57 55 59 73 82 82 99 100 96 90 85 74 68 70 81 85 89 76 79 93 96 86 94 78 74 74 73 78 75 73 66 69 56 63 47 59 67 64 52 55 64
86 68 50 52 62 79 85 79 97 97 83 79 78 59 57 49 54 66 89 80 91 96 96 83 74 70 78 80 78 71 69 70 77 59 54 49 47 54 66 64 55 58 67 70
98 82 42 61 82 90 93 95 94 97 94 86 76 68 88 96 91 96 99 94 98 94 93 82 73 69 70 90 87 80 73 69 62 64 58 56 51 61 66 56 56 65 67 72
96 83 80 91 96 96 89 95 96 99 100 98 99 96 98 95 92 98 99 97 90 86 70 74 70 63 85 93 89 88 76 71 66 62 55 65 68 68 55 54 66 69 74 72
83 86 96 96 97 94 97 97 95 97 93 98 94 95 96 96 96 94 96 74 75 66 60 80 75 81 87 96 98 78 74 81 78 77 71 59 64 57 54 66 67 71 74 81
82 95 96 97 97 98 94 88 76 98 94 96 91 90 96 98 98 94 91 68 70 69 85 85 80 74 92 94 91 79 77 77 73 70 63 53 55 55 62 70 72 75 72 74
94 97 97 97 99 100 97 95 99 97 96 83 70 73 63 59 62 66 61 64 83 86 82 70 76 87 86 80 77 64 67 66 55 55 62 64 67 65 70 72 77 75 70 69
96 96 97 96 97 96 97 97 97 97 87 68 44 55 73 66 72 84 88 83 82 78 73 66 60 84 76 53 47 69 65 57 56 46 40 47 56 70 72 76 82 81 81 74
96 97 96 97 95 97 97 98 98 99 96 74 44 44 54 75 78 91 90 84 68 70 72 66 72 77 58 47 40 40 35 27 22 47 49 42 48 67 77 82 91 94 95 86
100 96 89 92 97 94 94 93 76 61 91 64 35 29 31 57 50 57 56 67 62 49 63 80 63 53 52 54 48 41 37 32 29 25 44 46 68 80 83 88 96 97 94 87
83 90 96 97 95 89 85 72 52 41 68 53 29 32 46 51 55 48 48 58 61 85 77 62 60 49 43 51 61 56 47 39 32 31 40 55 74 91 97 97 96 95 93 84
96 96 95 93 79 48 65 56 55 58 84 38 25 44 63 63 60 54 58 58 56 77 89 73 56 51 46 49 39 32 31 32 34 41 59 74 96 98 97 97 96 96 95 90
89 73 64 56 35 36 50 42 38 42 76 64 56 53 62 63 52 48 40 54 68 75 72 58 59 58 54 57 50 31 39 42 60 81 80 88 100 97 96 95 97 96 96 95
50 48 39 31 37 42 38 42 53 50 60 57 70 58 65 62 39 27 38 58 62 63 59 70 68 64 61 62 56 37 43 68 92 93 96 98 97 96 96 96 96 97 96 96
47 45 43 52 70 41 50 68 62 69 84 82 81 65 68 49 30 34 44 48 52 66 61 69 58 59 68 72 67 40 60 83 93 99 97 97 96 96 96 96 96 96 96 96
62 77 62 77 95 98 100 92 94 100 100 89 70 49 44 46 42 46 51 62 73 77 69 60 58 67 76 80 74 57 62 87 87 97 96 95 96 96 96 96 96 96 96 96

GFSNW_700_rhum_120.txt.gz
RH
84 88 92 96 97 96 97 89 61 29 43 95 74 61 22 27 34 60 59 67 58 57 68 77 78 66 59 57 58 60 56 76 78 79 80 78 86 88 95 95 90 95 95 71
96 96 96 95 96 95 92 94 79 69 69 91 98 73 41 37 38 65 88 71 75 55 66 67 64 62 68 74 74 71 68 95 90 93 92 96 87 66 81 91 92 93 91 71
97 97 93 92 94 91 98 100 99 100 88 83 72 66 75 61 69 92 100 91 94 92 86 75 72 59 67 72 65 64 70 71 69 71 62 66 70 68 67 87 98 91 87 70
97 96 90 84 88 89 99 96 96 95 97 81 69 68 82 91 97 97 96 95 83 89 96 79 69 64 68 77 83 76 72 77 74 69 74 74 79 80 75 95 90 99 94 78
94 96 87 72 69 87 98 99 96 82 80 89 98 92 98 75 65 100 95 91 85 86 90 84 68 82 77 78 84 95 89 81 80 78 76 84 86 73 84 82 93 98 98 92
91 93 86 66 70 96 96 95 94 83 82 84 97 93 76 64 90 91 88 86 95 96 85 84 82 92 96 94 97 95 89 100 95 94 78 82 98 52 64 73 68 51 72 80
99 95 77 67 75 86 97 95 99 92 96 95 79 77 82 78 82 71 66 77 83 64 69 68 66 71 77 78 86 99 93 96 98 92 90 95 68 67 62 73 75 70 62 74
92 83 79 67 87 92 90 96 96 97 97 98 89 76 70 69 73 67 92 81 80 84 89 94 98 99 97 62 89 92 95 95 97 94 98 77 63 62 60 70 62 70 80 57
89 76 69 72 86 94 94 96 94 96 90 87 82 89 94 92 86 81 79 70 63 85 100 100 94 88 75 95 94 98 99 99 98 97 94 97 58 54 62 69 75 64 54 52
80 73 69 77 88 94 93 90 90 96 97 90 76 69 80 76 84 82 80 78 84 71 83 100 98 94 75 85 88 94 97 99 98 99 92 76 62 57 64 81 61 50 52 49
79 78 76 79 91 88 86 72 92 89 90 82 80 75 73 93 95 91 86 96 98 97 99 99 89 97 89 86 82 88 84 95 97 98 97 89 59 58 66 58 56 48 51 47
78 80 80 83 88 88 86 70 62 66 81 72 72 80 80 97 100 100 96 87 93 96 99 96 95 91 88 76 82 84 90 73 78 76 68 59 54 55 50 55 64 60 54 49
41 57 65 78 84 86 78 68 64 78 94 67 89 94 92 94 87 84 78 76 78 83 91 100 88 87 95 80 78 71 72 79 80 73 70 67 62 62 55 59 68 65 51 58
26 30 39 51 64 77 70 66 70 82 100 98 89 82 74 78 68 65 64 67 88 100 99 97 96 95 94 83 67 67 67 67 68 72 69 64 57 56 56 51 68 59 55 63
68 36 26 26 50 58 73 93 93 93 93 96 90 78 73 55 50 64 83 96 98 100 98 96 95 83 72 70 81 87 80 73 74 69 61 61 61 70 61 66 66 56 64 66
95 82 54 50 55 79 97 96 96 97 97 97 99 98 86 92 96 98 98 96 97 94 96 95 88 73 71 83 97 85 84 77 80 78 77 72 66 65 69 64 56 65 70 71
90 83 50 61 95 95 89 92 79 90 96 97 96 95 97 97 97 97 97 93 93 98 80 70 67 78 73 74 96 89 81 82 86 87 74 70 64 57 64 58 65 70 75 76
91 96 96 96 98 98 97 95 93 96 96 94 96 95 96 96 96 95 95 94 92 87 82 83 85 75 66 94 75 83 73 82 81 76 68 66 61 59 59 64 72 75 76 71
97 96 97 97 97 96 97 96 96 95 96 86 62 74 88 98 87 68 64 70 84 81 84 77 78 87 92 79 60 68 70 72 69 57 45 56 64 64 66 72 76 82 74 70
97 97 97 96 96 95 97 98 97 97 98 74 51 58 50 59 79 98 92 87 85 76 79 73 74 74 70 46 31 39 54 43 39 48 49 42 44 51 70 78 87 90 87 86
98 97 93 90 96 97 96 93 85 82 90 72 51 49 50 73 89 91 81 76 54 54 68 79 68 56 53 53 46 49 41 36 31 26 26 48 43 59 76 82 90 94 95 96
88 91 96 96 94 92 89 76 56 53 71 64 47 50 69 82 76 72 54 59 56 80 73 66 52 41 40 51 49 46 46 42 33 30 27 30 50 65 84 95 98 98 97 97
95 94 88 93 85 66 68 58 52 52 66 47 41 52 68 59 58 41 43 43 52 68 81 69 55 56 47 45 48 49 29 23 23 23 28 38 53 78 92 99 97 97 96 96
95 94 86 83 43 49 56 52 44 49 66 36 35 46 62 59 46 42 47 47 51 76 69 53 52 50 49 49 37 30 26 28 28 30 45 64 84 100 98 97 96 96 96 96
74 60 46 31 28 36 48 46 50 74 64 53 50 57 48 52 43 31 29 46 58 59 57 58 60 65 50 48 50 37 33 39 48 71 84 88 95 97 96 96 96 96 96 96
49 47 35 44 42 47 55 62 64 74 81 84 78 61 69 57 37 30 34 44 45 53 51 70 62 55 62 68 68 47 35 57 72 82 88 88 94 96 96 96 96 96 96 96
48 50 54 58 62 80 96 99 93 82 92 92 62 46 53 44 33 33 40 46 62 72 70 68 60 61 70 74 74 64 42 67 81 82 88 92 92 95 96 96 96 96 96 96